<?xml version="1.0" encoding="UTF-8" standalone="no" ?>
<gpx xmlns="http://www.topografix.com/GPX/1/1" xmlns:xsi="http://www.w3.org/2001/XMLSchema-instance" xsi:schemaLocation="http://www.topografix.com/GPX/1/1 http://www.topografix.com/GPX/1/1/gpx.xsd" version="1.1" creator="VisuGPX - https://www.visugpx.com">
  <metadata>
    <name>Authon Cyclisme</name>
    <desc><![CDATA[trace faite par vincent et maurice]]></desc>
  </metadata>
  <trk>
    <name><![CDATA[Authon Cyclisme]]></name>
    <trkseg>
      <trkpt lat="44.23746" lon="6.12848">
        <ele>1135.1999511719</ele>
        <time>2021-06-21T06:14:04.000Z</time>
      </trkpt>
      <trkpt lat="44.23759" lon="6.12855">
        <ele>1135.1999511719</ele>
        <time>2021-06-21T06:14:04.005Z</time>
      </trkpt>
      <trkpt lat="44.2375" lon="6.12885">
        <ele>1135.1999511719</ele>
        <time>2021-06-21T06:14:04.019Z</time>
      </trkpt>
      <trkpt lat="44.2375" lon="6.12909">
        <ele>1137.8000488281</ele>
        <time>2021-06-21T06:14:04.039Z</time>
      </trkpt>
      <trkpt lat="44.23757" lon="6.12937">
        <ele>1137.8000488281</ele>
        <time>2021-06-21T06:14:04.067Z</time>
      </trkpt>
      <trkpt lat="44.23772" lon="6.12943">
        <ele>1138.1999511719</ele>
        <time>2021-06-21T06:14:04.101Z</time>
      </trkpt>
      <trkpt lat="44.23779" lon="6.12947">
        <ele>1138.1999511719</ele>
        <time>2021-06-21T06:14:04.138Z</time>
      </trkpt>
      <trkpt lat="44.23799" lon="6.12963">
        <ele>1138.8000488281</ele>
        <time>2021-06-21T06:14:04.183Z</time>
      </trkpt>
      <trkpt lat="44.23846" lon="6.13006">
        <ele>1141.4000244141</ele>
        <time>2021-06-21T06:14:04.249Z</time>
      </trkpt>
      <trkpt lat="44.23853" lon="6.13009">
        <ele>1141.4000244141</ele>
        <time>2021-06-21T06:14:04.318Z</time>
      </trkpt>
      <trkpt lat="44.23863" lon="6.13008">
        <ele>1142.1999511719</ele>
        <time>2021-06-21T06:14:04.390Z</time>
      </trkpt>
      <trkpt lat="44.23868" lon="6.13003">
        <ele>1142.1999511719</ele>
        <time>2021-06-21T06:14:04.465Z</time>
      </trkpt>
      <trkpt lat="44.23871" lon="6.12996">
        <ele>1143.4000244141</ele>
        <time>2021-06-21T06:14:04.542Z</time>
      </trkpt>
      <trkpt lat="44.23875" lon="6.12975">
        <ele>1143.4000244141</ele>
        <time>2021-06-21T06:14:04.625Z</time>
      </trkpt>
      <trkpt lat="44.2388" lon="6.12969">
        <ele>1143.4000244141</ele>
        <time>2021-06-21T06:14:04.710Z</time>
      </trkpt>
      <trkpt lat="44.23882" lon="6.12969">
        <ele>1147.1999511719</ele>
        <time>2021-06-21T06:14:04.796Z</time>
      </trkpt>
      <trkpt lat="44.23889" lon="6.12971">
        <ele>1147.1999511719</ele>
        <time>2021-06-21T06:14:04.885Z</time>
      </trkpt>
      <trkpt lat="44.23985" lon="6.13028">
        <ele>1157.8000488281</ele>
        <time>2021-06-21T06:14:05.012Z</time>
      </trkpt>
      <trkpt lat="44.24002" lon="6.13042">
        <ele>1157.8000488281</ele>
        <time>2021-06-21T06:14:05.146Z</time>
      </trkpt>
      <trkpt lat="44.24023" lon="6.13065">
        <ele>1157.8000488281</ele>
        <time>2021-06-21T06:14:05.290Z</time>
      </trkpt>
      <trkpt lat="44.24075" lon="6.13109">
        <ele>1160.5999755859</ele>
        <time>2021-06-21T06:14:05.457Z</time>
      </trkpt>
      <trkpt lat="44.24092" lon="6.1313">
        <ele>1160.5999755859</ele>
        <time>2021-06-21T06:14:05.632Z</time>
      </trkpt>
      <trkpt lat="44.2411" lon="6.13161">
        <ele>1160.1999511719</ele>
        <time>2021-06-21T06:14:05.817Z</time>
      </trkpt>
      <trkpt lat="44.24146" lon="6.13199">
        <ele>1160.8000488281</ele>
        <time>2021-06-21T06:14:06.019Z</time>
      </trkpt>
      <trkpt lat="44.24181" lon="6.13228">
        <ele>1161.1999511719</ele>
        <time>2021-06-21T06:14:06.236Z</time>
      </trkpt>
      <trkpt lat="44.24198" lon="6.13246">
        <ele>1161.1999511719</ele>
        <time>2021-06-21T06:14:06.461Z</time>
      </trkpt>
      <trkpt lat="44.24214" lon="6.13258">
        <ele>1161.4000244141</ele>
        <time>2021-06-21T06:14:06.693Z</time>
      </trkpt>
      <trkpt lat="44.24228" lon="6.13285">
        <ele>1161.4000244141</ele>
        <time>2021-06-21T06:14:06.934Z</time>
      </trkpt>
      <trkpt lat="44.24242" lon="6.13299">
        <ele>1161.8000488281</ele>
        <time>2021-06-21T06:14:07.181Z</time>
      </trkpt>
      <trkpt lat="44.24301" lon="6.13327">
        <ele>1161.8000488281</ele>
        <time>2021-06-21T06:14:07.451Z</time>
      </trkpt>
      <trkpt lat="44.24327" lon="6.13349">
        <ele>1161.8000488281</ele>
        <time>2021-06-21T06:14:07.732Z</time>
      </trkpt>
      <trkpt lat="44.24363" lon="6.13376">
        <ele>1165.5999755859</ele>
        <time>2021-06-21T06:14:08.028Z</time>
      </trkpt>
      <trkpt lat="44.24402" lon="6.13415">
        <ele>1167</ele>
        <time>2021-06-21T06:14:08.342Z</time>
      </trkpt>
      <trkpt lat="44.24431" lon="6.13435">
        <ele>1167</ele>
        <time>2021-06-21T06:14:08.668Z</time>
      </trkpt>
      <trkpt lat="44.24459" lon="6.13452">
        <ele>1170.4000244141</ele>
        <time>2021-06-21T06:14:09.005Z</time>
      </trkpt>
      <trkpt lat="44.24506" lon="6.13477">
        <ele>1170.4000244141</ele>
        <time>2021-06-21T06:14:09.361Z</time>
      </trkpt>
      <trkpt lat="44.2454" lon="6.13509">
        <ele>1174.5999755859</ele>
        <time>2021-06-21T06:14:09.732Z</time>
      </trkpt>
      <trkpt lat="44.24582" lon="6.13561">
        <ele>1174.5999755859</ele>
        <time>2021-06-21T06:14:10.124Z</time>
      </trkpt>
      <trkpt lat="44.24599" lon="6.13576">
        <ele>1174.5999755859</ele>
        <time>2021-06-21T06:14:10.523Z</time>
      </trkpt>
      <trkpt lat="44.24642" lon="6.13649">
        <ele>1179.4000244141</ele>
        <time>2021-06-21T06:14:10.947Z</time>
      </trkpt>
      <trkpt lat="44.24666" lon="6.13678">
        <ele>1181.4000244141</ele>
        <time>2021-06-21T06:14:11.383Z</time>
      </trkpt>
      <trkpt lat="44.24691" lon="6.13718">
        <ele>1183.5999755859</ele>
        <time>2021-06-21T06:14:11.833Z</time>
      </trkpt>
      <trkpt lat="44.24697" lon="6.13735">
        <ele>1183.8000488281</ele>
        <time>2021-06-21T06:14:12.288Z</time>
      </trkpt>
      <trkpt lat="44.24705" lon="6.13771">
        <ele>1183.8000488281</ele>
        <time>2021-06-21T06:14:12.753Z</time>
      </trkpt>
      <trkpt lat="44.24723" lon="6.13824">
        <ele>1187.1999511719</ele>
        <time>2021-06-21T06:14:13.233Z</time>
      </trkpt>
      <trkpt lat="44.2473" lon="6.1384">
        <ele>1187.1999511719</ele>
        <time>2021-06-21T06:14:13.718Z</time>
      </trkpt>
      <trkpt lat="44.24757" lon="6.1389">
        <ele>1187.1999511719</ele>
        <time>2021-06-21T06:14:14.220Z</time>
      </trkpt>
      <trkpt lat="44.2479" lon="6.13934">
        <ele>1187.1999511719</ele>
        <time>2021-06-21T06:14:14.739Z</time>
      </trkpt>
      <trkpt lat="44.24808" lon="6.13942">
        <ele>1187.1999511719</ele>
        <time>2021-06-21T06:14:15.265Z</time>
      </trkpt>
      <trkpt lat="44.24827" lon="6.13948">
        <ele>1187.1999511719</ele>
        <time>2021-06-21T06:14:15.798Z</time>
      </trkpt>
      <trkpt lat="44.24841" lon="6.13958">
        <ele>1187.1999511719</ele>
        <time>2021-06-21T06:14:16.337Z</time>
      </trkpt>
      <trkpt lat="44.24875" lon="6.14001">
        <ele>1197</ele>
        <time>2021-06-21T06:14:16.893Z</time>
      </trkpt>
      <trkpt lat="44.24882" lon="6.14014">
        <ele>1198</ele>
        <time>2021-06-21T06:14:17.453Z</time>
      </trkpt>
      <trkpt lat="44.24901" lon="6.14037">
        <ele>1199.4000244141</ele>
        <time>2021-06-21T06:14:18.022Z</time>
      </trkpt>
      <trkpt lat="44.24912" lon="6.14055">
        <ele>1199.4000244141</ele>
        <time>2021-06-21T06:14:18.597Z</time>
      </trkpt>
      <trkpt lat="44.24924" lon="6.14082">
        <ele>1201.1999511719</ele>
        <time>2021-06-21T06:14:19.181Z</time>
      </trkpt>
      <trkpt lat="44.24925" lon="6.14087">
        <ele>1201.1999511719</ele>
        <time>2021-06-21T06:14:19.766Z</time>
      </trkpt>
      <trkpt lat="44.24927" lon="6.14103">
        <ele>1202.4000244141</ele>
        <time>2021-06-21T06:14:20.355Z</time>
      </trkpt>
      <trkpt lat="44.24924" lon="6.1413">
        <ele>1202.4000244141</ele>
        <time>2021-06-21T06:14:20.952Z</time>
      </trkpt>
      <trkpt lat="44.24924" lon="6.14154">
        <ele>1205.1999511719</ele>
        <time>2021-06-21T06:14:21.555Z</time>
      </trkpt>
      <trkpt lat="44.24927" lon="6.14177">
        <ele>1205.1999511719</ele>
        <time>2021-06-21T06:14:22.164Z</time>
      </trkpt>
      <trkpt lat="44.24934" lon="6.14203">
        <ele>1205.1999511719</ele>
        <time>2021-06-21T06:14:22.781Z</time>
      </trkpt>
      <trkpt lat="44.24938" lon="6.14229">
        <ele>1206.8000488281</ele>
        <time>2021-06-21T06:14:23.405Z</time>
      </trkpt>
      <trkpt lat="44.24942" lon="6.14262">
        <ele>1208.4000244141</ele>
        <time>2021-06-21T06:14:24.038Z</time>
      </trkpt>
      <trkpt lat="44.24945" lon="6.14318">
        <ele>1211</ele>
        <time>2021-06-21T06:14:24.685Z</time>
      </trkpt>
      <trkpt lat="44.24944" lon="6.14339">
        <ele>1211.4000244141</ele>
        <time>2021-06-21T06:14:25.338Z</time>
      </trkpt>
      <trkpt lat="44.24931" lon="6.14447">
        <ele>1211.4000244141</ele>
        <time>2021-06-21T06:14:26.020Z</time>
      </trkpt>
      <trkpt lat="44.24933" lon="6.14458">
        <ele>1215.5999755859</ele>
        <time>2021-06-21T06:14:26.705Z</time>
      </trkpt>
      <trkpt lat="44.24946" lon="6.14515">
        <ele>1215.5999755859</ele>
        <time>2021-06-21T06:14:27.406Z</time>
      </trkpt>
      <trkpt lat="44.24972" lon="6.14559">
        <ele>1215.5999755859</ele>
        <time>2021-06-21T06:14:28.122Z</time>
      </trkpt>
      <trkpt lat="44.24983" lon="6.14607">
        <ele>1215.5999755859</ele>
        <time>2021-06-21T06:14:28.851Z</time>
      </trkpt>
      <trkpt lat="44.25012" lon="6.14658">
        <ele>1225.1999511719</ele>
        <time>2021-06-21T06:14:29.597Z</time>
      </trkpt>
      <trkpt lat="44.25024" lon="6.14704">
        <ele>1226.8000488281</ele>
        <time>2021-06-21T06:14:30.356Z</time>
      </trkpt>
      <trkpt lat="44.25034" lon="6.14734">
        <ele>1228.1999511719</ele>
        <time>2021-06-21T06:14:31.124Z</time>
      </trkpt>
      <trkpt lat="44.25043" lon="6.14751">
        <ele>1229.4000244141</ele>
        <time>2021-06-21T06:14:31.898Z</time>
      </trkpt>
      <trkpt lat="44.25056" lon="6.14769">
        <ele>1230.5999755859</ele>
        <time>2021-06-21T06:14:32.678Z</time>
      </trkpt>
      <trkpt lat="44.25072" lon="6.14784">
        <ele>1230.5999755859</ele>
        <time>2021-06-21T06:14:33.465Z</time>
      </trkpt>
      <trkpt lat="44.25087" lon="6.14796">
        <ele>1232.8000488281</ele>
        <time>2021-06-21T06:14:34.259Z</time>
      </trkpt>
      <trkpt lat="44.25106" lon="6.14823">
        <ele>1232.8000488281</ele>
        <time>2021-06-21T06:14:35.063Z</time>
      </trkpt>
      <trkpt lat="44.25107" lon="6.14842">
        <ele>1234</ele>
        <time>2021-06-21T06:14:35.872Z</time>
      </trkpt>
      <trkpt lat="44.25102" lon="6.14851">
        <ele>1234</ele>
        <time>2021-06-21T06:14:36.684Z</time>
      </trkpt>
      <trkpt lat="44.25092" lon="6.1486">
        <ele>1234</ele>
        <time>2021-06-21T06:14:37.500Z</time>
      </trkpt>
      <trkpt lat="44.25086" lon="6.14875">
        <ele>1238.5999755859</ele>
        <time>2021-06-21T06:14:38.321Z</time>
      </trkpt>
      <trkpt lat="44.25086" lon="6.14887">
        <ele>1239.8000488281</ele>
        <time>2021-06-21T06:14:39.145Z</time>
      </trkpt>
      <trkpt lat="44.2509" lon="6.14899">
        <ele>1239.8000488281</ele>
        <time>2021-06-21T06:14:39.972Z</time>
      </trkpt>
      <trkpt lat="44.25097" lon="6.14907">
        <ele>1239.8000488281</ele>
        <time>2021-06-21T06:14:40.803Z</time>
      </trkpt>
      <trkpt lat="44.25123" lon="6.14926">
        <ele>1239.8000488281</ele>
        <time>2021-06-21T06:14:41.645Z</time>
      </trkpt>
      <trkpt lat="44.25141" lon="6.1495">
        <ele>1248.8000488281</ele>
        <time>2021-06-21T06:14:42.496Z</time>
      </trkpt>
      <trkpt lat="44.25151" lon="6.14961">
        <ele>1250.1999511719</ele>
        <time>2021-06-21T06:14:43.352Z</time>
      </trkpt>
      <trkpt lat="44.25154" lon="6.14969">
        <ele>1251.1999511719</ele>
        <time>2021-06-21T06:14:44.210Z</time>
      </trkpt>
      <trkpt lat="44.25164" lon="6.14983">
        <ele>1251.1999511719</ele>
        <time>2021-06-21T06:14:45.073Z</time>
      </trkpt>
      <trkpt lat="44.25166" lon="6.14992">
        <ele>1253.5999755859</ele>
        <time>2021-06-21T06:14:45.939Z</time>
      </trkpt>
      <trkpt lat="44.25431" lon="6.15014">
        <ele>1253.5999755859</ele>
        <time>2021-06-21T06:14:46.902Z</time>
      </trkpt>
      <trkpt lat="44.25442" lon="6.1502">
        <ele>1253.5999755859</ele>
        <time>2021-06-21T06:14:47.870Z</time>
      </trkpt>
      <trkpt lat="44.25448" lon="6.15021">
        <ele>1253.5999755859</ele>
        <time>2021-06-21T06:14:48.840Z</time>
      </trkpt>
      <trkpt lat="44.2546" lon="6.15026">
        <ele>1308</ele>
        <time>2021-06-21T06:14:49.814Z</time>
      </trkpt>
      <trkpt lat="44.25464" lon="6.15027">
        <ele>1308</ele>
        <time>2021-06-21T06:14:50.790Z</time>
      </trkpt>
      <trkpt lat="44.25465" lon="6.15026">
        <ele>1308.8000488281</ele>
        <time>2021-06-21T06:14:51.767Z</time>
      </trkpt>
      <trkpt lat="44.25489" lon="6.15032">
        <ele>1308.8000488281</ele>
        <time>2021-06-21T06:14:52.752Z</time>
      </trkpt>
      <trkpt lat="44.25492" lon="6.15034">
        <ele>1311.5999755859</ele>
        <time>2021-06-21T06:14:53.739Z</time>
      </trkpt>
      <trkpt lat="44.25499" lon="6.15041">
        <ele>1311.5999755859</ele>
        <time>2021-06-21T06:14:54.729Z</time>
      </trkpt>
      <trkpt lat="44.25501" lon="6.15049">
        <ele>1311.5999755859</ele>
        <time>2021-06-21T06:14:55.721Z</time>
      </trkpt>
      <trkpt lat="44.25501" lon="6.15066">
        <ele>1313.4000244141</ele>
        <time>2021-06-21T06:14:56.718Z</time>
      </trkpt>
      <trkpt lat="44.25509" lon="6.15119">
        <ele>1313.4000244141</ele>
        <time>2021-06-21T06:14:57.729Z</time>
      </trkpt>
      <trkpt lat="44.2551" lon="6.15146">
        <ele>1313.4000244141</ele>
        <time>2021-06-21T06:14:58.747Z</time>
      </trkpt>
      <trkpt lat="44.25514" lon="6.15168">
        <ele>1315.8000488281</ele>
        <time>2021-06-21T06:14:59.771Z</time>
      </trkpt>
      <trkpt lat="44.25592" lon="6.1526">
        <ele>1315.8000488281</ele>
        <time>2021-06-21T06:15:00.833Z</time>
      </trkpt>
      <trkpt lat="44.25598" lon="6.1524">
        <ele>1315.8000488281</ele>
        <time>2021-06-21T06:15:01.901Z</time>
      </trkpt>
      <trkpt lat="44.25596" lon="6.15229">
        <ele>1315.8000488281</ele>
        <time>2021-06-21T06:15:02.972Z</time>
      </trkpt>
      <trkpt lat="44.25597" lon="6.15221">
        <ele>1315.8000488281</ele>
        <time>2021-06-21T06:15:04.045Z</time>
      </trkpt>
      <trkpt lat="44.25595" lon="6.1519">
        <ele>1337</ele>
        <time>2021-06-21T06:15:05.126Z</time>
      </trkpt>
      <trkpt lat="44.25605" lon="6.15116">
        <ele>1343.8000488281</ele>
        <time>2021-06-21T06:15:06.227Z</time>
      </trkpt>
      <trkpt lat="44.25599" lon="6.15047">
        <ele>1343.8000488281</ele>
        <time>2021-06-21T06:15:07.347Z</time>
      </trkpt>
      <trkpt lat="44.256" lon="6.15024">
        <ele>1353</ele>
        <time>2021-06-21T06:15:08.473Z</time>
      </trkpt>
      <trkpt lat="44.25608" lon="6.15003">
        <ele>1354.8000488281</ele>
        <time>2021-06-21T06:15:09.605Z</time>
      </trkpt>
      <trkpt lat="44.25615" lon="6.14993">
        <ele>1354.8000488281</ele>
        <time>2021-06-21T06:15:10.741Z</time>
      </trkpt>
      <trkpt lat="44.25625" lon="6.14986">
        <ele>1356.8000488281</ele>
        <time>2021-06-21T06:15:11.881Z</time>
      </trkpt>
      <trkpt lat="44.25631" lon="6.14985">
        <ele>1356.8000488281</ele>
        <time>2021-06-21T06:15:13.023Z</time>
      </trkpt>
      <trkpt lat="44.2564" lon="6.14986">
        <ele>1358.5999755859</ele>
        <time>2021-06-21T06:15:14.168Z</time>
      </trkpt>
      <trkpt lat="44.25659" lon="6.14994">
        <ele>1360.1999511719</ele>
        <time>2021-06-21T06:15:15.321Z</time>
      </trkpt>
      <trkpt lat="44.2568" lon="6.15011">
        <ele>1360.8000488281</ele>
        <time>2021-06-21T06:15:16.483Z</time>
      </trkpt>
      <trkpt lat="44.25681" lon="6.15014">
        <ele>1360.8000488281</ele>
        <time>2021-06-21T06:15:17.646Z</time>
      </trkpt>
      <trkpt lat="44.25897" lon="6.15054">
        <ele>1380.1999511719</ele>
        <time>2021-06-21T06:15:18.889Z</time>
      </trkpt>
      <trkpt lat="44.2591" lon="6.15063">
        <ele>1380.1999511719</ele>
        <time>2021-06-21T06:15:20.137Z</time>
      </trkpt>
      <trkpt lat="44.25917" lon="6.15074">
        <ele>1382.1999511719</ele>
        <time>2021-06-21T06:15:21.389Z</time>
      </trkpt>
      <trkpt lat="44.25957" lon="6.15103">
        <ele>1385.8000488281</ele>
        <time>2021-06-21T06:15:22.658Z</time>
      </trkpt>
      <trkpt lat="44.25967" lon="6.15104">
        <ele>1385.8000488281</ele>
        <time>2021-06-21T06:15:23.930Z</time>
      </trkpt>
      <trkpt lat="44.25972" lon="6.15101">
        <ele>1387.5999755859</ele>
        <time>2021-06-21T06:15:25.204Z</time>
      </trkpt>
      <trkpt lat="44.25979" lon="6.15088">
        <ele>1388.5999755859</ele>
        <time>2021-06-21T06:15:26.483Z</time>
      </trkpt>
      <trkpt lat="44.25979" lon="6.15064">
        <ele>1388.5999755859</ele>
        <time>2021-06-21T06:15:27.768Z</time>
      </trkpt>
      <trkpt lat="44.25977" lon="6.15044">
        <ele>1388.5999755859</ele>
        <time>2021-06-21T06:15:29.058Z</time>
      </trkpt>
      <trkpt lat="44.25972" lon="6.15029">
        <ele>1388.5999755859</ele>
        <time>2021-06-21T06:15:30.353Z</time>
      </trkpt>
      <trkpt lat="44.25958" lon="6.15013">
        <ele>1388.5999755859</ele>
        <time>2021-06-21T06:15:31.654Z</time>
      </trkpt>
      <trkpt lat="44.25933" lon="6.14989">
        <ele>1388.5999755859</ele>
        <time>2021-06-21T06:15:32.967Z</time>
      </trkpt>
      <trkpt lat="44.25921" lon="6.14976">
        <ele>1397.4000244141</ele>
        <time>2021-06-21T06:15:34.285Z</time>
      </trkpt>
      <trkpt lat="44.25907" lon="6.14955">
        <ele>1397.4000244141</ele>
        <time>2021-06-21T06:15:35.611Z</time>
      </trkpt>
      <trkpt lat="44.25894" lon="6.14926">
        <ele>1397.4000244141</ele>
        <time>2021-06-21T06:15:36.946Z</time>
      </trkpt>
      <trkpt lat="44.25888" lon="6.14896">
        <ele>1398.8000488281</ele>
        <time>2021-06-21T06:15:38.289Z</time>
      </trkpt>
      <trkpt lat="44.25889" lon="6.14871">
        <ele>1398.8000488281</ele>
        <time>2021-06-21T06:15:39.639Z</time>
      </trkpt>
      <trkpt lat="44.25896" lon="6.1485">
        <ele>1398.8000488281</ele>
        <time>2021-06-21T06:15:40.995Z</time>
      </trkpt>
      <trkpt lat="44.25907" lon="6.14844">
        <ele>1398.5999755859</ele>
        <time>2021-06-21T06:15:42.355Z</time>
      </trkpt>
      <trkpt lat="44.25928" lon="6.14846">
        <ele>1399</ele>
        <time>2021-06-21T06:15:43.723Z</time>
      </trkpt>
      <trkpt lat="44.25933" lon="6.14842">
        <ele>1399</ele>
        <time>2021-06-21T06:15:45.093Z</time>
      </trkpt>
      <trkpt lat="44.25935" lon="6.14838">
        <ele>1398.8000488281</ele>
        <time>2021-06-21T06:15:46.465Z</time>
      </trkpt>
      <trkpt lat="44.25936" lon="6.1483">
        <ele>1398.8000488281</ele>
        <time>2021-06-21T06:15:47.839Z</time>
      </trkpt>
      <trkpt lat="44.25931" lon="6.14813">
        <ele>1398.8000488281</ele>
        <time>2021-06-21T06:15:49.218Z</time>
      </trkpt>
      <trkpt lat="44.25931" lon="6.14793">
        <ele>1401.4000244141</ele>
        <time>2021-06-21T06:15:50.602Z</time>
      </trkpt>
      <trkpt lat="44.25938" lon="6.14775">
        <ele>1401.4000244141</ele>
        <time>2021-06-21T06:15:51.991Z</time>
      </trkpt>
      <trkpt lat="44.25942" lon="6.1476">
        <ele>1403.1999511719</ele>
        <time>2021-06-21T06:15:53.385Z</time>
      </trkpt>
      <trkpt lat="44.25949" lon="6.147">
        <ele>1403.1999511719</ele>
        <time>2021-06-21T06:15:54.795Z</time>
      </trkpt>
      <trkpt lat="44.25963" lon="6.14651">
        <ele>1403.1999511719</ele>
        <time>2021-06-21T06:15:56.219Z</time>
      </trkpt>
      <trkpt lat="44.25964" lon="6.14639">
        <ele>1411.5999755859</ele>
        <time>2021-06-21T06:15:57.646Z</time>
      </trkpt>
      <trkpt lat="44.2596" lon="6.14609">
        <ele>1413.5999755859</ele>
        <time>2021-06-21T06:15:59.081Z</time>
      </trkpt>
      <trkpt lat="44.25947" lon="6.14587">
        <ele>1413.5999755859</ele>
        <time>2021-06-21T06:16:00.523Z</time>
      </trkpt>
      <trkpt lat="44.2593" lon="6.1457">
        <ele>1416.8000488281</ele>
        <time>2021-06-21T06:16:01.973Z</time>
      </trkpt>
      <trkpt lat="44.2591" lon="6.14553">
        <ele>1416.8000488281</ele>
        <time>2021-06-21T06:16:03.432Z</time>
      </trkpt>
      <trkpt lat="44.25906" lon="6.14542">
        <ele>1420.1999511719</ele>
        <time>2021-06-21T06:16:04.894Z</time>
      </trkpt>
      <trkpt lat="44.2591" lon="6.14529">
        <ele>1421.4000244141</ele>
        <time>2021-06-21T06:16:06.360Z</time>
      </trkpt>
      <trkpt lat="44.25937" lon="6.14486">
        <ele>1421.4000244141</ele>
        <time>2021-06-21T06:16:07.841Z</time>
      </trkpt>
      <trkpt lat="44.25944" lon="6.14471">
        <ele>1421.4000244141</ele>
        <time>2021-06-21T06:16:09.327Z</time>
      </trkpt>
      <trkpt lat="44.25945" lon="6.1446">
        <ele>1426</ele>
        <time>2021-06-21T06:16:10.815Z</time>
      </trkpt>
      <trkpt lat="44.25956" lon="6.14437">
        <ele>1426</ele>
        <time>2021-06-21T06:16:12.311Z</time>
      </trkpt>
      <trkpt lat="44.25962" lon="6.14418">
        <ele>1426</ele>
        <time>2021-06-21T06:16:13.812Z</time>
      </trkpt>
      <trkpt lat="44.25964" lon="6.14398">
        <ele>1424.5999755859</ele>
        <time>2021-06-21T06:16:15.318Z</time>
      </trkpt>
      <trkpt lat="44.25978" lon="6.14363">
        <ele>1424.5999755859</ele>
        <time>2021-06-21T06:16:16.835Z</time>
      </trkpt>
      <trkpt lat="44.25972" lon="6.14357">
        <ele>1423.1999511719</ele>
        <time>2021-06-21T06:16:18.355Z</time>
      </trkpt>
      <trkpt lat="44.25951" lon="6.14352">
        <ele>1422.5999755859</ele>
        <time>2021-06-21T06:16:19.883Z</time>
      </trkpt>
      <trkpt lat="44.25939" lon="6.14348">
        <ele>1422.5999755859</ele>
        <time>2021-06-21T06:16:21.415Z</time>
      </trkpt>
      <trkpt lat="44.25929" lon="6.14339">
        <ele>1422.8000488281</ele>
        <time>2021-06-21T06:16:22.952Z</time>
      </trkpt>
      <trkpt lat="44.25921" lon="6.14325">
        <ele>1422.8000488281</ele>
        <time>2021-06-21T06:16:24.493Z</time>
      </trkpt>
      <trkpt lat="44.25913" lon="6.14305">
        <ele>1422.8000488281</ele>
        <time>2021-06-21T06:16:26.040Z</time>
      </trkpt>
      <trkpt lat="44.2591" lon="6.14291">
        <ele>1423.1999511719</ele>
        <time>2021-06-21T06:16:27.591Z</time>
      </trkpt>
      <trkpt lat="44.25908" lon="6.14269">
        <ele>1423.1999511719</ele>
        <time>2021-06-21T06:16:29.148Z</time>
      </trkpt>
      <trkpt lat="44.25903" lon="6.14243">
        <ele>1424</ele>
        <time>2021-06-21T06:16:30.712Z</time>
      </trkpt>
      <trkpt lat="44.25888" lon="6.14196">
        <ele>1424</ele>
        <time>2021-06-21T06:16:32.290Z</time>
      </trkpt>
      <trkpt lat="44.25883" lon="6.14172">
        <ele>1427</ele>
        <time>2021-06-21T06:16:33.874Z</time>
      </trkpt>
      <trkpt lat="44.25881" lon="6.14141">
        <ele>1427</ele>
        <time>2021-06-21T06:16:35.467Z</time>
      </trkpt>
      <trkpt lat="44.25877" lon="6.14129">
        <ele>1428.5999755859</ele>
        <time>2021-06-21T06:16:37.063Z</time>
      </trkpt>
      <trkpt lat="44.25868" lon="6.14113">
        <ele>1428.5999755859</ele>
        <time>2021-06-21T06:16:38.665Z</time>
      </trkpt>
      <trkpt lat="44.2585" lon="6.14089">
        <ele>1428.5999755859</ele>
        <time>2021-06-21T06:16:40.276Z</time>
      </trkpt>
      <trkpt lat="44.25821" lon="6.14067">
        <ele>1428.5999755859</ele>
        <time>2021-06-21T06:16:41.899Z</time>
      </trkpt>
      <trkpt lat="44.25816" lon="6.14052">
        <ele>1428.5999755859</ele>
        <time>2021-06-21T06:16:43.526Z</time>
      </trkpt>
      <trkpt lat="44.25818" lon="6.1402">
        <ele>1433.4000244141</ele>
        <time>2021-06-21T06:16:45.162Z</time>
      </trkpt>
      <trkpt lat="44.25825" lon="6.13994">
        <ele>1433.4000244141</ele>
        <time>2021-06-21T06:16:46.805Z</time>
      </trkpt>
      <trkpt lat="44.25828" lon="6.13971">
        <ele>1434.4000244141</ele>
        <time>2021-06-21T06:16:48.454Z</time>
      </trkpt>
      <trkpt lat="44.25836" lon="6.13908">
        <ele>1435.1999511719</ele>
        <time>2021-06-21T06:16:50.120Z</time>
      </trkpt>
      <trkpt lat="44.25846" lon="6.13877">
        <ele>1435.1999511719</ele>
        <time>2021-06-21T06:16:51.795Z</time>
      </trkpt>
      <trkpt lat="44.25854" lon="6.13866">
        <ele>1435.4000244141</ele>
        <time>2021-06-21T06:16:53.474Z</time>
      </trkpt>
      <trkpt lat="44.25863" lon="6.13857">
        <ele>1435.4000244141</ele>
        <time>2021-06-21T06:16:55.157Z</time>
      </trkpt>
      <trkpt lat="44.25884" lon="6.13838">
        <ele>1435.8000488281</ele>
        <time>2021-06-21T06:16:56.850Z</time>
      </trkpt>
      <trkpt lat="44.25904" lon="6.13823">
        <ele>1435.8000488281</ele>
        <time>2021-06-21T06:16:58.551Z</time>
      </trkpt>
      <trkpt lat="44.25951" lon="6.13798">
        <ele>1435.8000488281</ele>
        <time>2021-06-21T06:17:00.270Z</time>
      </trkpt>
      <trkpt lat="44.25962" lon="6.13783">
        <ele>1438.4000244141</ele>
        <time>2021-06-21T06:17:01.995Z</time>
      </trkpt>
      <trkpt lat="44.25961" lon="6.1376">
        <ele>1438.4000244141</ele>
        <time>2021-06-21T06:17:03.726Z</time>
      </trkpt>
      <trkpt lat="44.2595" lon="6.13708">
        <ele>1439.8000488281</ele>
        <time>2021-06-21T06:17:05.472Z</time>
      </trkpt>
      <trkpt lat="44.25939" lon="6.13677">
        <ele>1439.8000488281</ele>
        <time>2021-06-21T06:17:07.227Z</time>
      </trkpt>
      <trkpt lat="44.25923" lon="6.13649">
        <ele>1439.8000488281</ele>
        <time>2021-06-21T06:17:08.991Z</time>
      </trkpt>
      <trkpt lat="44.25912" lon="6.1362">
        <ele>1441</ele>
        <time>2021-06-21T06:17:10.764Z</time>
      </trkpt>
      <trkpt lat="44.25912" lon="6.13606">
        <ele>1441</ele>
        <time>2021-06-21T06:17:12.541Z</time>
      </trkpt>
      <trkpt lat="44.25945" lon="6.13525">
        <ele>1441</ele>
        <time>2021-06-21T06:17:14.343Z</time>
      </trkpt>
      <trkpt lat="44.2595" lon="6.13492">
        <ele>1441</ele>
        <time>2021-06-21T06:17:16.153Z</time>
      </trkpt>
      <trkpt lat="44.25949" lon="6.13451">
        <ele>1444</ele>
        <time>2021-06-21T06:17:17.974Z</time>
      </trkpt>
      <trkpt lat="44.25955" lon="6.13427">
        <ele>1444</ele>
        <time>2021-06-21T06:17:19.802Z</time>
      </trkpt>
      <trkpt lat="44.25969" lon="6.134">
        <ele>1444</ele>
        <time>2021-06-21T06:17:21.639Z</time>
      </trkpt>
      <trkpt lat="44.25972" lon="6.13392">
        <ele>1446</ele>
        <time>2021-06-21T06:17:23.478Z</time>
      </trkpt>
      <trkpt lat="44.25978" lon="6.13342">
        <ele>1446.4000244141</ele>
        <time>2021-06-21T06:17:25.331Z</time>
      </trkpt>
      <trkpt lat="44.25983" lon="6.13335">
        <ele>1446.4000244141</ele>
        <time>2021-06-21T06:17:27.186Z</time>
      </trkpt>
      <trkpt lat="44.26" lon="6.13325">
        <ele>1446.4000244141</ele>
        <time>2021-06-21T06:17:29.048Z</time>
      </trkpt>
      <trkpt lat="44.26004" lon="6.1332">
        <ele>1448.4000244141</ele>
        <time>2021-06-21T06:17:30.912Z</time>
      </trkpt>
      <trkpt lat="44.26005" lon="6.13299">
        <ele>1449.5999755859</ele>
        <time>2021-06-21T06:17:32.781Z</time>
      </trkpt>
      <trkpt lat="44.26011" lon="6.13269">
        <ele>1449.5999755859</ele>
        <time>2021-06-21T06:17:34.659Z</time>
      </trkpt>
      <trkpt lat="44.26019" lon="6.13242">
        <ele>1449.4000244141</ele>
        <time>2021-06-21T06:17:36.544Z</time>
      </trkpt>
      <trkpt lat="44.26023" lon="6.13209">
        <ele>1450.1999511719</ele>
        <time>2021-06-21T06:17:38.438Z</time>
      </trkpt>
      <trkpt lat="44.26036" lon="6.13138">
        <ele>1450.1999511719</ele>
        <time>2021-06-21T06:17:40.352Z</time>
      </trkpt>
      <trkpt lat="44.26036" lon="6.13106">
        <ele>1450.1999511719</ele>
        <time>2021-06-21T06:17:42.274Z</time>
      </trkpt>
      <trkpt lat="44.26051" lon="6.13057">
        <ele>1450.1999511719</ele>
        <time>2021-06-21T06:17:44.210Z</time>
      </trkpt>
      <trkpt lat="44.26057" lon="6.12978">
        <ele>1454</ele>
        <time>2021-06-21T06:17:46.167Z</time>
      </trkpt>
      <trkpt lat="44.26057" lon="6.12947">
        <ele>1454</ele>
        <time>2021-06-21T06:17:48.132Z</time>
      </trkpt>
      <trkpt lat="44.26058" lon="6.12943">
        <ele>1454</ele>
        <time>2021-06-21T06:17:50.099Z</time>
      </trkpt>
      <trkpt lat="44.26067" lon="6.1293">
        <ele>1454</ele>
        <time>2021-06-21T06:17:52.071Z</time>
      </trkpt>
      <trkpt lat="44.26089" lon="6.12912">
        <ele>1454</ele>
        <time>2021-06-21T06:17:54.052Z</time>
      </trkpt>
      <trkpt lat="44.261" lon="6.12897">
        <ele>1456.1999511719</ele>
        <time>2021-06-21T06:17:56.038Z</time>
      </trkpt>
      <trkpt lat="44.2611" lon="6.12872">
        <ele>1457.4000244141</ele>
        <time>2021-06-21T06:17:58.032Z</time>
      </trkpt>
      <trkpt lat="44.26112" lon="6.12864">
        <ele>1457.4000244141</ele>
        <time>2021-06-21T06:18:00.028Z</time>
      </trkpt>
      <trkpt lat="44.26123" lon="6.12843">
        <ele>1457.5999755859</ele>
        <time>2021-06-21T06:18:02.031Z</time>
      </trkpt>
      <trkpt lat="44.26145" lon="6.12825">
        <ele>1457.5999755859</ele>
        <time>2021-06-21T06:18:04.043Z</time>
      </trkpt>
      <trkpt lat="44.26154" lon="6.1282">
        <ele>1458.4000244141</ele>
        <time>2021-06-21T06:18:06.059Z</time>
      </trkpt>
      <trkpt lat="44.26166" lon="6.12818">
        <ele>1458.4000244141</ele>
        <time>2021-06-21T06:18:08.080Z</time>
      </trkpt>
      <trkpt lat="44.26203" lon="6.12825">
        <ele>1460.8000488281</ele>
        <time>2021-06-21T06:18:10.114Z</time>
      </trkpt>
      <trkpt lat="44.26206" lon="6.12825">
        <ele>1460.8000488281</ele>
        <time>2021-06-21T06:18:12.149Z</time>
      </trkpt>
      <trkpt lat="44.26217" lon="6.12814">
        <ele>1461.5999755859</ele>
        <time>2021-06-21T06:18:14.189Z</time>
      </trkpt>
      <trkpt lat="44.26222" lon="6.12765">
        <ele>1461.5999755859</ele>
        <time>2021-06-21T06:18:16.242Z</time>
      </trkpt>
      <trkpt lat="44.26228" lon="6.12734">
        <ele>1461.5999755859</ele>
        <time>2021-06-21T06:18:18.304Z</time>
      </trkpt>
      <trkpt lat="44.26231" lon="6.12658">
        <ele>1463</ele>
        <time>2021-06-21T06:18:20.386Z</time>
      </trkpt>
      <trkpt lat="44.26241" lon="6.12627">
        <ele>1463</ele>
        <time>2021-06-21T06:18:22.477Z</time>
      </trkpt>
      <trkpt lat="44.26259" lon="6.12592">
        <ele>1465</ele>
        <time>2021-06-21T06:18:24.579Z</time>
      </trkpt>
      <trkpt lat="44.26267" lon="6.12571">
        <ele>1466.4000244141</ele>
        <time>2021-06-21T06:18:26.688Z</time>
      </trkpt>
      <trkpt lat="44.26275" lon="6.12559">
        <ele>1466.4000244141</ele>
        <time>2021-06-21T06:18:28.801Z</time>
      </trkpt>
      <trkpt lat="44.26298" lon="6.12541">
        <ele>1466.4000244141</ele>
        <time>2021-06-21T06:18:30.924Z</time>
      </trkpt>
      <trkpt lat="44.26303" lon="6.12528">
        <ele>1470.8000488281</ele>
        <time>2021-06-21T06:18:33.051Z</time>
      </trkpt>
      <trkpt lat="44.26303" lon="6.12496">
        <ele>1470.8000488281</ele>
        <time>2021-06-21T06:18:35.186Z</time>
      </trkpt>
      <trkpt lat="44.26305" lon="6.12459">
        <ele>1473.1999511719</ele>
        <time>2021-06-21T06:18:37.331Z</time>
      </trkpt>
      <trkpt lat="44.263" lon="6.12403">
        <ele>1476</ele>
        <time>2021-06-21T06:18:39.491Z</time>
      </trkpt>
      <trkpt lat="44.26281" lon="6.12336">
        <ele>1479.5999755859</ele>
        <time>2021-06-21T06:18:41.670Z</time>
      </trkpt>
      <trkpt lat="44.26278" lon="6.12322">
        <ele>1479.5999755859</ele>
        <time>2021-06-21T06:18:43.853Z</time>
      </trkpt>
      <trkpt lat="44.2628" lon="6.12314">
        <ele>1480.5999755859</ele>
        <time>2021-06-21T06:18:46.038Z</time>
      </trkpt>
      <trkpt lat="44.26288" lon="6.12305">
        <ele>1481.1999511719</ele>
        <time>2021-06-21T06:18:48.227Z</time>
      </trkpt>
      <trkpt lat="44.26292" lon="6.12306">
        <ele>1482.4000244141</ele>
        <time>2021-06-21T06:18:50.417Z</time>
      </trkpt>
      <trkpt lat="44.26295" lon="6.1231">
        <ele>1482.4000244141</ele>
        <time>2021-06-21T06:18:52.609Z</time>
      </trkpt>
      <trkpt lat="44.26297" lon="6.12316">
        <ele>1483.5999755859</ele>
        <time>2021-06-21T06:18:54.803Z</time>
      </trkpt>
      <trkpt lat="44.263" lon="6.12353">
        <ele>1485.8000488281</ele>
        <time>2021-06-21T06:18:57.007Z</time>
      </trkpt>
      <trkpt lat="44.2631" lon="6.12378">
        <ele>1485.8000488281</ele>
        <time>2021-06-21T06:18:59.218Z</time>
      </trkpt>
      <trkpt lat="44.26322" lon="6.12404">
        <ele>1485.8000488281</ele>
        <time>2021-06-21T06:19:01.437Z</time>
      </trkpt>
      <trkpt lat="44.26334" lon="6.12432">
        <ele>1488</ele>
        <time>2021-06-21T06:19:03.665Z</time>
      </trkpt>
      <trkpt lat="44.26349" lon="6.1249">
        <ele>1490.1999511719</ele>
        <time>2021-06-21T06:19:05.909Z</time>
      </trkpt>
      <trkpt lat="44.26337" lon="6.12566">
        <ele>1489.8000488281</ele>
        <time>2021-06-21T06:19:08.174Z</time>
      </trkpt>
      <trkpt lat="44.26343" lon="6.12591">
        <ele>1489.8000488281</ele>
        <time>2021-06-21T06:19:10.446Z</time>
      </trkpt>
      <trkpt lat="44.26331" lon="6.12637">
        <ele>1489.8000488281</ele>
        <time>2021-06-21T06:19:12.731Z</time>
      </trkpt>
      <trkpt lat="44.26332" lon="6.12671">
        <ele>1490.5999755859</ele>
        <time>2021-06-21T06:19:15.025Z</time>
      </trkpt>
      <trkpt lat="44.26343" lon="6.12694">
        <ele>1492.1999511719</ele>
        <time>2021-06-21T06:19:17.326Z</time>
      </trkpt>
      <trkpt lat="44.26346" lon="6.12706">
        <ele>1492.1999511719</ele>
        <time>2021-06-21T06:19:19.630Z</time>
      </trkpt>
      <trkpt lat="44.26347" lon="6.12718">
        <ele>1493.4000244141</ele>
        <time>2021-06-21T06:19:21.938Z</time>
      </trkpt>
      <trkpt lat="44.26344" lon="6.12752">
        <ele>1493.4000244141</ele>
        <time>2021-06-21T06:19:24.255Z</time>
      </trkpt>
      <trkpt lat="44.26339" lon="6.12766">
        <ele>1496.4000244141</ele>
        <time>2021-06-21T06:19:26.576Z</time>
      </trkpt>
      <trkpt lat="44.26331" lon="6.12781">
        <ele>1497.5999755859</ele>
        <time>2021-06-21T06:19:28.902Z</time>
      </trkpt>
      <trkpt lat="44.26325" lon="6.12797">
        <ele>1497.5999755859</ele>
        <time>2021-06-21T06:19:31.233Z</time>
      </trkpt>
      <trkpt lat="44.26325" lon="6.12816">
        <ele>1497.5999755859</ele>
        <time>2021-06-21T06:19:33.569Z</time>
      </trkpt>
      <trkpt lat="44.26322" lon="6.12831">
        <ele>1500.8000488281</ele>
        <time>2021-06-21T06:19:35.909Z</time>
      </trkpt>
      <trkpt lat="44.26317" lon="6.12848">
        <ele>1500.8000488281</ele>
        <time>2021-06-21T06:19:38.253Z</time>
      </trkpt>
      <trkpt lat="44.263" lon="6.12882">
        <ele>1500.8000488281</ele>
        <time>2021-06-21T06:19:40.609Z</time>
      </trkpt>
      <trkpt lat="44.26299" lon="6.12896">
        <ele>1505</ele>
        <time>2021-06-21T06:19:42.968Z</time>
      </trkpt>
      <trkpt lat="44.26306" lon="6.12928">
        <ele>1507.5999755859</ele>
        <time>2021-06-21T06:19:45.336Z</time>
      </trkpt>
      <trkpt lat="44.26302" lon="6.12939">
        <ele>1507.5999755859</ele>
        <time>2021-06-21T06:19:47.708Z</time>
      </trkpt>
      <trkpt lat="44.26286" lon="6.12953">
        <ele>1509.1999511719</ele>
        <time>2021-06-21T06:19:50.086Z</time>
      </trkpt>
      <trkpt lat="44.26283" lon="6.12961">
        <ele>1509.1999511719</ele>
        <time>2021-06-21T06:19:52.467Z</time>
      </trkpt>
      <trkpt lat="44.26311" lon="6.13057">
        <ele>1509.1999511719</ele>
        <time>2021-06-21T06:19:54.875Z</time>
      </trkpt>
      <trkpt lat="44.26321" lon="6.13119">
        <ele>1513.8000488281</ele>
        <time>2021-06-21T06:19:57.300Z</time>
      </trkpt>
      <trkpt lat="44.26316" lon="6.13145">
        <ele>1515.5999755859</ele>
        <time>2021-06-21T06:19:59.732Z</time>
      </trkpt>
      <trkpt lat="44.26295" lon="6.13199">
        <ele>1517.8000488281</ele>
        <time>2021-06-21T06:20:02.181Z</time>
      </trkpt>
      <trkpt lat="44.26287" lon="6.13225">
        <ele>1519.1999511719</ele>
        <time>2021-06-21T06:20:04.637Z</time>
      </trkpt>
      <trkpt lat="44.26285" lon="6.13256">
        <ele>1520</ele>
        <time>2021-06-21T06:20:07.101Z</time>
      </trkpt>
      <trkpt lat="44.26286" lon="6.13297">
        <ele>1520</ele>
        <time>2021-06-21T06:20:09.576Z</time>
      </trkpt>
      <trkpt lat="44.26283" lon="6.13317">
        <ele>1523.1999511719</ele>
        <time>2021-06-21T06:20:12.057Z</time>
      </trkpt>
      <trkpt lat="44.26273" lon="6.13343">
        <ele>1523.1999511719</ele>
        <time>2021-06-21T06:20:14.545Z</time>
      </trkpt>
      <trkpt lat="44.26259" lon="6.13361">
        <ele>1523.1999511719</ele>
        <time>2021-06-21T06:20:17.040Z</time>
      </trkpt>
      <trkpt lat="44.26245" lon="6.13434">
        <ele>1527.5999755859</ele>
        <time>2021-06-21T06:20:19.556Z</time>
      </trkpt>
      <trkpt lat="44.26248" lon="6.13455">
        <ele>1528</ele>
        <time>2021-06-21T06:20:22.077Z</time>
      </trkpt>
      <trkpt lat="44.26286" lon="6.13504">
        <ele>1532.4000244141</ele>
        <time>2021-06-21T06:20:24.617Z</time>
      </trkpt>
      <trkpt lat="44.26295" lon="6.13524">
        <ele>1533.8000488281</ele>
        <time>2021-06-21T06:20:27.164Z</time>
      </trkpt>
      <trkpt lat="44.26296" lon="6.13548">
        <ele>1535.4000244141</ele>
        <time>2021-06-21T06:20:29.717Z</time>
      </trkpt>
      <trkpt lat="44.26294" lon="6.13577">
        <ele>1536.8000488281</ele>
        <time>2021-06-21T06:20:32.278Z</time>
      </trkpt>
      <trkpt lat="44.26294" lon="6.13599">
        <ele>1537.8000488281</ele>
        <time>2021-06-21T06:20:34.844Z</time>
      </trkpt>
      <trkpt lat="44.26297" lon="6.13617">
        <ele>1537.8000488281</ele>
        <time>2021-06-21T06:20:37.415Z</time>
      </trkpt>
      <trkpt lat="44.26326" lon="6.13701">
        <ele>1544.4000244141</ele>
        <time>2021-06-21T06:20:40.011Z</time>
      </trkpt>
      <trkpt lat="44.26329" lon="6.13719">
        <ele>1544.4000244141</ele>
        <time>2021-06-21T06:20:42.612Z</time>
      </trkpt>
      <trkpt lat="44.26328" lon="6.13734">
        <ele>1546.5999755859</ele>
        <time>2021-06-21T06:20:45.217Z</time>
      </trkpt>
      <trkpt lat="44.26323" lon="6.1376">
        <ele>1547.8000488281</ele>
        <time>2021-06-21T06:20:47.829Z</time>
      </trkpt>
      <trkpt lat="44.26324" lon="6.1381">
        <ele>1550</ele>
        <time>2021-06-21T06:20:50.454Z</time>
      </trkpt>
      <trkpt lat="44.26328" lon="6.13827">
        <ele>1550</ele>
        <time>2021-06-21T06:20:53.084Z</time>
      </trkpt>
      <trkpt lat="44.26343" lon="6.13857">
        <ele>1553</ele>
        <time>2021-06-21T06:20:55.724Z</time>
      </trkpt>
      <trkpt lat="44.26356" lon="6.13876">
        <ele>1555.4000244141</ele>
        <time>2021-06-21T06:20:58.371Z</time>
      </trkpt>
      <trkpt lat="44.26358" lon="6.1389">
        <ele>1555.4000244141</ele>
        <time>2021-06-21T06:21:01.021Z</time>
      </trkpt>
      <trkpt lat="44.26348" lon="6.1391">
        <ele>1557.5999755859</ele>
        <time>2021-06-21T06:21:03.678Z</time>
      </trkpt>
      <trkpt lat="44.26335" lon="6.13932">
        <ele>1557.5999755859</ele>
        <time>2021-06-21T06:21:06.342Z</time>
      </trkpt>
      <trkpt lat="44.26326" lon="6.13951">
        <ele>1557.5999755859</ele>
        <time>2021-06-21T06:21:09.012Z</time>
      </trkpt>
      <trkpt lat="44.26323" lon="6.13962">
        <ele>1561</ele>
        <time>2021-06-21T06:21:11.685Z</time>
      </trkpt>
      <trkpt lat="44.26307" lon="6.14031">
        <ele>1561.8000488281</ele>
        <time>2021-06-21T06:21:14.378Z</time>
      </trkpt>
      <trkpt lat="44.26305" lon="6.1406">
        <ele>1561.8000488281</ele>
        <time>2021-06-21T06:21:17.078Z</time>
      </trkpt>
      <trkpt lat="44.26309" lon="6.14094">
        <ele>1561.8000488281</ele>
        <time>2021-06-21T06:21:19.788Z</time>
      </trkpt>
      <trkpt lat="44.2631" lon="6.14147">
        <ele>1561.8000488281</ele>
        <time>2021-06-21T06:21:22.512Z</time>
      </trkpt>
      <trkpt lat="44.26308" lon="6.14201">
        <ele>1564.1999511719</ele>
        <time>2021-06-21T06:21:25.250Z</time>
      </trkpt>
      <trkpt lat="44.26311" lon="6.1423">
        <ele>1565.1999511719</ele>
        <time>2021-06-21T06:21:27.996Z</time>
      </trkpt>
      <trkpt lat="44.26324" lon="6.14276">
        <ele>1564.8000488281</ele>
        <time>2021-06-21T06:21:30.755Z</time>
      </trkpt>
      <trkpt lat="44.26351" lon="6.14329">
        <ele>1564</ele>
        <time>2021-06-21T06:21:33.531Z</time>
      </trkpt>
      <trkpt lat="44.26363" lon="6.14338">
        <ele>1564</ele>
        <time>2021-06-21T06:21:36.312Z</time>
      </trkpt>
      <trkpt lat="44.26369" lon="6.14339">
        <ele>1565.4000244141</ele>
        <time>2021-06-21T06:21:39.095Z</time>
      </trkpt>
      <trkpt lat="44.26391" lon="6.14339">
        <ele>1565.4000244141</ele>
        <time>2021-06-21T06:21:41.886Z</time>
      </trkpt>
      <trkpt lat="44.26427" lon="6.14332">
        <ele>1565.4000244141</ele>
        <time>2021-06-21T06:21:44.691Z</time>
      </trkpt>
      <trkpt lat="44.26438" lon="6.14336">
        <ele>1566.5999755859</ele>
        <time>2021-06-21T06:21:47.500Z</time>
      </trkpt>
      <trkpt lat="44.26447" lon="6.14344">
        <ele>1566.5999755859</ele>
        <time>2021-06-21T06:21:50.313Z</time>
      </trkpt>
      <trkpt lat="44.26473" lon="6.14357">
        <ele>1566.5999755859</ele>
        <time>2021-06-21T06:21:53.136Z</time>
      </trkpt>
      <trkpt lat="44.26479" lon="6.14362">
        <ele>1567</ele>
        <time>2021-06-21T06:21:55.962Z</time>
      </trkpt>
      <trkpt lat="44.26483" lon="6.14372">
        <ele>1566.8000488281</ele>
        <time>2021-06-21T06:21:58.791Z</time>
      </trkpt>
      <trkpt lat="44.26492" lon="6.14392">
        <ele>1566.5999755859</ele>
        <time>2021-06-21T06:22:01.626Z</time>
      </trkpt>
      <trkpt lat="44.26505" lon="6.14446">
        <ele>1568.4000244141</ele>
        <time>2021-06-21T06:22:04.476Z</time>
      </trkpt>
      <trkpt lat="44.26509" lon="6.14473">
        <ele>1568.4000244141</ele>
        <time>2021-06-21T06:22:07.333Z</time>
      </trkpt>
      <trkpt lat="44.26509" lon="6.14463">
        <ele>1568.4000244141</ele>
        <time>2021-06-21T06:22:10.193Z</time>
      </trkpt>
      <trkpt lat="44.26503" lon="6.14418">
        <ele>1568</ele>
        <time>2021-06-21T06:22:13.065Z</time>
      </trkpt>
      <trkpt lat="44.26496" lon="6.14385">
        <ele>1568</ele>
        <time>2021-06-21T06:22:15.946Z</time>
      </trkpt>
      <trkpt lat="44.26489" lon="6.14373">
        <ele>1567.4000244141</ele>
        <time>2021-06-21T06:22:18.831Z</time>
      </trkpt>
      <trkpt lat="44.26477" lon="6.14361">
        <ele>1567.4000244141</ele>
        <time>2021-06-21T06:22:21.722Z</time>
      </trkpt>
      <trkpt lat="44.26469" lon="6.14356">
        <ele>1566.8000488281</ele>
        <time>2021-06-21T06:22:24.616Z</time>
      </trkpt>
      <trkpt lat="44.26461" lon="6.14348">
        <ele>1566.1999511719</ele>
        <time>2021-06-21T06:22:27.514Z</time>
      </trkpt>
      <trkpt lat="44.26459" lon="6.14349">
        <ele>1566.1999511719</ele>
        <time>2021-06-21T06:22:30.412Z</time>
      </trkpt>
      <trkpt lat="44.26459" lon="6.14351">
        <ele>1565.8000488281</ele>
        <time>2021-06-21T06:22:33.311Z</time>
      </trkpt>
      <trkpt lat="44.26464" lon="6.14351">
        <ele>1566</ele>
        <time>2021-06-21T06:22:36.212Z</time>
      </trkpt>
      <trkpt lat="44.26466" lon="6.14347">
        <ele>1566.4000244141</ele>
        <time>2021-06-21T06:22:39.114Z</time>
      </trkpt>
      <trkpt lat="44.2647" lon="6.14347">
        <ele>1566.4000244141</ele>
        <time>2021-06-21T06:22:42.017Z</time>
      </trkpt>
      <trkpt lat="44.26474" lon="6.14343">
        <ele>1569.4000244141</ele>
        <time>2021-06-21T06:22:44.922Z</time>
      </trkpt>
      <trkpt lat="44.26479" lon="6.14342">
        <ele>1570.8000488281</ele>
        <time>2021-06-21T06:22:47.829Z</time>
      </trkpt>
      <trkpt lat="44.26496" lon="6.14352">
        <ele>1574.1999511719</ele>
        <time>2021-06-21T06:22:50.743Z</time>
      </trkpt>
      <trkpt lat="44.26505" lon="6.14363">
        <ele>1574.1999511719</ele>
        <time>2021-06-21T06:22:53.661Z</time>
      </trkpt>
      <trkpt lat="44.26515" lon="6.14383">
        <ele>1578.4000244141</ele>
        <time>2021-06-21T06:22:56.586Z</time>
      </trkpt>
      <trkpt lat="44.26526" lon="6.14422">
        <ele>1578.4000244141</ele>
        <time>2021-06-21T06:22:59.522Z</time>
      </trkpt>
      <trkpt lat="44.26534" lon="6.14437">
        <ele>1578.4000244141</ele>
        <time>2021-06-21T06:23:02.463Z</time>
      </trkpt>
      <trkpt lat="44.26547" lon="6.14452">
        <ele>1578.4000244141</ele>
        <time>2021-06-21T06:23:05.410Z</time>
      </trkpt>
      <trkpt lat="44.26547" lon="6.14455">
        <ele>1588.1999511719</ele>
        <time>2021-06-21T06:23:08.358Z</time>
      </trkpt>
      <trkpt lat="44.26559" lon="6.1447">
        <ele>1591.8000488281</ele>
        <time>2021-06-21T06:23:11.312Z</time>
      </trkpt>
      <trkpt lat="44.26567" lon="6.1449">
        <ele>1594.1999511719</ele>
        <time>2021-06-21T06:23:14.272Z</time>
      </trkpt>
      <trkpt lat="44.26593" lon="6.14549">
        <ele>1602.4000244141</ele>
        <time>2021-06-21T06:23:17.250Z</time>
      </trkpt>
      <trkpt lat="44.26604" lon="6.1458">
        <ele>1602.4000244141</ele>
        <time>2021-06-21T06:23:20.237Z</time>
      </trkpt>
      <trkpt lat="44.26615" lon="6.14605">
        <ele>1612.1999511719</ele>
        <time>2021-06-21T06:23:23.232Z</time>
      </trkpt>
      <trkpt lat="44.26619" lon="6.14625">
        <ele>1614.5999755859</ele>
        <time>2021-06-21T06:23:26.232Z</time>
      </trkpt>
      <trkpt lat="44.26626" lon="6.14641">
        <ele>1614.5999755859</ele>
        <time>2021-06-21T06:23:29.238Z</time>
      </trkpt>
      <trkpt lat="44.26651" lon="6.14734">
        <ele>1614.5999755859</ele>
        <time>2021-06-21T06:23:32.270Z</time>
      </trkpt>
      <trkpt lat="44.2666" lon="6.14752">
        <ele>1628.8000488281</ele>
        <time>2021-06-21T06:23:35.308Z</time>
      </trkpt>
      <trkpt lat="44.2667" lon="6.14789">
        <ele>1628.8000488281</ele>
        <time>2021-06-21T06:23:38.356Z</time>
      </trkpt>
      <trkpt lat="44.26685" lon="6.14814">
        <ele>1628.8000488281</ele>
        <time>2021-06-21T06:23:41.413Z</time>
      </trkpt>
      <trkpt lat="44.26707" lon="6.14862">
        <ele>1628.8000488281</ele>
        <time>2021-06-21T06:23:44.485Z</time>
      </trkpt>
      <trkpt lat="44.26721" lon="6.14881">
        <ele>1651.5999755859</ele>
        <time>2021-06-21T06:23:47.564Z</time>
      </trkpt>
      <trkpt lat="44.26728" lon="6.14894">
        <ele>1654.1999511719</ele>
        <time>2021-06-21T06:23:50.647Z</time>
      </trkpt>
      <trkpt lat="44.2674" lon="6.14926">
        <ele>1654.1999511719</ele>
        <time>2021-06-21T06:23:53.740Z</time>
      </trkpt>
      <trkpt lat="44.26751" lon="6.14951">
        <ele>1654.1999511719</ele>
        <time>2021-06-21T06:23:56.841Z</time>
      </trkpt>
      <trkpt lat="44.26762" lon="6.14971">
        <ele>1654.1999511719</ele>
        <time>2021-06-21T06:23:59.948Z</time>
      </trkpt>
      <trkpt lat="44.26777" lon="6.15015">
        <ele>1675.8000488281</ele>
        <time>2021-06-21T06:24:03.068Z</time>
      </trkpt>
      <trkpt lat="44.26787" lon="6.15052">
        <ele>1682</ele>
        <time>2021-06-21T06:24:06.198Z</time>
      </trkpt>
      <trkpt lat="44.26789" lon="6.15049">
        <ele>1682</ele>
        <time>2021-06-21T06:24:09.330Z</time>
      </trkpt>
      <trkpt lat="44.26791" lon="6.15044">
        <ele>1684.1999511719</ele>
        <time>2021-06-21T06:24:12.463Z</time>
      </trkpt>
      <trkpt lat="44.26803" lon="6.14985">
        <ele>1692.4000244141</ele>
        <time>2021-06-21T06:24:15.612Z</time>
      </trkpt>
      <trkpt lat="44.26809" lon="6.14969">
        <ele>1692.4000244141</ele>
        <time>2021-06-21T06:24:18.766Z</time>
      </trkpt>
      <trkpt lat="44.26812" lon="6.1497">
        <ele>1692.4000244141</ele>
        <time>2021-06-21T06:24:21.921Z</time>
      </trkpt>
      <trkpt lat="44.26816" lon="6.14976">
        <ele>1692.4000244141</ele>
        <time>2021-06-21T06:24:25.078Z</time>
      </trkpt>
      <trkpt lat="44.26819" lon="6.14978">
        <ele>1700.8000488281</ele>
        <time>2021-06-21T06:24:28.237Z</time>
      </trkpt>
      <trkpt lat="44.26824" lon="6.14955">
        <ele>1700.8000488281</ele>
        <time>2021-06-21T06:24:31.402Z</time>
      </trkpt>
      <trkpt lat="44.26826" lon="6.14951">
        <ele>1707.1999511719</ele>
        <time>2021-06-21T06:24:34.568Z</time>
      </trkpt>
      <trkpt lat="44.26828" lon="6.14952">
        <ele>1708.1999511719</ele>
        <time>2021-06-21T06:24:37.735Z</time>
      </trkpt>
      <trkpt lat="44.26835" lon="6.14967">
        <ele>1708.1999511719</ele>
        <time>2021-06-21T06:24:40.907Z</time>
      </trkpt>
      <trkpt lat="44.26843" lon="6.14964">
        <ele>1708.1999511719</ele>
        <time>2021-06-21T06:24:44.082Z</time>
      </trkpt>
      <trkpt lat="44.26847" lon="6.14961">
        <ele>1713</ele>
        <time>2021-06-21T06:24:47.259Z</time>
      </trkpt>
      <trkpt lat="44.2686" lon="6.1496">
        <ele>1711.4000244141</ele>
        <time>2021-06-21T06:24:50.440Z</time>
      </trkpt>
      <trkpt lat="44.26854" lon="6.14963">
        <ele>1711.4000244141</ele>
        <time>2021-06-21T06:24:53.623Z</time>
      </trkpt>
      <trkpt lat="44.2685" lon="6.14987">
        <ele>1711</ele>
        <time>2021-06-21T06:24:56.813Z</time>
      </trkpt>
      <trkpt lat="44.26847" lon="6.15023">
        <ele>1714.4000244141</ele>
        <time>2021-06-21T06:25:00.013Z</time>
      </trkpt>
      <trkpt lat="44.26846" lon="6.1506">
        <ele>1716.4000244141</ele>
        <time>2021-06-21T06:25:03.222Z</time>
      </trkpt>
      <trkpt lat="44.2686" lon="6.1515">
        <ele>1716.5999755859</ele>
        <time>2021-06-21T06:25:06.456Z</time>
      </trkpt>
      <trkpt lat="44.26858" lon="6.1516">
        <ele>1716.1999511719</ele>
        <time>2021-06-21T06:25:09.693Z</time>
      </trkpt>
      <trkpt lat="44.26864" lon="6.15167">
        <ele>1715.8000488281</ele>
        <time>2021-06-21T06:25:12.932Z</time>
      </trkpt>
      <trkpt lat="44.26867" lon="6.15209">
        <ele>1713.8000488281</ele>
        <time>2021-06-21T06:25:16.183Z</time>
      </trkpt>
      <trkpt lat="44.26867" lon="6.15235">
        <ele>1713.8000488281</ele>
        <time>2021-06-21T06:25:19.441Z</time>
      </trkpt>
      <trkpt lat="44.2687" lon="6.15254">
        <ele>1713.8000488281</ele>
        <time>2021-06-21T06:25:22.704Z</time>
      </trkpt>
      <trkpt lat="44.26869" lon="6.15276">
        <ele>1717</ele>
        <time>2021-06-21T06:25:25.972Z</time>
      </trkpt>
      <trkpt lat="44.26871" lon="6.15315">
        <ele>1718.4000244141</ele>
        <time>2021-06-21T06:25:29.251Z</time>
      </trkpt>
      <trkpt lat="44.26877" lon="6.1532">
        <ele>1718</ele>
        <time>2021-06-21T06:25:32.532Z</time>
      </trkpt>
      <trkpt lat="44.26879" lon="6.15326">
        <ele>1718</ele>
        <time>2021-06-21T06:25:35.815Z</time>
      </trkpt>
      <trkpt lat="44.2687" lon="6.1536">
        <ele>1717.5999755859</ele>
        <time>2021-06-21T06:25:39.108Z</time>
      </trkpt>
      <trkpt lat="44.26872" lon="6.15382">
        <ele>1717.5999755859</ele>
        <time>2021-06-21T06:25:42.407Z</time>
      </trkpt>
      <trkpt lat="44.26872" lon="6.15403">
        <ele>1717.5999755859</ele>
        <time>2021-06-21T06:25:45.711Z</time>
      </trkpt>
      <trkpt lat="44.26877" lon="6.15435">
        <ele>1717.5999755859</ele>
        <time>2021-06-21T06:25:49.024Z</time>
      </trkpt>
      <trkpt lat="44.26885" lon="6.15467">
        <ele>1717.5999755859</ele>
        <time>2021-06-21T06:25:52.346Z</time>
      </trkpt>
      <trkpt lat="44.26896" lon="6.15488">
        <ele>1716.4000244141</ele>
        <time>2021-06-21T06:25:55.675Z</time>
      </trkpt>
      <trkpt lat="44.26908" lon="6.15542">
        <ele>1722.1999511719</ele>
        <time>2021-06-21T06:25:59.019Z</time>
      </trkpt>
      <trkpt lat="44.26913" lon="6.15549">
        <ele>1723.4000244141</ele>
        <time>2021-06-21T06:26:02.366Z</time>
      </trkpt>
      <trkpt lat="44.26923" lon="6.15554">
        <ele>1723.4000244141</ele>
        <time>2021-06-21T06:26:05.716Z</time>
      </trkpt>
      <trkpt lat="44.26931" lon="6.15564">
        <ele>1723.4000244141</ele>
        <time>2021-06-21T06:26:09.070Z</time>
      </trkpt>
      <trkpt lat="44.26932" lon="6.15577">
        <ele>1732.5999755859</ele>
        <time>2021-06-21T06:26:12.428Z</time>
      </trkpt>
      <trkpt lat="44.26927" lon="6.15586">
        <ele>1732.5999755859</ele>
        <time>2021-06-21T06:26:15.789Z</time>
      </trkpt>
      <trkpt lat="44.26937" lon="6.15614">
        <ele>1742.4000244141</ele>
        <time>2021-06-21T06:26:19.158Z</time>
      </trkpt>
      <trkpt lat="44.26936" lon="6.15634">
        <ele>1743.1999511719</ele>
        <time>2021-06-21T06:26:22.532Z</time>
      </trkpt>
      <trkpt lat="44.26944" lon="6.15658">
        <ele>1743.1999511719</ele>
        <time>2021-06-21T06:26:25.914Z</time>
      </trkpt>
      <trkpt lat="44.26947" lon="6.15681">
        <ele>1743.1999511719</ele>
        <time>2021-06-21T06:26:29.301Z</time>
      </trkpt>
      <trkpt lat="44.26946" lon="6.15719">
        <ele>1748.4000244141</ele>
        <time>2021-06-21T06:26:32.699Z</time>
      </trkpt>
      <trkpt lat="44.2695" lon="6.15746">
        <ele>1748.4000244141</ele>
        <time>2021-06-21T06:26:36.104Z</time>
      </trkpt>
      <trkpt lat="44.2695" lon="6.15761">
        <ele>1750.4000244141</ele>
        <time>2021-06-21T06:26:39.513Z</time>
      </trkpt>
      <trkpt lat="44.26956" lon="6.15791">
        <ele>1750.4000244141</ele>
        <time>2021-06-21T06:26:42.930Z</time>
      </trkpt>
      <trkpt lat="44.2696" lon="6.15856">
        <ele>1759.1999511719</ele>
        <time>2021-06-21T06:26:46.364Z</time>
      </trkpt>
      <trkpt lat="44.2696" lon="6.15876">
        <ele>1759.5999755859</ele>
        <time>2021-06-21T06:26:49.804Z</time>
      </trkpt>
      <trkpt lat="44.26954" lon="6.15912">
        <ele>1759.5999755859</ele>
        <time>2021-06-21T06:26:53.253Z</time>
      </trkpt>
      <trkpt lat="44.26955" lon="6.15925">
        <ele>1762.1999511719</ele>
        <time>2021-06-21T06:26:56.706Z</time>
      </trkpt>
      <trkpt lat="44.2696" lon="6.15953">
        <ele>1762.1999511719</ele>
        <time>2021-06-21T06:27:00.166Z</time>
      </trkpt>
      <trkpt lat="44.26956" lon="6.15971">
        <ele>1762.1999511719</ele>
        <time>2021-06-21T06:27:03.631Z</time>
      </trkpt>
      <trkpt lat="44.26958" lon="6.15987">
        <ele>1758.4000244141</ele>
        <time>2021-06-21T06:27:07.101Z</time>
      </trkpt>
      <trkpt lat="44.26956" lon="6.16004">
        <ele>1757.1999511719</ele>
        <time>2021-06-21T06:27:10.575Z</time>
      </trkpt>
      <trkpt lat="44.2696" lon="6.16046">
        <ele>1754.8000488281</ele>
        <time>2021-06-21T06:27:14.061Z</time>
      </trkpt>
      <trkpt lat="44.26964" lon="6.16076">
        <ele>1753.5999755859</ele>
        <time>2021-06-21T06:27:17.555Z</time>
      </trkpt>
      <trkpt lat="44.26973" lon="6.16122">
        <ele>1752.1999511719</ele>
        <time>2021-06-21T06:27:21.061Z</time>
      </trkpt>
      <trkpt lat="44.26976" lon="6.16145">
        <ele>1752.1999511719</ele>
        <time>2021-06-21T06:27:24.573Z</time>
      </trkpt>
      <trkpt lat="44.26997" lon="6.16226">
        <ele>1744</ele>
        <time>2021-06-21T06:27:28.108Z</time>
      </trkpt>
      <trkpt lat="44.27004" lon="6.16274">
        <ele>1739.8000488281</ele>
        <time>2021-06-21T06:27:31.656Z</time>
      </trkpt>
      <trkpt lat="44.27004" lon="6.16297">
        <ele>1737.4000244141</ele>
        <time>2021-06-21T06:27:35.210Z</time>
      </trkpt>
      <trkpt lat="44.26999" lon="6.16314">
        <ele>1737.4000244141</ele>
        <time>2021-06-21T06:27:38.769Z</time>
      </trkpt>
      <trkpt lat="44.26996" lon="6.16363">
        <ele>1733.5999755859</ele>
        <time>2021-06-21T06:27:42.341Z</time>
      </trkpt>
      <trkpt lat="44.26996" lon="6.16402">
        <ele>1733.5999755859</ele>
        <time>2021-06-21T06:27:45.923Z</time>
      </trkpt>
      <trkpt lat="44.27004" lon="6.16466">
        <ele>1739.4000244141</ele>
        <time>2021-06-21T06:27:49.523Z</time>
      </trkpt>
      <trkpt lat="44.27007" lon="6.16511">
        <ele>1739.4000244141</ele>
        <time>2021-06-21T06:27:53.135Z</time>
      </trkpt>
      <trkpt lat="44.27005" lon="6.16553">
        <ele>1739.4000244141</ele>
        <time>2021-06-21T06:27:56.758Z</time>
      </trkpt>
      <trkpt lat="44.27001" lon="6.16595">
        <ele>1739.4000244141</ele>
        <time>2021-06-21T06:28:00.392Z</time>
      </trkpt>
      <trkpt lat="44.27002" lon="6.1661">
        <ele>1732.4000244141</ele>
        <time>2021-06-21T06:28:04.030Z</time>
      </trkpt>
      <trkpt lat="44.27" lon="6.16609">
        <ele>1732.5999755859</ele>
        <time>2021-06-21T06:28:07.668Z</time>
      </trkpt>
      <trkpt lat="44.27004" lon="6.16639">
        <ele>1732.5999755859</ele>
        <time>2021-06-21T06:28:11.315Z</time>
      </trkpt>
      <trkpt lat="44.27004" lon="6.16659">
        <ele>1732.5999755859</ele>
        <time>2021-06-21T06:28:14.967Z</time>
      </trkpt>
      <trkpt lat="44.27" lon="6.1666">
        <ele>1729</ele>
        <time>2021-06-21T06:28:18.620Z</time>
      </trkpt>
      <trkpt lat="44.26994" lon="6.16663">
        <ele>1727.5999755859</ele>
        <time>2021-06-21T06:28:22.276Z</time>
      </trkpt>
      <trkpt lat="44.26984" lon="6.16689">
        <ele>1722.5999755859</ele>
        <time>2021-06-21T06:28:25.940Z</time>
      </trkpt>
      <trkpt lat="44.26983" lon="6.16795">
        <ele>1725.1999511719</ele>
        <time>2021-06-21T06:28:29.632Z</time>
      </trkpt>
      <trkpt lat="44.26982" lon="6.16828">
        <ele>1725.1999511719</ele>
        <time>2021-06-21T06:28:33.333Z</time>
      </trkpt>
      <trkpt lat="44.26976" lon="6.16863">
        <ele>1728.8000488281</ele>
        <time>2021-06-21T06:28:37.043Z</time>
      </trkpt>
      <trkpt lat="44.26972" lon="6.169">
        <ele>1732.8000488281</ele>
        <time>2021-06-21T06:28:40.763Z</time>
      </trkpt>
      <trkpt lat="44.26969" lon="6.16953">
        <ele>1736.8000488281</ele>
        <time>2021-06-21T06:28:44.497Z</time>
      </trkpt>
      <trkpt lat="44.2697" lon="6.16972">
        <ele>1739.5999755859</ele>
        <time>2021-06-21T06:28:48.236Z</time>
      </trkpt>
      <trkpt lat="44.26964" lon="6.16989">
        <ele>1745.4000244141</ele>
        <time>2021-06-21T06:28:51.980Z</time>
      </trkpt>
      <trkpt lat="44.26962" lon="6.17008">
        <ele>1745.4000244141</ele>
        <time>2021-06-21T06:28:55.729Z</time>
      </trkpt>
      <trkpt lat="44.26957" lon="6.17028">
        <ele>1751.8000488281</ele>
        <time>2021-06-21T06:28:59.484Z</time>
      </trkpt>
      <trkpt lat="44.26954" lon="6.17063">
        <ele>1751.8000488281</ele>
        <time>2021-06-21T06:29:03.248Z</time>
      </trkpt>
      <trkpt lat="44.26954" lon="6.17092">
        <ele>1751.8000488281</ele>
        <time>2021-06-21T06:29:07.020Z</time>
      </trkpt>
      <trkpt lat="44.26952" lon="6.17105">
        <ele>1751.8000488281</ele>
        <time>2021-06-21T06:29:10.795Z</time>
      </trkpt>
      <trkpt lat="44.26953" lon="6.1712">
        <ele>1768</ele>
        <time>2021-06-21T06:29:14.574Z</time>
      </trkpt>
      <trkpt lat="44.26951" lon="6.17151">
        <ele>1768</ele>
        <time>2021-06-21T06:29:18.361Z</time>
      </trkpt>
      <trkpt lat="44.26938" lon="6.17232">
        <ele>1768</ele>
        <time>2021-06-21T06:29:22.170Z</time>
      </trkpt>
      <trkpt lat="44.26932" lon="6.1726">
        <ele>1768</ele>
        <time>2021-06-21T06:29:25.987Z</time>
      </trkpt>
      <trkpt lat="44.2693" lon="6.17276">
        <ele>1768</ele>
        <time>2021-06-21T06:29:29.808Z</time>
      </trkpt>
      <trkpt lat="44.26926" lon="6.17285">
        <ele>1771.1999511719</ele>
        <time>2021-06-21T06:29:33.632Z</time>
      </trkpt>
      <trkpt lat="44.26921" lon="6.17303">
        <ele>1770.8000488281</ele>
        <time>2021-06-21T06:29:37.461Z</time>
      </trkpt>
      <trkpt lat="44.26914" lon="6.17342">
        <ele>1770.8000488281</ele>
        <time>2021-06-21T06:29:41.301Z</time>
      </trkpt>
      <trkpt lat="44.26906" lon="6.17373">
        <ele>1770.8000488281</ele>
        <time>2021-06-21T06:29:45.150Z</time>
      </trkpt>
      <trkpt lat="44.26904" lon="6.17394">
        <ele>1777</ele>
        <time>2021-06-21T06:29:49.005Z</time>
      </trkpt>
      <trkpt lat="44.26896" lon="6.1743">
        <ele>1780.4000244141</ele>
        <time>2021-06-21T06:29:52.869Z</time>
      </trkpt>
      <trkpt lat="44.26893" lon="6.17452">
        <ele>1783.1999511719</ele>
        <time>2021-06-21T06:29:56.739Z</time>
      </trkpt>
      <trkpt lat="44.26895" lon="6.17482">
        <ele>1785.5999755859</ele>
        <time>2021-06-21T06:30:00.617Z</time>
      </trkpt>
      <trkpt lat="44.26897" lon="6.17502">
        <ele>1786.8000488281</ele>
        <time>2021-06-21T06:30:04.501Z</time>
      </trkpt>
      <trkpt lat="44.26895" lon="6.17544">
        <ele>1786.8000488281</ele>
        <time>2021-06-21T06:30:08.396Z</time>
      </trkpt>
      <trkpt lat="44.26901" lon="6.17601">
        <ele>1786.8000488281</ele>
        <time>2021-06-21T06:30:12.306Z</time>
      </trkpt>
      <trkpt lat="44.26895" lon="6.17632">
        <ele>1794</ele>
        <time>2021-06-21T06:30:16.224Z</time>
      </trkpt>
      <trkpt lat="44.26898" lon="6.17679">
        <ele>1794</ele>
        <time>2021-06-21T06:30:20.155Z</time>
      </trkpt>
      <trkpt lat="44.26895" lon="6.17695">
        <ele>1794</ele>
        <time>2021-06-21T06:30:24.090Z</time>
      </trkpt>
      <trkpt lat="44.26894" lon="6.17731">
        <ele>1794</ele>
        <time>2021-06-21T06:30:28.035Z</time>
      </trkpt>
      <trkpt lat="44.26898" lon="6.17749">
        <ele>1799.5999755859</ele>
        <time>2021-06-21T06:30:31.985Z</time>
      </trkpt>
      <trkpt lat="44.26898" lon="6.1779">
        <ele>1799.5999755859</ele>
        <time>2021-06-21T06:30:35.946Z</time>
      </trkpt>
      <trkpt lat="44.26901" lon="6.17809">
        <ele>1799.5999755859</ele>
        <time>2021-06-21T06:30:39.912Z</time>
      </trkpt>
      <trkpt lat="44.26901" lon="6.17838">
        <ele>1799.5999755859</ele>
        <time>2021-06-21T06:30:43.885Z</time>
      </trkpt>
      <trkpt lat="44.26907" lon="6.17908">
        <ele>1799.5999755859</ele>
        <time>2021-06-21T06:30:47.877Z</time>
      </trkpt>
      <trkpt lat="44.2692" lon="6.17973">
        <ele>1799.5999755859</ele>
        <time>2021-06-21T06:30:51.887Z</time>
      </trkpt>
      <trkpt lat="44.2693" lon="6.18039">
        <ele>1808.4000244141</ele>
        <time>2021-06-21T06:30:55.915Z</time>
      </trkpt>
      <trkpt lat="44.2693" lon="6.1807">
        <ele>1808.4000244141</ele>
        <time>2021-06-21T06:30:59.951Z</time>
      </trkpt>
      <trkpt lat="44.26938" lon="6.18136">
        <ele>1805</ele>
        <time>2021-06-21T06:31:04.005Z</time>
      </trkpt>
      <trkpt lat="44.2695" lon="6.18188">
        <ele>1803.4000244141</ele>
        <time>2021-06-21T06:31:08.073Z</time>
      </trkpt>
      <trkpt lat="44.26958" lon="6.18234">
        <ele>1803.4000244141</ele>
        <time>2021-06-21T06:31:12.154Z</time>
      </trkpt>
      <trkpt lat="44.26965" lon="6.18259">
        <ele>1800.5999755859</ele>
        <time>2021-06-21T06:31:16.242Z</time>
      </trkpt>
      <trkpt lat="44.26967" lon="6.18288">
        <ele>1800.5999755859</ele>
        <time>2021-06-21T06:31:20.338Z</time>
      </trkpt>
      <trkpt lat="44.26973" lon="6.18316">
        <ele>1806.1999511719</ele>
        <time>2021-06-21T06:31:24.441Z</time>
      </trkpt>
      <trkpt lat="44.26976" lon="6.18344">
        <ele>1806.1999511719</ele>
        <time>2021-06-21T06:31:28.552Z</time>
      </trkpt>
      <trkpt lat="44.26975" lon="6.18374">
        <ele>1813.5999755859</ele>
        <time>2021-06-21T06:31:32.671Z</time>
      </trkpt>
      <trkpt lat="44.26977" lon="6.18384">
        <ele>1813.5999755859</ele>
        <time>2021-06-21T06:31:36.793Z</time>
      </trkpt>
      <trkpt lat="44.26978" lon="6.18401">
        <ele>1820</ele>
        <time>2021-06-21T06:31:40.919Z</time>
      </trkpt>
      <trkpt lat="44.26984" lon="6.18424">
        <ele>1828.4000244141</ele>
        <time>2021-06-21T06:31:45.052Z</time>
      </trkpt>
      <trkpt lat="44.26983" lon="6.18487">
        <ele>1828.4000244141</ele>
        <time>2021-06-21T06:31:49.201Z</time>
      </trkpt>
      <trkpt lat="44.27005" lon="6.18526">
        <ele>1828.4000244141</ele>
        <time>2021-06-21T06:31:53.363Z</time>
      </trkpt>
      <trkpt lat="44.27001" lon="6.18528">
        <ele>1828.4000244141</ele>
        <time>2021-06-21T06:31:57.527Z</time>
      </trkpt>
      <trkpt lat="44.26993" lon="6.18543">
        <ele>1866.8000488281</ele>
        <time>2021-06-21T06:32:01.696Z</time>
      </trkpt>
      <trkpt lat="44.26988" lon="6.18547">
        <ele>1868</ele>
        <time>2021-06-21T06:32:05.867Z</time>
      </trkpt>
      <trkpt lat="44.26985" lon="6.18555">
        <ele>1869.4000244141</ele>
        <time>2021-06-21T06:32:10.040Z</time>
      </trkpt>
      <trkpt lat="44.2699" lon="6.18561">
        <ele>1869.4000244141</ele>
        <time>2021-06-21T06:32:14.216Z</time>
      </trkpt>
      <trkpt lat="44.26996" lon="6.18619">
        <ele>1893.5999755859</ele>
        <time>2021-06-21T06:32:18.407Z</time>
      </trkpt>
      <trkpt lat="44.27" lon="6.18624">
        <ele>1891.1999511719</ele>
        <time>2021-06-21T06:32:22.600Z</time>
      </trkpt>
      <trkpt lat="44.27001" lon="6.18637">
        <ele>1888.1999511719</ele>
        <time>2021-06-21T06:32:26.797Z</time>
      </trkpt>
      <trkpt lat="44.26983" lon="6.1871">
        <ele>1888.1999511719</ele>
        <time>2021-06-21T06:32:31.014Z</time>
      </trkpt>
      <trkpt lat="44.26969" lon="6.18791">
        <ele>1895.4000244141</ele>
        <time>2021-06-21T06:32:35.253Z</time>
      </trkpt>
      <trkpt lat="44.26978" lon="6.18819">
        <ele>1899.8000488281</ele>
        <time>2021-06-21T06:32:39.500Z</time>
      </trkpt>
      <trkpt lat="44.26974" lon="6.18862">
        <ele>1899.8000488281</ele>
        <time>2021-06-21T06:32:43.759Z</time>
      </trkpt>
      <trkpt lat="44.26975" lon="6.18923">
        <ele>1899.8000488281</ele>
        <time>2021-06-21T06:32:48.034Z</time>
      </trkpt>
      <trkpt lat="44.26984" lon="6.18945">
        <ele>1898</ele>
        <time>2021-06-21T06:32:52.316Z</time>
      </trkpt>
      <trkpt lat="44.26999" lon="6.1897">
        <ele>1898</ele>
        <time>2021-06-21T06:32:56.606Z</time>
      </trkpt>
      <trkpt lat="44.27" lon="6.18976">
        <ele>1899.1999511719</ele>
        <time>2021-06-21T06:33:00.898Z</time>
      </trkpt>
      <trkpt lat="44.26997" lon="6.18988">
        <ele>1899.1999511719</ele>
        <time>2021-06-21T06:33:05.193Z</time>
      </trkpt>
      <trkpt lat="44.26995" lon="6.19016">
        <ele>1896.1999511719</ele>
        <time>2021-06-21T06:33:09.496Z</time>
      </trkpt>
      <trkpt lat="44.26974" lon="6.19058">
        <ele>1894.8000488281</ele>
        <time>2021-06-21T06:33:13.812Z</time>
      </trkpt>
      <trkpt lat="44.26971" lon="6.19066">
        <ele>1894.8000488281</ele>
        <time>2021-06-21T06:33:18.131Z</time>
      </trkpt>
      <trkpt lat="44.26966" lon="6.19094">
        <ele>1893.4000244141</ele>
        <time>2021-06-21T06:33:22.457Z</time>
      </trkpt>
      <trkpt lat="44.26961" lon="6.19106">
        <ele>1892.5999755859</ele>
        <time>2021-06-21T06:33:26.787Z</time>
      </trkpt>
      <trkpt lat="44.26955" lon="6.19113">
        <ele>1893.5999755859</ele>
        <time>2021-06-21T06:33:31.120Z</time>
      </trkpt>
      <trkpt lat="44.26949" lon="6.19127">
        <ele>1894.5999755859</ele>
        <time>2021-06-21T06:33:35.457Z</time>
      </trkpt>
      <trkpt lat="44.26945" lon="6.19133">
        <ele>1894.5999755859</ele>
        <time>2021-06-21T06:33:39.796Z</time>
      </trkpt>
      <trkpt lat="44.26936" lon="6.19141">
        <ele>1897</ele>
        <time>2021-06-21T06:33:44.139Z</time>
      </trkpt>
      <trkpt lat="44.26929" lon="6.19143">
        <ele>1897</ele>
        <time>2021-06-21T06:33:48.485Z</time>
      </trkpt>
      <trkpt lat="44.26923" lon="6.19154">
        <ele>1898.4000244141</ele>
        <time>2021-06-21T06:33:52.834Z</time>
      </trkpt>
      <trkpt lat="44.26922" lon="6.19159">
        <ele>1898.4000244141</ele>
        <time>2021-06-21T06:33:57.185Z</time>
      </trkpt>
      <trkpt lat="44.26922" lon="6.19169">
        <ele>1898.4000244141</ele>
        <time>2021-06-21T06:34:01.538Z</time>
      </trkpt>
      <trkpt lat="44.26909" lon="6.19193">
        <ele>1904.1999511719</ele>
        <time>2021-06-21T06:34:05.899Z</time>
      </trkpt>
      <trkpt lat="44.26904" lon="6.19208">
        <ele>1904.1999511719</ele>
        <time>2021-06-21T06:34:10.265Z</time>
      </trkpt>
      <trkpt lat="44.26891" lon="6.19228">
        <ele>1909.4000244141</ele>
        <time>2021-06-21T06:34:14.638Z</time>
      </trkpt>
      <trkpt lat="44.26882" lon="6.19258">
        <ele>1909.4000244141</ele>
        <time>2021-06-21T06:34:19.020Z</time>
      </trkpt>
      <trkpt lat="44.26878" lon="6.19282">
        <ele>1909.4000244141</ele>
        <time>2021-06-21T06:34:23.408Z</time>
      </trkpt>
      <trkpt lat="44.2687" lon="6.19308">
        <ele>1909.4000244141</ele>
        <time>2021-06-21T06:34:27.804Z</time>
      </trkpt>
      <trkpt lat="44.26852" lon="6.19338">
        <ele>1895</ele>
        <time>2021-06-21T06:34:32.210Z</time>
      </trkpt>
      <trkpt lat="44.26843" lon="6.19364">
        <ele>1891.4000244141</ele>
        <time>2021-06-21T06:34:36.624Z</time>
      </trkpt>
      <trkpt lat="44.26839" lon="6.19377">
        <ele>1890</ele>
        <time>2021-06-21T06:34:41.041Z</time>
      </trkpt>
      <trkpt lat="44.2684" lon="6.19396">
        <ele>1890</ele>
        <time>2021-06-21T06:34:45.463Z</time>
      </trkpt>
      <trkpt lat="44.26839" lon="6.1944">
        <ele>1881.4000244141</ele>
        <time>2021-06-21T06:34:49.897Z</time>
      </trkpt>
      <trkpt lat="44.26844" lon="6.1946">
        <ele>1877</ele>
        <time>2021-06-21T06:34:54.337Z</time>
      </trkpt>
      <trkpt lat="44.26845" lon="6.19489">
        <ele>1873.8000488281</ele>
        <time>2021-06-21T06:34:58.784Z</time>
      </trkpt>
      <trkpt lat="44.26854" lon="6.19525">
        <ele>1868.4000244141</ele>
        <time>2021-06-21T06:35:03.241Z</time>
      </trkpt>
      <trkpt lat="44.26859" lon="6.1954">
        <ele>1865.5999755859</ele>
        <time>2021-06-21T06:35:07.703Z</time>
      </trkpt>
      <trkpt lat="44.26882" lon="6.19588">
        <ele>1864.5999755859</ele>
        <time>2021-06-21T06:35:12.180Z</time>
      </trkpt>
      <trkpt lat="44.26883" lon="6.19611">
        <ele>1864.5999755859</ele>
        <time>2021-06-21T06:35:16.663Z</time>
      </trkpt>
      <trkpt lat="44.26889" lon="6.19608">
        <ele>1863.8000488281</ele>
        <time>2021-06-21T06:35:21.148Z</time>
      </trkpt>
      <trkpt lat="44.26893" lon="6.19609">
        <ele>1863.8000488281</ele>
        <time>2021-06-21T06:35:25.635Z</time>
      </trkpt>
      <trkpt lat="44.269" lon="6.19613">
        <ele>1863.8000488281</ele>
        <time>2021-06-21T06:35:30.125Z</time>
      </trkpt>
      <trkpt lat="44.26906" lon="6.1962">
        <ele>1862.1999511719</ele>
        <time>2021-06-21T06:35:34.618Z</time>
      </trkpt>
      <trkpt lat="44.26925" lon="6.19669">
        <ele>1854</ele>
        <time>2021-06-21T06:35:39.125Z</time>
      </trkpt>
      <trkpt lat="44.26936" lon="6.19679">
        <ele>1854</ele>
        <time>2021-06-21T06:35:43.637Z</time>
      </trkpt>
      <trkpt lat="44.26967" lon="6.19697">
        <ele>1848</ele>
        <time>2021-06-21T06:35:48.162Z</time>
      </trkpt>
      <trkpt lat="44.26977" lon="6.19709">
        <ele>1845.1999511719</ele>
        <time>2021-06-21T06:35:52.692Z</time>
      </trkpt>
      <trkpt lat="44.2699" lon="6.19718">
        <ele>1845.1999511719</ele>
        <time>2021-06-21T06:35:57.227Z</time>
      </trkpt>
      <trkpt lat="44.27061" lon="6.19751">
        <ele>1836.1999511719</ele>
        <time>2021-06-21T06:36:01.789Z</time>
      </trkpt>
      <trkpt lat="44.27068" lon="6.19756">
        <ele>1836.1999511719</ele>
        <time>2021-06-21T06:36:06.354Z</time>
      </trkpt>
      <trkpt lat="44.27078" lon="6.19766">
        <ele>1831.5999755859</ele>
        <time>2021-06-21T06:36:10.924Z</time>
      </trkpt>
      <trkpt lat="44.27107" lon="6.19817">
        <ele>1831.5999755859</ele>
        <time>2021-06-21T06:36:15.511Z</time>
      </trkpt>
      <trkpt lat="44.2712" lon="6.19832">
        <ele>1831.5999755859</ele>
        <time>2021-06-21T06:36:20.104Z</time>
      </trkpt>
      <trkpt lat="44.27131" lon="6.19852">
        <ele>1819.1999511719</ele>
        <time>2021-06-21T06:36:24.704Z</time>
      </trkpt>
      <trkpt lat="44.27142" lon="6.19866">
        <ele>1819.1999511719</ele>
        <time>2021-06-21T06:36:29.309Z</time>
      </trkpt>
      <trkpt lat="44.27161" lon="6.19901">
        <ele>1811.5999755859</ele>
        <time>2021-06-21T06:36:33.926Z</time>
      </trkpt>
      <trkpt lat="44.27179" lon="6.1991">
        <ele>1807.4000244141</ele>
        <time>2021-06-21T06:36:38.550Z</time>
      </trkpt>
      <trkpt lat="44.27193" lon="6.19913">
        <ele>1807.4000244141</ele>
        <time>2021-06-21T06:36:43.179Z</time>
      </trkpt>
      <trkpt lat="44.27205" lon="6.19918">
        <ele>1804.4000244141</ele>
        <time>2021-06-21T06:36:47.813Z</time>
      </trkpt>
      <trkpt lat="44.27214" lon="6.19923">
        <ele>1803.1999511719</ele>
        <time>2021-06-21T06:36:52.450Z</time>
      </trkpt>
      <trkpt lat="44.27226" lon="6.19935">
        <ele>1800.5999755859</ele>
        <time>2021-06-21T06:36:57.093Z</time>
      </trkpt>
      <trkpt lat="44.27228" lon="6.19936">
        <ele>1800.5999755859</ele>
        <time>2021-06-21T06:37:01.737Z</time>
      </trkpt>
      <trkpt lat="44.2723" lon="6.19932">
        <ele>1800.5999755859</ele>
        <time>2021-06-21T06:37:06.382Z</time>
      </trkpt>
      <trkpt lat="44.27237" lon="6.19913">
        <ele>1800.5999755859</ele>
        <time>2021-06-21T06:37:11.032Z</time>
      </trkpt>
      <trkpt lat="44.27241" lon="6.19889">
        <ele>1795.5999755859</ele>
        <time>2021-06-21T06:37:15.689Z</time>
      </trkpt>
      <trkpt lat="44.27241" lon="6.19847">
        <ele>1795.5999755859</ele>
        <time>2021-06-21T06:37:20.357Z</time>
      </trkpt>
      <trkpt lat="44.27246" lon="6.19829">
        <ele>1792.1999511719</ele>
        <time>2021-06-21T06:37:25.030Z</time>
      </trkpt>
      <trkpt lat="44.27253" lon="6.19815">
        <ele>1790.8000488281</ele>
        <time>2021-06-21T06:37:29.708Z</time>
      </trkpt>
      <trkpt lat="44.27258" lon="6.19784">
        <ele>1787.1999511719</ele>
        <time>2021-06-21T06:37:34.394Z</time>
      </trkpt>
      <trkpt lat="44.27277" lon="6.19734">
        <ele>1778.5999755859</ele>
        <time>2021-06-21T06:37:39.095Z</time>
      </trkpt>
      <trkpt lat="44.27276" lon="6.19713">
        <ele>1778.5999755859</ele>
        <time>2021-06-21T06:37:43.802Z</time>
      </trkpt>
      <trkpt lat="44.27274" lon="6.19702">
        <ele>1778.5999755859</ele>
        <time>2021-06-21T06:37:48.512Z</time>
      </trkpt>
      <trkpt lat="44.27269" lon="6.19695">
        <ele>1773</ele>
        <time>2021-06-21T06:37:53.224Z</time>
      </trkpt>
      <trkpt lat="44.27248" lon="6.1967">
        <ele>1767</ele>
        <time>2021-06-21T06:37:57.946Z</time>
      </trkpt>
      <trkpt lat="44.27229" lon="6.19659">
        <ele>1767</ele>
        <time>2021-06-21T06:38:02.676Z</time>
      </trkpt>
      <trkpt lat="44.27213" lon="6.19647">
        <ele>1767</ele>
        <time>2021-06-21T06:38:07.413Z</time>
      </trkpt>
      <trkpt lat="44.27205" lon="6.19645">
        <ele>1762.8000488281</ele>
        <time>2021-06-21T06:38:12.153Z</time>
      </trkpt>
      <trkpt lat="44.27188" lon="6.19632">
        <ele>1762.8000488281</ele>
        <time>2021-06-21T06:38:16.900Z</time>
      </trkpt>
      <trkpt lat="44.27175" lon="6.19611">
        <ele>1762.8000488281</ele>
        <time>2021-06-21T06:38:21.654Z</time>
      </trkpt>
      <trkpt lat="44.27171" lon="6.19601">
        <ele>1758.1999511719</ele>
        <time>2021-06-21T06:38:26.411Z</time>
      </trkpt>
      <trkpt lat="44.27166" lon="6.1958">
        <ele>1758.1999511719</ele>
        <time>2021-06-21T06:38:31.174Z</time>
      </trkpt>
      <trkpt lat="44.27168" lon="6.19568">
        <ele>1755</ele>
        <time>2021-06-21T06:38:35.940Z</time>
      </trkpt>
      <trkpt lat="44.27169" lon="6.19543">
        <ele>1756</ele>
        <time>2021-06-21T06:38:40.713Z</time>
      </trkpt>
      <trkpt lat="44.27166" lon="6.19521">
        <ele>1756</ele>
        <time>2021-06-21T06:38:45.492Z</time>
      </trkpt>
      <trkpt lat="44.27159" lon="6.19497">
        <ele>1752</ele>
        <time>2021-06-21T06:38:50.278Z</time>
      </trkpt>
      <trkpt lat="44.27158" lon="6.19483">
        <ele>1748.5999755859</ele>
        <time>2021-06-21T06:38:55.068Z</time>
      </trkpt>
      <trkpt lat="44.2716" lon="6.19461">
        <ele>1748.5999755859</ele>
        <time>2021-06-21T06:38:59.864Z</time>
      </trkpt>
      <trkpt lat="44.27163" lon="6.19451">
        <ele>1748.5999755859</ele>
        <time>2021-06-21T06:39:04.662Z</time>
      </trkpt>
      <trkpt lat="44.2717" lon="6.19444">
        <ele>1748.5999755859</ele>
        <time>2021-06-21T06:39:09.464Z</time>
      </trkpt>
      <trkpt lat="44.27193" lon="6.19432">
        <ele>1744.8000488281</ele>
        <time>2021-06-21T06:39:14.275Z</time>
      </trkpt>
      <trkpt lat="44.27235" lon="6.194">
        <ele>1744.8000488281</ele>
        <time>2021-06-21T06:39:19.103Z</time>
      </trkpt>
      <trkpt lat="44.27254" lon="6.19379">
        <ele>1738.4000244141</ele>
        <time>2021-06-21T06:39:23.940Z</time>
      </trkpt>
      <trkpt lat="44.27263" lon="6.19363">
        <ele>1738.4000244141</ele>
        <time>2021-06-21T06:39:28.783Z</time>
      </trkpt>
      <trkpt lat="44.27273" lon="6.19355">
        <ele>1738.4000244141</ele>
        <time>2021-06-21T06:39:33.630Z</time>
      </trkpt>
      <trkpt lat="44.27278" lon="6.19349">
        <ele>1738.4000244141</ele>
        <time>2021-06-21T06:39:38.479Z</time>
      </trkpt>
      <trkpt lat="44.27289" lon="6.19339">
        <ele>1738.4000244141</ele>
        <time>2021-06-21T06:39:43.333Z</time>
      </trkpt>
      <trkpt lat="44.27293" lon="6.19316">
        <ele>1726</ele>
        <time>2021-06-21T06:39:48.193Z</time>
      </trkpt>
      <trkpt lat="44.273" lon="6.19294">
        <ele>1726</ele>
        <time>2021-06-21T06:39:53.060Z</time>
      </trkpt>
      <trkpt lat="44.27315" lon="6.19269">
        <ele>1722.4000244141</ele>
        <time>2021-06-21T06:39:57.936Z</time>
      </trkpt>
      <trkpt lat="44.27324" lon="6.19259">
        <ele>1720</ele>
        <time>2021-06-21T06:40:02.816Z</time>
      </trkpt>
      <trkpt lat="44.27331" lon="6.19249">
        <ele>1720</ele>
        <time>2021-06-21T06:40:07.699Z</time>
      </trkpt>
      <trkpt lat="44.27336" lon="6.19229">
        <ele>1717.8000488281</ele>
        <time>2021-06-21T06:40:12.588Z</time>
      </trkpt>
      <trkpt lat="44.2734" lon="6.19223">
        <ele>1717.8000488281</ele>
        <time>2021-06-21T06:40:17.479Z</time>
      </trkpt>
      <trkpt lat="44.2735" lon="6.19216">
        <ele>1717.8000488281</ele>
        <time>2021-06-21T06:40:22.374Z</time>
      </trkpt>
      <trkpt lat="44.27357" lon="6.19188">
        <ele>1715.1999511719</ele>
        <time>2021-06-21T06:40:27.277Z</time>
      </trkpt>
      <trkpt lat="44.27367" lon="6.19171">
        <ele>1715.1999511719</ele>
        <time>2021-06-21T06:40:32.186Z</time>
      </trkpt>
      <trkpt lat="44.2737" lon="6.19168">
        <ele>1715.1999511719</ele>
        <time>2021-06-21T06:40:37.096Z</time>
      </trkpt>
      <trkpt lat="44.27375" lon="6.19151">
        <ele>1717.1999511719</ele>
        <time>2021-06-21T06:40:42.011Z</time>
      </trkpt>
      <trkpt lat="44.2738" lon="6.19145">
        <ele>1717.1999511719</ele>
        <time>2021-06-21T06:40:46.929Z</time>
      </trkpt>
      <trkpt lat="44.27382" lon="6.19123">
        <ele>1717.1999511719</ele>
        <time>2021-06-21T06:40:51.852Z</time>
      </trkpt>
      <trkpt lat="44.27386" lon="6.19113">
        <ele>1717.1999511719</ele>
        <time>2021-06-21T06:40:56.779Z</time>
      </trkpt>
      <trkpt lat="44.27407" lon="6.19099">
        <ele>1717.1999511719</ele>
        <time>2021-06-21T06:41:01.714Z</time>
      </trkpt>
      <trkpt lat="44.27448" lon="6.19063">
        <ele>1708.1999511719</ele>
        <time>2021-06-21T06:41:06.667Z</time>
      </trkpt>
      <trkpt lat="44.27458" lon="6.19049">
        <ele>1705.5999755859</ele>
        <time>2021-06-21T06:41:11.625Z</time>
      </trkpt>
      <trkpt lat="44.27463" lon="6.19045">
        <ele>1705.5999755859</ele>
        <time>2021-06-21T06:41:16.585Z</time>
      </trkpt>
      <trkpt lat="44.27469" lon="6.19043">
        <ele>1705.5999755859</ele>
        <time>2021-06-21T06:41:21.548Z</time>
      </trkpt>
      <trkpt lat="44.27471" lon="6.19041">
        <ele>1705.5999755859</ele>
        <time>2021-06-21T06:41:26.512Z</time>
      </trkpt>
      <trkpt lat="44.27472" lon="6.19032">
        <ele>1700.8000488281</ele>
        <time>2021-06-21T06:41:31.478Z</time>
      </trkpt>
      <trkpt lat="44.27467" lon="6.19023">
        <ele>1700.8000488281</ele>
        <time>2021-06-21T06:41:36.447Z</time>
      </trkpt>
      <trkpt lat="44.27462" lon="6.1902">
        <ele>1698</ele>
        <time>2021-06-21T06:41:41.418Z</time>
      </trkpt>
      <trkpt lat="44.27455" lon="6.19017">
        <ele>1698</ele>
        <time>2021-06-21T06:41:46.392Z</time>
      </trkpt>
      <trkpt lat="44.27438" lon="6.19014">
        <ele>1698</ele>
        <time>2021-06-21T06:41:51.372Z</time>
      </trkpt>
      <trkpt lat="44.27418" lon="6.19">
        <ele>1698</ele>
        <time>2021-06-21T06:41:56.361Z</time>
      </trkpt>
      <trkpt lat="44.27411" lon="6.18992">
        <ele>1698</ele>
        <time>2021-06-21T06:42:01.353Z</time>
      </trkpt>
      <trkpt lat="44.274" lon="6.18989">
        <ele>1698</ele>
        <time>2021-06-21T06:42:06.349Z</time>
      </trkpt>
      <trkpt lat="44.27397" lon="6.18987">
        <ele>1698</ele>
        <time>2021-06-21T06:42:11.346Z</time>
      </trkpt>
      <trkpt lat="44.274" lon="6.18941">
        <ele>1684</ele>
        <time>2021-06-21T06:42:16.355Z</time>
      </trkpt>
      <trkpt lat="44.27391" lon="6.18885">
        <ele>1684</ele>
        <time>2021-06-21T06:42:21.380Z</time>
      </trkpt>
      <trkpt lat="44.27399" lon="6.18853">
        <ele>1684</ele>
        <time>2021-06-21T06:42:26.413Z</time>
      </trkpt>
      <trkpt lat="44.27398" lon="6.18852">
        <ele>1680.8000488281</ele>
        <time>2021-06-21T06:42:31.447Z</time>
      </trkpt>
      <trkpt lat="44.27375" lon="6.1884">
        <ele>1680.8000488281</ele>
        <time>2021-06-21T06:42:36.490Z</time>
      </trkpt>
      <trkpt lat="44.27372" lon="6.18836">
        <ele>1680.8000488281</ele>
        <time>2021-06-21T06:42:41.534Z</time>
      </trkpt>
      <trkpt lat="44.2739" lon="6.18832">
        <ele>1680.8000488281</ele>
        <time>2021-06-21T06:42:46.585Z</time>
      </trkpt>
      <trkpt lat="44.27438" lon="6.18829">
        <ele>1680.8000488281</ele>
        <time>2021-06-21T06:42:51.654Z</time>
      </trkpt>
      <trkpt lat="44.27448" lon="6.18831">
        <ele>1680.8000488281</ele>
        <time>2021-06-21T06:42:56.726Z</time>
      </trkpt>
      <trkpt lat="44.27453" lon="6.18839">
        <ele>1668.8000488281</ele>
        <time>2021-06-21T06:43:01.801Z</time>
      </trkpt>
      <trkpt lat="44.27454" lon="6.18845">
        <ele>1668.8000488281</ele>
        <time>2021-06-21T06:43:06.878Z</time>
      </trkpt>
      <trkpt lat="44.27452" lon="6.18856">
        <ele>1668.1999511719</ele>
        <time>2021-06-21T06:43:11.958Z</time>
      </trkpt>
      <trkpt lat="44.27452" lon="6.18879">
        <ele>1668.1999511719</ele>
        <time>2021-06-21T06:43:17.044Z</time>
      </trkpt>
      <trkpt lat="44.27465" lon="6.18888">
        <ele>1667.4000244141</ele>
        <time>2021-06-21T06:43:22.135Z</time>
      </trkpt>
      <trkpt lat="44.27478" lon="6.18889">
        <ele>1665.5999755859</ele>
        <time>2021-06-21T06:43:27.231Z</time>
      </trkpt>
      <trkpt lat="44.27492" lon="6.18888">
        <ele>1663.8000488281</ele>
        <time>2021-06-21T06:43:32.332Z</time>
      </trkpt>
      <trkpt lat="44.27513" lon="6.18879">
        <ele>1661.5999755859</ele>
        <time>2021-06-21T06:43:37.441Z</time>
      </trkpt>
      <trkpt lat="44.27519" lon="6.18879">
        <ele>1661.5999755859</ele>
        <time>2021-06-21T06:43:42.553Z</time>
      </trkpt>
      <trkpt lat="44.27527" lon="6.18888">
        <ele>1659.4000244141</ele>
        <time>2021-06-21T06:43:47.668Z</time>
      </trkpt>
      <trkpt lat="44.2754" lon="6.18933">
        <ele>1656.5999755859</ele>
        <time>2021-06-21T06:43:52.796Z</time>
      </trkpt>
      <trkpt lat="44.27549" lon="6.18943">
        <ele>1655.5999755859</ele>
        <time>2021-06-21T06:43:57.928Z</time>
      </trkpt>
      <trkpt lat="44.27555" lon="6.18945">
        <ele>1655.5999755859</ele>
        <time>2021-06-21T06:44:03.063Z</time>
      </trkpt>
      <trkpt lat="44.27575" lon="6.18946">
        <ele>1655.5999755859</ele>
        <time>2021-06-21T06:44:08.205Z</time>
      </trkpt>
      <trkpt lat="44.27634" lon="6.18937">
        <ele>1650.4000244141</ele>
        <time>2021-06-21T06:44:13.369Z</time>
      </trkpt>
      <trkpt lat="44.27648" lon="6.18937">
        <ele>1650.4000244141</ele>
        <time>2021-06-21T06:44:18.538Z</time>
      </trkpt>
      <trkpt lat="44.27654" lon="6.18939">
        <ele>1649.1999511719</ele>
        <time>2021-06-21T06:44:23.709Z</time>
      </trkpt>
      <trkpt lat="44.27662" lon="6.1895">
        <ele>1649.1999511719</ele>
        <time>2021-06-21T06:44:28.885Z</time>
      </trkpt>
      <trkpt lat="44.27664" lon="6.18958">
        <ele>1647.8000488281</ele>
        <time>2021-06-21T06:44:34.063Z</time>
      </trkpt>
      <trkpt lat="44.27663" lon="6.18974">
        <ele>1647.8000488281</ele>
        <time>2021-06-21T06:44:39.245Z</time>
      </trkpt>
      <trkpt lat="44.27659" lon="6.18999">
        <ele>1645.4000244141</ele>
        <time>2021-06-21T06:44:44.434Z</time>
      </trkpt>
      <trkpt lat="44.27652" lon="6.19016">
        <ele>1644</ele>
        <time>2021-06-21T06:44:49.628Z</time>
      </trkpt>
      <trkpt lat="44.27633" lon="6.19052">
        <ele>1644</ele>
        <time>2021-06-21T06:44:54.834Z</time>
      </trkpt>
      <trkpt lat="44.27628" lon="6.19069">
        <ele>1642</ele>
        <time>2021-06-21T06:45:00.045Z</time>
      </trkpt>
      <trkpt lat="44.27627" lon="6.19078">
        <ele>1642</ele>
        <time>2021-06-21T06:45:05.258Z</time>
      </trkpt>
      <trkpt lat="44.27635" lon="6.19153">
        <ele>1636.1999511719</ele>
        <time>2021-06-21T06:45:10.491Z</time>
      </trkpt>
      <trkpt lat="44.27637" lon="6.19204">
        <ele>1636.1999511719</ele>
        <time>2021-06-21T06:45:15.738Z</time>
      </trkpt>
      <trkpt lat="44.27635" lon="6.19221">
        <ele>1636.1999511719</ele>
        <time>2021-06-21T06:45:20.989Z</time>
      </trkpt>
      <trkpt lat="44.27637" lon="6.19229">
        <ele>1633.8000488281</ele>
        <time>2021-06-21T06:45:26.243Z</time>
      </trkpt>
      <trkpt lat="44.27652" lon="6.19252">
        <ele>1633.8000488281</ele>
        <time>2021-06-21T06:45:31.505Z</time>
      </trkpt>
      <trkpt lat="44.27658" lon="6.19258">
        <ele>1632.1999511719</ele>
        <time>2021-06-21T06:45:36.770Z</time>
      </trkpt>
      <trkpt lat="44.27664" lon="6.19262">
        <ele>1632.1999511719</ele>
        <time>2021-06-21T06:45:42.037Z</time>
      </trkpt>
      <trkpt lat="44.2767" lon="6.19264">
        <ele>1630.1999511719</ele>
        <time>2021-06-21T06:45:47.306Z</time>
      </trkpt>
      <trkpt lat="44.27679" lon="6.19258">
        <ele>1630.1999511719</ele>
        <time>2021-06-21T06:45:52.579Z</time>
      </trkpt>
      <trkpt lat="44.27691" lon="6.1924">
        <ele>1627.4000244141</ele>
        <time>2021-06-21T06:45:57.859Z</time>
      </trkpt>
      <trkpt lat="44.27705" lon="6.19214">
        <ele>1627.4000244141</ele>
        <time>2021-06-21T06:46:03.147Z</time>
      </trkpt>
      <trkpt lat="44.27711" lon="6.1921">
        <ele>1625</ele>
        <time>2021-06-21T06:46:08.437Z</time>
      </trkpt>
      <trkpt lat="44.27726" lon="6.19217">
        <ele>1625</ele>
        <time>2021-06-21T06:46:13.733Z</time>
      </trkpt>
      <trkpt lat="44.27731" lon="6.19221">
        <ele>1623.4000244141</ele>
        <time>2021-06-21T06:46:19.032Z</time>
      </trkpt>
      <trkpt lat="44.27741" lon="6.19223">
        <ele>1623.4000244141</ele>
        <time>2021-06-21T06:46:24.334Z</time>
      </trkpt>
      <trkpt lat="44.27757" lon="6.19212">
        <ele>1623.4000244141</ele>
        <time>2021-06-21T06:46:29.643Z</time>
      </trkpt>
      <trkpt lat="44.27785" lon="6.19185">
        <ele>1623.4000244141</ele>
        <time>2021-06-21T06:46:34.964Z</time>
      </trkpt>
      <trkpt lat="44.27799" lon="6.19162">
        <ele>1616.8000488281</ele>
        <time>2021-06-21T06:46:40.293Z</time>
      </trkpt>
      <trkpt lat="44.27804" lon="6.1915">
        <ele>1616.8000488281</ele>
        <time>2021-06-21T06:46:45.626Z</time>
      </trkpt>
      <trkpt lat="44.27808" lon="6.19138">
        <ele>1615.8000488281</ele>
        <time>2021-06-21T06:46:50.962Z</time>
      </trkpt>
      <trkpt lat="44.27812" lon="6.19119">
        <ele>1615.5999755859</ele>
        <time>2021-06-21T06:46:56.304Z</time>
      </trkpt>
      <trkpt lat="44.27813" lon="6.19093">
        <ele>1615.1999511719</ele>
        <time>2021-06-21T06:47:01.653Z</time>
      </trkpt>
      <trkpt lat="44.27809" lon="6.19072">
        <ele>1615.1999511719</ele>
        <time>2021-06-21T06:47:07.007Z</time>
      </trkpt>
      <trkpt lat="44.27795" lon="6.1902">
        <ele>1615.1999511719</ele>
        <time>2021-06-21T06:47:12.376Z</time>
      </trkpt>
      <trkpt lat="44.27797" lon="6.18989">
        <ele>1614.1999511719</ele>
        <time>2021-06-21T06:47:17.753Z</time>
      </trkpt>
      <trkpt lat="44.27801" lon="6.18976">
        <ele>1613.4000244141</ele>
        <time>2021-06-21T06:47:23.134Z</time>
      </trkpt>
      <trkpt lat="44.27812" lon="6.18957">
        <ele>1611.8000488281</ele>
        <time>2021-06-21T06:47:28.521Z</time>
      </trkpt>
      <trkpt lat="44.27839" lon="6.18933">
        <ele>1611.8000488281</ele>
        <time>2021-06-21T06:47:33.920Z</time>
      </trkpt>
      <trkpt lat="44.27849" lon="6.1893">
        <ele>1611.8000488281</ele>
        <time>2021-06-21T06:47:39.323Z</time>
      </trkpt>
      <trkpt lat="44.27871" lon="6.18933">
        <ele>1611.8000488281</ele>
        <time>2021-06-21T06:47:44.734Z</time>
      </trkpt>
      <trkpt lat="44.27887" lon="6.18926">
        <ele>1604.4000244141</ele>
        <time>2021-06-21T06:47:50.151Z</time>
      </trkpt>
      <trkpt lat="44.27918" lon="6.18904">
        <ele>1600.5999755859</ele>
        <time>2021-06-21T06:47:55.581Z</time>
      </trkpt>
      <trkpt lat="44.27932" lon="6.18889">
        <ele>1598.4000244141</ele>
        <time>2021-06-21T06:48:01.018Z</time>
      </trkpt>
      <trkpt lat="44.2797" lon="6.18834">
        <ele>1598.4000244141</ele>
        <time>2021-06-21T06:48:06.475Z</time>
      </trkpt>
      <trkpt lat="44.27984" lon="6.18821">
        <ele>1598.4000244141</ele>
        <time>2021-06-21T06:48:11.938Z</time>
      </trkpt>
      <trkpt lat="44.28027" lon="6.18802">
        <ele>1598.4000244141</ele>
        <time>2021-06-21T06:48:17.418Z</time>
      </trkpt>
      <trkpt lat="44.28041" lon="6.18799">
        <ele>1598.4000244141</ele>
        <time>2021-06-21T06:48:22.903Z</time>
      </trkpt>
      <trkpt lat="44.2805" lon="6.18807">
        <ele>1582.1999511719</ele>
        <time>2021-06-21T06:48:28.392Z</time>
      </trkpt>
      <trkpt lat="44.28057" lon="6.18822">
        <ele>1579.8000488281</ele>
        <time>2021-06-21T06:48:33.886Z</time>
      </trkpt>
      <trkpt lat="44.2806" lon="6.18826">
        <ele>1579.8000488281</ele>
        <time>2021-06-21T06:48:39.381Z</time>
      </trkpt>
      <trkpt lat="44.28069" lon="6.18827">
        <ele>1579.8000488281</ele>
        <time>2021-06-21T06:48:44.880Z</time>
      </trkpt>
      <trkpt lat="44.28073" lon="6.1882">
        <ele>1578.4000244141</ele>
        <time>2021-06-21T06:48:50.381Z</time>
      </trkpt>
      <trkpt lat="44.28075" lon="6.18809">
        <ele>1577.8000488281</ele>
        <time>2021-06-21T06:48:55.885Z</time>
      </trkpt>
      <trkpt lat="44.28086" lon="6.18787">
        <ele>1577.8000488281</ele>
        <time>2021-06-21T06:49:01.396Z</time>
      </trkpt>
      <trkpt lat="44.28107" lon="6.18753">
        <ele>1575.1999511719</ele>
        <time>2021-06-21T06:49:06.919Z</time>
      </trkpt>
      <trkpt lat="44.28118" lon="6.18741">
        <ele>1573.8000488281</ele>
        <time>2021-06-21T06:49:12.447Z</time>
      </trkpt>
      <trkpt lat="44.28129" lon="6.18737">
        <ele>1573.8000488281</ele>
        <time>2021-06-21T06:49:17.979Z</time>
      </trkpt>
      <trkpt lat="44.2814" lon="6.18751">
        <ele>1570.5999755859</ele>
        <time>2021-06-21T06:49:23.517Z</time>
      </trkpt>
      <trkpt lat="44.28144" lon="6.18759">
        <ele>1570.5999755859</ele>
        <time>2021-06-21T06:49:29.057Z</time>
      </trkpt>
      <trkpt lat="44.28149" lon="6.18757">
        <ele>1570.5999755859</ele>
        <time>2021-06-21T06:49:34.599Z</time>
      </trkpt>
      <trkpt lat="44.28168" lon="6.18701">
        <ele>1570.5999755859</ele>
        <time>2021-06-21T06:49:40.157Z</time>
      </trkpt>
      <trkpt lat="44.28168" lon="6.18696">
        <ele>1564.1999511719</ele>
        <time>2021-06-21T06:49:45.717Z</time>
      </trkpt>
      <trkpt lat="44.28163" lon="6.18691">
        <ele>1564.1999511719</ele>
        <time>2021-06-21T06:49:51.279Z</time>
      </trkpt>
      <trkpt lat="44.28131" lon="6.1869">
        <ele>1560.1999511719</ele>
        <time>2021-06-21T06:49:56.853Z</time>
      </trkpt>
      <trkpt lat="44.28053" lon="6.18665">
        <ele>1554.8000488281</ele>
        <time>2021-06-21T06:50:02.456Z</time>
      </trkpt>
      <trkpt lat="44.28038" lon="6.18662">
        <ele>1554.8000488281</ele>
        <time>2021-06-21T06:50:08.065Z</time>
      </trkpt>
      <trkpt lat="44.27986" lon="6.18667">
        <ele>1554.8000488281</ele>
        <time>2021-06-21T06:50:13.693Z</time>
      </trkpt>
      <trkpt lat="44.27979" lon="6.18666">
        <ele>1553.1999511719</ele>
        <time>2021-06-21T06:50:19.324Z</time>
      </trkpt>
      <trkpt lat="44.27974" lon="6.18664">
        <ele>1553.1999511719</ele>
        <time>2021-06-21T06:50:24.957Z</time>
      </trkpt>
      <trkpt lat="44.27967" lon="6.18652">
        <ele>1552.1999511719</ele>
        <time>2021-06-21T06:50:30.593Z</time>
      </trkpt>
      <trkpt lat="44.27967" lon="6.18646">
        <ele>1552.1999511719</ele>
        <time>2021-06-21T06:50:36.231Z</time>
      </trkpt>
      <trkpt lat="44.27974" lon="6.1863">
        <ele>1552.1999511719</ele>
        <time>2021-06-21T06:50:41.874Z</time>
      </trkpt>
      <trkpt lat="44.28017" lon="6.18573">
        <ele>1552.1999511719</ele>
        <time>2021-06-21T06:50:47.539Z</time>
      </trkpt>
      <trkpt lat="44.28062" lon="6.18485">
        <ele>1554</ele>
        <time>2021-06-21T06:50:53.233Z</time>
      </trkpt>
      <trkpt lat="44.28071" lon="6.18462">
        <ele>1554</ele>
        <time>2021-06-21T06:50:58.934Z</time>
      </trkpt>
      <trkpt lat="44.28077" lon="6.18437">
        <ele>1554</ele>
        <time>2021-06-21T06:51:04.642Z</time>
      </trkpt>
      <trkpt lat="44.2808" lon="6.18408">
        <ele>1554</ele>
        <time>2021-06-21T06:51:10.357Z</time>
      </trkpt>
      <trkpt lat="44.28088" lon="6.18378">
        <ele>1550.1999511719</ele>
        <time>2021-06-21T06:51:16.081Z</time>
      </trkpt>
      <trkpt lat="44.28103" lon="6.18351">
        <ele>1550.1999511719</ele>
        <time>2021-06-21T06:51:21.814Z</time>
      </trkpt>
      <trkpt lat="44.28122" lon="6.1833">
        <ele>1547.4000244141</ele>
        <time>2021-06-21T06:51:27.556Z</time>
      </trkpt>
      <trkpt lat="44.28145" lon="6.18316">
        <ele>1545.1999511719</ele>
        <time>2021-06-21T06:51:33.307Z</time>
      </trkpt>
      <trkpt lat="44.28189" lon="6.18308">
        <ele>1542</ele>
        <time>2021-06-21T06:51:39.075Z</time>
      </trkpt>
      <trkpt lat="44.2822" lon="6.18295">
        <ele>1539</ele>
        <time>2021-06-21T06:51:44.854Z</time>
      </trkpt>
      <trkpt lat="44.28226" lon="6.18291">
        <ele>1537.8000488281</ele>
        <time>2021-06-21T06:51:50.636Z</time>
      </trkpt>
      <trkpt lat="44.28236" lon="6.18271">
        <ele>1536.5999755859</ele>
        <time>2021-06-21T06:51:56.424Z</time>
      </trkpt>
      <trkpt lat="44.2825" lon="6.18205">
        <ele>1535.4000244141</ele>
        <time>2021-06-21T06:52:02.231Z</time>
      </trkpt>
      <trkpt lat="44.28243" lon="6.18186">
        <ele>1535.1999511719</ele>
        <time>2021-06-21T06:52:08.043Z</time>
      </trkpt>
      <trkpt lat="44.28231" lon="6.18168">
        <ele>1535.1999511719</ele>
        <time>2021-06-21T06:52:13.862Z</time>
      </trkpt>
      <trkpt lat="44.28221" lon="6.18141">
        <ele>1535.4000244141</ele>
        <time>2021-06-21T06:52:19.689Z</time>
      </trkpt>
      <trkpt lat="44.28215" lon="6.18084">
        <ele>1536.4000244141</ele>
        <time>2021-06-21T06:52:25.531Z</time>
      </trkpt>
      <trkpt lat="44.28217" lon="6.18047">
        <ele>1537</ele>
        <time>2021-06-21T06:52:31.383Z</time>
      </trkpt>
      <trkpt lat="44.28212" lon="6.17947">
        <ele>1538</ele>
        <time>2021-06-21T06:52:37.261Z</time>
      </trkpt>
      <trkpt lat="44.28205" lon="6.17939">
        <ele>1538</ele>
        <time>2021-06-21T06:52:43.143Z</time>
      </trkpt>
      <trkpt lat="44.28196" lon="6.17923">
        <ele>1538.1999511719</ele>
        <time>2021-06-21T06:52:49.030Z</time>
      </trkpt>
      <trkpt lat="44.2818" lon="6.17908">
        <ele>1538.1999511719</ele>
        <time>2021-06-21T06:52:54.924Z</time>
      </trkpt>
      <trkpt lat="44.2817" lon="6.17903">
        <ele>1538.1999511719</ele>
        <time>2021-06-21T06:53:00.822Z</time>
      </trkpt>
      <trkpt lat="44.28173" lon="6.17914">
        <ele>1537.8000488281</ele>
        <time>2021-06-21T06:53:06.723Z</time>
      </trkpt>
      <trkpt lat="44.2819" lon="6.17914">
        <ele>1538.1999511719</ele>
        <time>2021-06-21T06:53:12.630Z</time>
      </trkpt>
      <trkpt lat="44.28201" lon="6.17925">
        <ele>1538.1999511719</ele>
        <time>2021-06-21T06:53:18.542Z</time>
      </trkpt>
      <trkpt lat="44.28208" lon="6.17937">
        <ele>1538.1999511719</ele>
        <time>2021-06-21T06:53:24.458Z</time>
      </trkpt>
      <trkpt lat="44.28213" lon="6.17956">
        <ele>1538.4000244141</ele>
        <time>2021-06-21T06:53:30.380Z</time>
      </trkpt>
      <trkpt lat="44.28217" lon="6.18041">
        <ele>1538.4000244141</ele>
        <time>2021-06-21T06:53:36.324Z</time>
      </trkpt>
      <trkpt lat="44.28215" lon="6.18063">
        <ele>1537.8000488281</ele>
        <time>2021-06-21T06:53:42.274Z</time>
      </trkpt>
      <trkpt lat="44.28217" lon="6.18108">
        <ele>1537.8000488281</ele>
        <time>2021-06-21T06:53:48.236Z</time>
      </trkpt>
      <trkpt lat="44.28225" lon="6.18151">
        <ele>1537.8000488281</ele>
        <time>2021-06-21T06:53:54.210Z</time>
      </trkpt>
      <trkpt lat="44.2825" lon="6.18204">
        <ele>1537.8000488281</ele>
        <time>2021-06-21T06:54:00.201Z</time>
      </trkpt>
      <trkpt lat="44.28248" lon="6.18217">
        <ele>1535.4000244141</ele>
        <time>2021-06-21T06:54:06.195Z</time>
      </trkpt>
      <trkpt lat="44.28242" lon="6.18234">
        <ele>1535.4000244141</ele>
        <time>2021-06-21T06:54:12.194Z</time>
      </trkpt>
      <trkpt lat="44.28235" lon="6.18266">
        <ele>1535.4000244141</ele>
        <time>2021-06-21T06:54:18.202Z</time>
      </trkpt>
      <trkpt lat="44.28224" lon="6.18287">
        <ele>1536.4000244141</ele>
        <time>2021-06-21T06:54:24.217Z</time>
      </trkpt>
      <trkpt lat="44.28219" lon="6.18292">
        <ele>1536.4000244141</ele>
        <time>2021-06-21T06:54:30.234Z</time>
      </trkpt>
      <trkpt lat="44.28206" lon="6.18299">
        <ele>1537.4000244141</ele>
        <time>2021-06-21T06:54:36.256Z</time>
      </trkpt>
      <trkpt lat="44.28184" lon="6.18307">
        <ele>1537.4000244141</ele>
        <time>2021-06-21T06:54:42.286Z</time>
      </trkpt>
      <trkpt lat="44.28171" lon="6.1831">
        <ele>1539.8000488281</ele>
        <time>2021-06-21T06:54:48.322Z</time>
      </trkpt>
      <trkpt lat="44.28154" lon="6.18309">
        <ele>1541.5999755859</ele>
        <time>2021-06-21T06:54:54.364Z</time>
      </trkpt>
      <trkpt lat="44.28136" lon="6.18314">
        <ele>1543.1999511719</ele>
        <time>2021-06-21T06:55:00.412Z</time>
      </trkpt>
      <trkpt lat="44.28116" lon="6.18329">
        <ele>1543.1999511719</ele>
        <time>2021-06-21T06:55:06.469Z</time>
      </trkpt>
      <trkpt lat="44.28099" lon="6.18349">
        <ele>1543.1999511719</ele>
        <time>2021-06-21T06:55:12.534Z</time>
      </trkpt>
      <trkpt lat="44.28085" lon="6.18373">
        <ele>1548</ele>
        <time>2021-06-21T06:55:18.607Z</time>
      </trkpt>
      <trkpt lat="44.28079" lon="6.18399">
        <ele>1548</ele>
        <time>2021-06-21T06:55:24.688Z</time>
      </trkpt>
      <trkpt lat="44.28077" lon="6.18432">
        <ele>1550.4000244141</ele>
        <time>2021-06-21T06:55:30.777Z</time>
      </trkpt>
      <trkpt lat="44.28071" lon="6.18462">
        <ele>1551.1999511719</ele>
        <time>2021-06-21T06:55:36.875Z</time>
      </trkpt>
      <trkpt lat="44.28063" lon="6.18487">
        <ele>1552.1999511719</ele>
        <time>2021-06-21T06:55:42.980Z</time>
      </trkpt>
      <trkpt lat="44.28039" lon="6.18536">
        <ele>1552.1999511719</ele>
        <time>2021-06-21T06:55:49.101Z</time>
      </trkpt>
      <trkpt lat="44.28022" lon="6.18566">
        <ele>1552.1999511719</ele>
        <time>2021-06-21T06:55:55.232Z</time>
      </trkpt>
      <trkpt lat="44.2797" lon="6.18634">
        <ele>1552.1999511719</ele>
        <time>2021-06-21T06:56:01.389Z</time>
      </trkpt>
      <trkpt lat="44.27967" lon="6.18649">
        <ele>1551.4000244141</ele>
        <time>2021-06-21T06:56:07.550Z</time>
      </trkpt>
      <trkpt lat="44.27977" lon="6.18665">
        <ele>1551.4000244141</ele>
        <time>2021-06-21T06:56:13.716Z</time>
      </trkpt>
      <trkpt lat="44.27996" lon="6.18665">
        <ele>1551.4000244141</ele>
        <time>2021-06-21T06:56:19.889Z</time>
      </trkpt>
      <trkpt lat="44.28028" lon="6.18658">
        <ele>1552.5999755859</ele>
        <time>2021-06-21T06:56:26.074Z</time>
      </trkpt>
      <trkpt lat="44.28042" lon="6.18657">
        <ele>1552.8000488281</ele>
        <time>2021-06-21T06:56:32.265Z</time>
      </trkpt>
      <trkpt lat="44.28057" lon="6.1866">
        <ele>1552.8000488281</ele>
        <time>2021-06-21T06:56:38.461Z</time>
      </trkpt>
      <trkpt lat="44.28122" lon="6.18682">
        <ele>1552.8000488281</ele>
        <time>2021-06-21T06:56:44.682Z</time>
      </trkpt>
      <trkpt lat="44.28133" lon="6.18685">
        <ele>1558</ele>
        <time>2021-06-21T06:56:50.907Z</time>
      </trkpt>
      <trkpt lat="44.28151" lon="6.18682">
        <ele>1558</ele>
        <time>2021-06-21T06:56:57.138Z</time>
      </trkpt>
      <trkpt lat="44.2816" lon="6.18683">
        <ele>1560.8000488281</ele>
        <time>2021-06-21T06:57:03.373Z</time>
      </trkpt>
      <trkpt lat="44.28163" lon="6.18685">
        <ele>1560.8000488281</ele>
        <time>2021-06-21T06:57:09.609Z</time>
      </trkpt>
      <trkpt lat="44.28164" lon="6.18693">
        <ele>1561.4000244141</ele>
        <time>2021-06-21T06:57:15.847Z</time>
      </trkpt>
      <trkpt lat="44.28154" lon="6.18716">
        <ele>1561.4000244141</ele>
        <time>2021-06-21T06:57:22.092Z</time>
      </trkpt>
      <trkpt lat="44.2815" lon="6.1873">
        <ele>1564.1999511719</ele>
        <time>2021-06-21T06:57:28.341Z</time>
      </trkpt>
      <trkpt lat="44.28148" lon="6.18748">
        <ele>1564.1999511719</ele>
        <time>2021-06-21T06:57:34.595Z</time>
      </trkpt>
      <trkpt lat="44.28145" lon="6.18756">
        <ele>1566</ele>
        <time>2021-06-21T06:57:40.851Z</time>
      </trkpt>
      <trkpt lat="44.2814" lon="6.18758">
        <ele>1566</ele>
        <time>2021-06-21T06:57:47.109Z</time>
      </trkpt>
      <trkpt lat="44.28138" lon="6.18756">
        <ele>1567</ele>
        <time>2021-06-21T06:57:53.368Z</time>
      </trkpt>
      <trkpt lat="44.28133" lon="6.18741">
        <ele>1568.4000244141</ele>
        <time>2021-06-21T06:57:59.631Z</time>
      </trkpt>
      <trkpt lat="44.28126" lon="6.18735">
        <ele>1569.1999511719</ele>
        <time>2021-06-21T06:58:05.897Z</time>
      </trkpt>
      <trkpt lat="44.28124" lon="6.18735">
        <ele>1569.1999511719</ele>
        <time>2021-06-21T06:58:12.164Z</time>
      </trkpt>
      <trkpt lat="44.28116" lon="6.18739">
        <ele>1569.1999511719</ele>
        <time>2021-06-21T06:58:18.434Z</time>
      </trkpt>
      <trkpt lat="44.28101" lon="6.18759">
        <ele>1572.5999755859</ele>
        <time>2021-06-21T06:58:24.712Z</time>
      </trkpt>
      <trkpt lat="44.28082" lon="6.18791">
        <ele>1572.5999755859</ele>
        <time>2021-06-21T06:58:31.001Z</time>
      </trkpt>
      <trkpt lat="44.28069" lon="6.18823">
        <ele>1576.1999511719</ele>
        <time>2021-06-21T06:58:37.300Z</time>
      </trkpt>
      <trkpt lat="44.28065" lon="6.18844">
        <ele>1577</ele>
        <time>2021-06-21T06:58:43.604Z</time>
      </trkpt>
      <trkpt lat="44.28068" lon="6.18866">
        <ele>1577</ele>
        <time>2021-06-21T06:58:49.914Z</time>
      </trkpt>
      <trkpt lat="44.28067" lon="6.18901">
        <ele>1576.1999511719</ele>
        <time>2021-06-21T06:58:56.233Z</time>
      </trkpt>
      <trkpt lat="44.2807" lon="6.18975">
        <ele>1576.1999511719</ele>
        <time>2021-06-21T06:59:02.572Z</time>
      </trkpt>
      <trkpt lat="44.28067" lon="6.19008">
        <ele>1576.1999511719</ele>
        <time>2021-06-21T06:59:08.920Z</time>
      </trkpt>
      <trkpt lat="44.28063" lon="6.19024">
        <ele>1581.4000244141</ele>
        <time>2021-06-21T06:59:15.273Z</time>
      </trkpt>
      <trkpt lat="44.28046" lon="6.1907">
        <ele>1581.8000488281</ele>
        <time>2021-06-21T06:59:21.639Z</time>
      </trkpt>
      <trkpt lat="44.28029" lon="6.19128">
        <ele>1581.8000488281</ele>
        <time>2021-06-21T06:59:28.022Z</time>
      </trkpt>
      <trkpt lat="44.28025" lon="6.1916">
        <ele>1580.1999511719</ele>
        <time>2021-06-21T06:59:34.413Z</time>
      </trkpt>
      <trkpt lat="44.28028" lon="6.19191">
        <ele>1581.1999511719</ele>
        <time>2021-06-21T06:59:40.813Z</time>
      </trkpt>
      <trkpt lat="44.28027" lon="6.19205">
        <ele>1581.1999511719</ele>
        <time>2021-06-21T06:59:47.216Z</time>
      </trkpt>
      <trkpt lat="44.28025" lon="6.19215">
        <ele>1581.1999511719</ele>
        <time>2021-06-21T06:59:53.622Z</time>
      </trkpt>
      <trkpt lat="44.28019" lon="6.19224">
        <ele>1584.1999511719</ele>
        <time>2021-06-21T07:00:00.031Z</time>
      </trkpt>
      <trkpt lat="44.27988" lon="6.19262">
        <ele>1584.1999511719</ele>
        <time>2021-06-21T07:00:06.456Z</time>
      </trkpt>
      <trkpt lat="44.27969" lon="6.19274">
        <ele>1584.1999511719</ele>
        <time>2021-06-21T07:00:12.888Z</time>
      </trkpt>
      <trkpt lat="44.2795" lon="6.19287">
        <ele>1588</ele>
        <time>2021-06-21T07:00:19.328Z</time>
      </trkpt>
      <trkpt lat="44.27938" lon="6.19304">
        <ele>1588</ele>
        <time>2021-06-21T07:00:25.774Z</time>
      </trkpt>
      <trkpt lat="44.27923" lon="6.19333">
        <ele>1587.5999755859</ele>
        <time>2021-06-21T07:00:32.230Z</time>
      </trkpt>
      <trkpt lat="44.27906" lon="6.19371">
        <ele>1587.4000244141</ele>
        <time>2021-06-21T07:00:38.698Z</time>
      </trkpt>
      <trkpt lat="44.27899" lon="6.19394">
        <ele>1587.4000244141</ele>
        <time>2021-06-21T07:00:45.172Z</time>
      </trkpt>
      <trkpt lat="44.27879" lon="6.19479">
        <ele>1587.4000244141</ele>
        <time>2021-06-21T07:00:51.670Z</time>
      </trkpt>
      <trkpt lat="44.27861" lon="6.19528">
        <ele>1587.4000244141</ele>
        <time>2021-06-21T07:00:58.183Z</time>
      </trkpt>
      <trkpt lat="44.27856" lon="6.19552">
        <ele>1587.4000244141</ele>
        <time>2021-06-21T07:01:04.702Z</time>
      </trkpt>
      <trkpt lat="44.27843" lon="6.19582">
        <ele>1584.8000488281</ele>
        <time>2021-06-21T07:01:11.230Z</time>
      </trkpt>
      <trkpt lat="44.2784" lon="6.19594">
        <ele>1584.8000488281</ele>
        <time>2021-06-21T07:01:17.762Z</time>
      </trkpt>
      <trkpt lat="44.2784" lon="6.1961">
        <ele>1582.8000488281</ele>
        <time>2021-06-21T07:01:24.298Z</time>
      </trkpt>
      <trkpt lat="44.27835" lon="6.19624">
        <ele>1582.8000488281</ele>
        <time>2021-06-21T07:01:30.838Z</time>
      </trkpt>
      <trkpt lat="44.27838" lon="6.19664">
        <ele>1581.4000244141</ele>
        <time>2021-06-21T07:01:37.389Z</time>
      </trkpt>
      <trkpt lat="44.27844" lon="6.19687">
        <ele>1581.4000244141</ele>
        <time>2021-06-21T07:01:43.946Z</time>
      </trkpt>
      <trkpt lat="44.27853" lon="6.19701">
        <ele>1581.4000244141</ele>
        <time>2021-06-21T07:01:50.509Z</time>
      </trkpt>
      <trkpt lat="44.27872" lon="6.19742">
        <ele>1583.1999511719</ele>
        <time>2021-06-21T07:01:57.084Z</time>
      </trkpt>
      <trkpt lat="44.27879" lon="6.19765">
        <ele>1583.1999511719</ele>
        <time>2021-06-21T07:02:03.666Z</time>
      </trkpt>
      <trkpt lat="44.27874" lon="6.19785">
        <ele>1583.1999511719</ele>
        <time>2021-06-21T07:02:10.253Z</time>
      </trkpt>
      <trkpt lat="44.27858" lon="6.19816">
        <ele>1583.1999511719</ele>
        <time>2021-06-21T07:02:16.850Z</time>
      </trkpt>
      <trkpt lat="44.27846" lon="6.19847">
        <ele>1583.1999511719</ele>
        <time>2021-06-21T07:02:23.457Z</time>
      </trkpt>
      <trkpt lat="44.27829" lon="6.19879">
        <ele>1581.5999755859</ele>
        <time>2021-06-21T07:02:30.074Z</time>
      </trkpt>
      <trkpt lat="44.27818" lon="6.19891">
        <ele>1581.4000244141</ele>
        <time>2021-06-21T07:02:36.696Z</time>
      </trkpt>
      <trkpt lat="44.27814" lon="6.19899">
        <ele>1581.4000244141</ele>
        <time>2021-06-21T07:02:43.321Z</time>
      </trkpt>
      <trkpt lat="44.27806" lon="6.19919">
        <ele>1581</ele>
        <time>2021-06-21T07:02:49.952Z</time>
      </trkpt>
      <trkpt lat="44.27793" lon="6.19928">
        <ele>1578.8000488281</ele>
        <time>2021-06-21T07:02:56.588Z</time>
      </trkpt>
      <trkpt lat="44.27784" lon="6.1993">
        <ele>1577.4000244141</ele>
        <time>2021-06-21T07:03:03.228Z</time>
      </trkpt>
      <trkpt lat="44.27765" lon="6.19938">
        <ele>1577.4000244141</ele>
        <time>2021-06-21T07:03:09.875Z</time>
      </trkpt>
      <trkpt lat="44.27755" lon="6.19934">
        <ele>1574</ele>
        <time>2021-06-21T07:03:16.526Z</time>
      </trkpt>
      <trkpt lat="44.2775" lon="6.19936">
        <ele>1573.4000244141</ele>
        <time>2021-06-21T07:03:23.179Z</time>
      </trkpt>
      <trkpt lat="44.27748" lon="6.19949">
        <ele>1573</ele>
        <time>2021-06-21T07:03:29.835Z</time>
      </trkpt>
      <trkpt lat="44.27749" lon="6.19983">
        <ele>1573.8000488281</ele>
        <time>2021-06-21T07:03:36.500Z</time>
      </trkpt>
      <trkpt lat="44.27747" lon="6.20022">
        <ele>1573.8000488281</ele>
        <time>2021-06-21T07:03:43.176Z</time>
      </trkpt>
      <trkpt lat="44.27752" lon="6.20041">
        <ele>1574</ele>
        <time>2021-06-21T07:03:49.857Z</time>
      </trkpt>
      <trkpt lat="44.27766" lon="6.20057">
        <ele>1574.5999755859</ele>
        <time>2021-06-21T07:03:56.545Z</time>
      </trkpt>
      <trkpt lat="44.27771" lon="6.20069">
        <ele>1574.5999755859</ele>
        <time>2021-06-21T07:04:03.236Z</time>
      </trkpt>
      <trkpt lat="44.27773" lon="6.20081">
        <ele>1574.5999755859</ele>
        <time>2021-06-21T07:04:09.931Z</time>
      </trkpt>
      <trkpt lat="44.27772" lon="6.20095">
        <ele>1577.5999755859</ele>
        <time>2021-06-21T07:04:16.629Z</time>
      </trkpt>
      <trkpt lat="44.27765" lon="6.20125">
        <ele>1578.4000244141</ele>
        <time>2021-06-21T07:04:23.336Z</time>
      </trkpt>
      <trkpt lat="44.27752" lon="6.20154">
        <ele>1578.4000244141</ele>
        <time>2021-06-21T07:04:30.052Z</time>
      </trkpt>
      <trkpt lat="44.27742" lon="6.20172">
        <ele>1579.1999511719</ele>
        <time>2021-06-21T07:04:36.774Z</time>
      </trkpt>
      <trkpt lat="44.27735" lon="6.2019">
        <ele>1579.1999511719</ele>
        <time>2021-06-21T07:04:43.501Z</time>
      </trkpt>
      <trkpt lat="44.27735" lon="6.20219">
        <ele>1579.1999511719</ele>
        <time>2021-06-21T07:04:50.236Z</time>
      </trkpt>
      <trkpt lat="44.27728" lon="6.20246">
        <ele>1582</ele>
        <time>2021-06-21T07:04:56.978Z</time>
      </trkpt>
      <trkpt lat="44.27724" lon="6.20275">
        <ele>1582</ele>
        <time>2021-06-21T07:05:03.728Z</time>
      </trkpt>
      <trkpt lat="44.27716" lon="6.203">
        <ele>1584.4000244141</ele>
        <time>2021-06-21T07:05:10.485Z</time>
      </trkpt>
      <trkpt lat="44.27709" lon="6.20317">
        <ele>1584.4000244141</ele>
        <time>2021-06-21T07:05:17.248Z</time>
      </trkpt>
      <trkpt lat="44.27692" lon="6.20339">
        <ele>1586.4000244141</ele>
        <time>2021-06-21T07:05:24.019Z</time>
      </trkpt>
      <trkpt lat="44.27657" lon="6.20391">
        <ele>1586.4000244141</ele>
        <time>2021-06-21T07:05:30.809Z</time>
      </trkpt>
      <trkpt lat="44.2765" lon="6.20407">
        <ele>1586.4000244141</ele>
        <time>2021-06-21T07:05:37.604Z</time>
      </trkpt>
      <trkpt lat="44.27638" lon="6.20421">
        <ele>1586.4000244141</ele>
        <time>2021-06-21T07:05:44.405Z</time>
      </trkpt>
      <trkpt lat="44.27613" lon="6.20455">
        <ele>1586.4000244141</ele>
        <time>2021-06-21T07:05:51.219Z</time>
      </trkpt>
      <trkpt lat="44.27605" lon="6.20476">
        <ele>1586.4000244141</ele>
        <time>2021-06-21T07:05:58.039Z</time>
      </trkpt>
      <trkpt lat="44.27596" lon="6.20484">
        <ele>1595</ele>
        <time>2021-06-21T07:06:04.863Z</time>
      </trkpt>
      <trkpt lat="44.27592" lon="6.20491">
        <ele>1595</ele>
        <time>2021-06-21T07:06:11.689Z</time>
      </trkpt>
      <trkpt lat="44.27593" lon="6.205">
        <ele>1595</ele>
        <time>2021-06-21T07:06:18.518Z</time>
      </trkpt>
      <trkpt lat="44.27589" lon="6.20513">
        <ele>1595</ele>
        <time>2021-06-21T07:06:25.350Z</time>
      </trkpt>
      <trkpt lat="44.27574" lon="6.20541">
        <ele>1600</ele>
        <time>2021-06-21T07:06:32.192Z</time>
      </trkpt>
      <trkpt lat="44.27553" lon="6.20592">
        <ele>1603.4000244141</ele>
        <time>2021-06-21T07:06:39.049Z</time>
      </trkpt>
      <trkpt lat="44.27544" lon="6.2061">
        <ele>1604.5999755859</ele>
        <time>2021-06-21T07:06:45.912Z</time>
      </trkpt>
      <trkpt lat="44.27531" lon="6.20625">
        <ele>1605.8000488281</ele>
        <time>2021-06-21T07:06:52.781Z</time>
      </trkpt>
      <trkpt lat="44.27509" lon="6.2064">
        <ele>1606</ele>
        <time>2021-06-21T07:06:59.659Z</time>
      </trkpt>
      <trkpt lat="44.27501" lon="6.20658">
        <ele>1608</ele>
        <time>2021-06-21T07:07:06.543Z</time>
      </trkpt>
      <trkpt lat="44.27486" lon="6.2067">
        <ele>1608</ele>
        <time>2021-06-21T07:07:13.433Z</time>
      </trkpt>
      <trkpt lat="44.2747" lon="6.20677">
        <ele>1608</ele>
        <time>2021-06-21T07:07:20.329Z</time>
      </trkpt>
      <trkpt lat="44.2744" lon="6.20685">
        <ele>1612</ele>
        <time>2021-06-21T07:07:27.237Z</time>
      </trkpt>
      <trkpt lat="44.27436" lon="6.20693">
        <ele>1612</ele>
        <time>2021-06-21T07:07:34.147Z</time>
      </trkpt>
      <trkpt lat="44.27433" lon="6.20721">
        <ele>1612</ele>
        <time>2021-06-21T07:07:41.065Z</time>
      </trkpt>
      <trkpt lat="44.27429" lon="6.2073">
        <ele>1612</ele>
        <time>2021-06-21T07:07:47.986Z</time>
      </trkpt>
      <trkpt lat="44.27422" lon="6.20741">
        <ele>1612</ele>
        <time>2021-06-21T07:07:54.911Z</time>
      </trkpt>
      <trkpt lat="44.27397" lon="6.20763">
        <ele>1612</ele>
        <time>2021-06-21T07:08:01.846Z</time>
      </trkpt>
      <trkpt lat="44.27386" lon="6.20777">
        <ele>1612</ele>
        <time>2021-06-21T07:08:08.787Z</time>
      </trkpt>
      <trkpt lat="44.27363" lon="6.208">
        <ele>1632.8000488281</ele>
        <time>2021-06-21T07:08:15.738Z</time>
      </trkpt>
      <trkpt lat="44.27359" lon="6.2081">
        <ele>1634.4000244141</ele>
        <time>2021-06-21T07:08:22.693Z</time>
      </trkpt>
      <trkpt lat="44.27355" lon="6.2081">
        <ele>1634.4000244141</ele>
        <time>2021-06-21T07:08:29.649Z</time>
      </trkpt>
      <trkpt lat="44.27352" lon="6.20807">
        <ele>1636.4000244141</ele>
        <time>2021-06-21T07:08:36.606Z</time>
      </trkpt>
      <trkpt lat="44.27339" lon="6.20807">
        <ele>1636.4000244141</ele>
        <time>2021-06-21T07:08:43.568Z</time>
      </trkpt>
      <trkpt lat="44.27325" lon="6.20813">
        <ele>1636.4000244141</ele>
        <time>2021-06-21T07:08:50.536Z</time>
      </trkpt>
      <trkpt lat="44.27299" lon="6.20848">
        <ele>1636.4000244141</ele>
        <time>2021-06-21T07:08:57.517Z</time>
      </trkpt>
      <trkpt lat="44.27283" lon="6.20876">
        <ele>1636.4000244141</ele>
        <time>2021-06-21T07:09:04.507Z</time>
      </trkpt>
      <trkpt lat="44.27279" lon="6.20886">
        <ele>1636.4000244141</ele>
        <time>2021-06-21T07:09:11.500Z</time>
      </trkpt>
      <trkpt lat="44.27278" lon="6.20899">
        <ele>1636.4000244141</ele>
        <time>2021-06-21T07:09:18.497Z</time>
      </trkpt>
      <trkpt lat="44.27279" lon="6.20932">
        <ele>1636.4000244141</ele>
        <time>2021-06-21T07:09:25.503Z</time>
      </trkpt>
      <trkpt lat="44.27278" lon="6.20948">
        <ele>1665.5999755859</ele>
        <time>2021-06-21T07:09:32.513Z</time>
      </trkpt>
      <trkpt lat="44.2727" lon="6.20971">
        <ele>1670.4000244141</ele>
        <time>2021-06-21T07:09:39.529Z</time>
      </trkpt>
      <trkpt lat="44.27268" lon="6.20998">
        <ele>1670.4000244141</ele>
        <time>2021-06-21T07:09:46.553Z</time>
      </trkpt>
      <trkpt lat="44.27263" lon="6.21005">
        <ele>1673.5999755859</ele>
        <time>2021-06-21T07:09:53.579Z</time>
      </trkpt>
      <trkpt lat="44.27241" lon="6.21013">
        <ele>1673.5999755859</ele>
        <time>2021-06-21T07:10:00.614Z</time>
      </trkpt>
      <trkpt lat="44.27227" lon="6.21026">
        <ele>1673.5999755859</ele>
        <time>2021-06-21T07:10:07.655Z</time>
      </trkpt>
      <trkpt lat="44.27221" lon="6.21029">
        <ele>1673.5999755859</ele>
        <time>2021-06-21T07:10:14.698Z</time>
      </trkpt>
      <trkpt lat="44.27207" lon="6.21047">
        <ele>1674.5999755859</ele>
        <time>2021-06-21T07:10:21.748Z</time>
      </trkpt>
      <trkpt lat="44.27194" lon="6.21053">
        <ele>1674.5999755859</ele>
        <time>2021-06-21T07:10:28.803Z</time>
      </trkpt>
      <trkpt lat="44.27175" lon="6.21068">
        <ele>1673.5999755859</ele>
        <time>2021-06-21T07:10:35.867Z</time>
      </trkpt>
      <trkpt lat="44.27141" lon="6.21086">
        <ele>1673.5999755859</ele>
        <time>2021-06-21T07:10:42.944Z</time>
      </trkpt>
      <trkpt lat="44.27132" lon="6.21096">
        <ele>1673.5999755859</ele>
        <time>2021-06-21T07:10:50.025Z</time>
      </trkpt>
      <trkpt lat="44.27115" lon="6.21108">
        <ele>1673.5999755859</ele>
        <time>2021-06-21T07:10:57.113Z</time>
      </trkpt>
      <trkpt lat="44.27104" lon="6.21118">
        <ele>1674.5999755859</ele>
        <time>2021-06-21T07:11:04.206Z</time>
      </trkpt>
      <trkpt lat="44.27078" lon="6.21136">
        <ele>1674.5999755859</ele>
        <time>2021-06-21T07:11:11.310Z</time>
      </trkpt>
      <trkpt lat="44.27064" lon="6.21153">
        <ele>1674.5999755859</ele>
        <time>2021-06-21T07:11:18.421Z</time>
      </trkpt>
      <trkpt lat="44.27055" lon="6.21167">
        <ele>1680</ele>
        <time>2021-06-21T07:11:25.536Z</time>
      </trkpt>
      <trkpt lat="44.27049" lon="6.2118">
        <ele>1681.4000244141</ele>
        <time>2021-06-21T07:11:32.656Z</time>
      </trkpt>
      <trkpt lat="44.27034" lon="6.21228">
        <ele>1681.4000244141</ele>
        <time>2021-06-21T07:11:39.789Z</time>
      </trkpt>
      <trkpt lat="44.27031" lon="6.21247">
        <ele>1689.5999755859</ele>
        <time>2021-06-21T07:11:46.928Z</time>
      </trkpt>
      <trkpt lat="44.27024" lon="6.21258">
        <ele>1689.5999755859</ele>
        <time>2021-06-21T07:11:54.070Z</time>
      </trkpt>
      <trkpt lat="44.27017" lon="6.21265">
        <ele>1692.5999755859</ele>
        <time>2021-06-21T07:12:01.216Z</time>
      </trkpt>
      <trkpt lat="44.27012" lon="6.21285">
        <ele>1694</ele>
        <time>2021-06-21T07:12:08.367Z</time>
      </trkpt>
      <trkpt lat="44.27008" lon="6.21295">
        <ele>1694</ele>
        <time>2021-06-21T07:12:15.521Z</time>
      </trkpt>
      <trkpt lat="44.26997" lon="6.2131">
        <ele>1694</ele>
        <time>2021-06-21T07:12:22.681Z</time>
      </trkpt>
      <trkpt lat="44.2699" lon="6.21325">
        <ele>1695.4000244141</ele>
        <time>2021-06-21T07:12:29.846Z</time>
      </trkpt>
      <trkpt lat="44.26977" lon="6.21345">
        <ele>1696.1999511719</ele>
        <time>2021-06-21T07:12:37.018Z</time>
      </trkpt>
      <trkpt lat="44.26965" lon="6.21353">
        <ele>1696.1999511719</ele>
        <time>2021-06-21T07:12:44.195Z</time>
      </trkpt>
      <trkpt lat="44.26951" lon="6.21356">
        <ele>1695</ele>
        <time>2021-06-21T07:12:51.377Z</time>
      </trkpt>
      <trkpt lat="44.26934" lon="6.21367">
        <ele>1695</ele>
        <time>2021-06-21T07:12:58.566Z</time>
      </trkpt>
      <trkpt lat="44.26912" lon="6.21374">
        <ele>1695</ele>
        <time>2021-06-21T07:13:05.763Z</time>
      </trkpt>
      <trkpt lat="44.26897" lon="6.21382">
        <ele>1695</ele>
        <time>2021-06-21T07:13:12.966Z</time>
      </trkpt>
      <trkpt lat="44.26887" lon="6.21383">
        <ele>1695</ele>
        <time>2021-06-21T07:13:20.173Z</time>
      </trkpt>
      <trkpt lat="44.26867" lon="6.21394">
        <ele>1695</ele>
        <time>2021-06-21T07:13:27.388Z</time>
      </trkpt>
      <trkpt lat="44.26851" lon="6.21396">
        <ele>1692.1999511719</ele>
        <time>2021-06-21T07:13:34.608Z</time>
      </trkpt>
      <trkpt lat="44.26821" lon="6.2139">
        <ele>1691.5999755859</ele>
        <time>2021-06-21T07:13:41.840Z</time>
      </trkpt>
      <trkpt lat="44.26814" lon="6.21387">
        <ele>1690.4000244141</ele>
        <time>2021-06-21T07:13:49.075Z</time>
      </trkpt>
      <trkpt lat="44.26804" lon="6.21379">
        <ele>1689.1999511719</ele>
        <time>2021-06-21T07:13:56.314Z</time>
      </trkpt>
      <trkpt lat="44.26781" lon="6.21375">
        <ele>1690.4000244141</ele>
        <time>2021-06-21T07:14:03.561Z</time>
      </trkpt>
      <trkpt lat="44.267" lon="6.21357">
        <ele>1690.4000244141</ele>
        <time>2021-06-21T07:14:10.839Z</time>
      </trkpt>
      <trkpt lat="44.2669" lon="6.21347">
        <ele>1690.4000244141</ele>
        <time>2021-06-21T07:14:18.121Z</time>
      </trkpt>
      <trkpt lat="44.26676" lon="6.2134">
        <ele>1694.5999755859</ele>
        <time>2021-06-21T07:14:25.409Z</time>
      </trkpt>
      <trkpt lat="44.26659" lon="6.21323">
        <ele>1694.5999755859</ele>
        <time>2021-06-21T07:14:32.704Z</time>
      </trkpt>
      <trkpt lat="44.26654" lon="6.21319">
        <ele>1692.1999511719</ele>
        <time>2021-06-21T07:14:40.001Z</time>
      </trkpt>
      <trkpt lat="44.2662" lon="6.21302">
        <ele>1692.1999511719</ele>
        <time>2021-06-21T07:14:47.312Z</time>
      </trkpt>
      <trkpt lat="44.26591" lon="6.213">
        <ele>1685.8000488281</ele>
        <time>2021-06-21T07:14:54.633Z</time>
      </trkpt>
      <trkpt lat="44.26579" lon="6.21302">
        <ele>1685.8000488281</ele>
        <time>2021-06-21T07:15:01.959Z</time>
      </trkpt>
      <trkpt lat="44.26557" lon="6.2131">
        <ele>1684.4000244141</ele>
        <time>2021-06-21T07:15:09.293Z</time>
      </trkpt>
      <trkpt lat="44.26535" lon="6.21322">
        <ele>1684.4000244141</ele>
        <time>2021-06-21T07:15:16.636Z</time>
      </trkpt>
      <trkpt lat="44.26513" lon="6.2135">
        <ele>1681.1999511719</ele>
        <time>2021-06-21T07:15:23.990Z</time>
      </trkpt>
      <trkpt lat="44.265" lon="6.2137">
        <ele>1681.1999511719</ele>
        <time>2021-06-21T07:15:31.351Z</time>
      </trkpt>
      <trkpt lat="44.26478" lon="6.21396">
        <ele>1681.1999511719</ele>
        <time>2021-06-21T07:15:38.722Z</time>
      </trkpt>
      <trkpt lat="44.26467" lon="6.21399">
        <ele>1677.8000488281</ele>
        <time>2021-06-21T07:15:46.098Z</time>
      </trkpt>
      <trkpt lat="44.26451" lon="6.21408">
        <ele>1680.1999511719</ele>
        <time>2021-06-21T07:15:53.480Z</time>
      </trkpt>
      <trkpt lat="44.26447" lon="6.21418">
        <ele>1680.1999511719</ele>
        <time>2021-06-21T07:16:00.865Z</time>
      </trkpt>
      <trkpt lat="44.26446" lon="6.2143">
        <ele>1682</ele>
        <time>2021-06-21T07:16:08.253Z</time>
      </trkpt>
      <trkpt lat="44.26442" lon="6.21439">
        <ele>1682</ele>
        <time>2021-06-21T07:16:15.644Z</time>
      </trkpt>
      <trkpt lat="44.26433" lon="6.21452">
        <ele>1685.5999755859</ele>
        <time>2021-06-21T07:16:23.040Z</time>
      </trkpt>
      <trkpt lat="44.26419" lon="6.2146">
        <ele>1685.5999755859</ele>
        <time>2021-06-21T07:16:30.441Z</time>
      </trkpt>
      <trkpt lat="44.26396" lon="6.21463">
        <ele>1690</ele>
        <time>2021-06-21T07:16:37.851Z</time>
      </trkpt>
      <trkpt lat="44.26389" lon="6.21472">
        <ele>1691.1999511719</ele>
        <time>2021-06-21T07:16:45.264Z</time>
      </trkpt>
      <trkpt lat="44.26376" lon="6.21481">
        <ele>1693</ele>
        <time>2021-06-21T07:16:52.683Z</time>
      </trkpt>
      <trkpt lat="44.26363" lon="6.21496">
        <ele>1693</ele>
        <time>2021-06-21T07:17:00.108Z</time>
      </trkpt>
      <trkpt lat="44.26359" lon="6.21496">
        <ele>1693</ele>
        <time>2021-06-21T07:17:07.534Z</time>
      </trkpt>
      <trkpt lat="44.26358" lon="6.21492">
        <ele>1696.4000244141</ele>
        <time>2021-06-21T07:17:14.962Z</time>
      </trkpt>
      <trkpt lat="44.26374" lon="6.21458">
        <ele>1696.4000244141</ele>
        <time>2021-06-21T07:17:22.400Z</time>
      </trkpt>
      <trkpt lat="44.26376" lon="6.21435">
        <ele>1696.4000244141</ele>
        <time>2021-06-21T07:17:29.845Z</time>
      </trkpt>
      <trkpt lat="44.26402" lon="6.21413">
        <ele>1703.5999755859</ele>
        <time>2021-06-21T07:17:37.301Z</time>
      </trkpt>
      <trkpt lat="44.26407" lon="6.21408">
        <ele>1703.5999755859</ele>
        <time>2021-06-21T07:17:44.759Z</time>
      </trkpt>
      <trkpt lat="44.26407" lon="6.21406">
        <ele>1704.1999511719</ele>
        <time>2021-06-21T07:17:52.218Z</time>
      </trkpt>
      <trkpt lat="44.26403" lon="6.21404">
        <ele>1704.1999511719</ele>
        <time>2021-06-21T07:17:59.678Z</time>
      </trkpt>
      <trkpt lat="44.26396" lon="6.21406">
        <ele>1704.1999511719</ele>
        <time>2021-06-21T07:18:07.141Z</time>
      </trkpt>
      <trkpt lat="44.2637" lon="6.21399">
        <ele>1710</ele>
        <time>2021-06-21T07:18:14.614Z</time>
      </trkpt>
      <trkpt lat="44.26354" lon="6.21399">
        <ele>1710</ele>
        <time>2021-06-21T07:18:22.092Z</time>
      </trkpt>
      <trkpt lat="44.26348" lon="6.21401">
        <ele>1712.4000244141</ele>
        <time>2021-06-21T07:18:29.573Z</time>
      </trkpt>
      <trkpt lat="44.2634" lon="6.21415">
        <ele>1712.4000244141</ele>
        <time>2021-06-21T07:18:37.059Z</time>
      </trkpt>
      <trkpt lat="44.26335" lon="6.2142">
        <ele>1712.4000244141</ele>
        <time>2021-06-21T07:18:44.547Z</time>
      </trkpt>
      <trkpt lat="44.26316" lon="6.21429">
        <ele>1719</ele>
        <time>2021-06-21T07:18:52.042Z</time>
      </trkpt>
      <trkpt lat="44.26308" lon="6.21436">
        <ele>1720</ele>
        <time>2021-06-21T07:18:59.541Z</time>
      </trkpt>
      <trkpt lat="44.26294" lon="6.21461">
        <ele>1720</ele>
        <time>2021-06-21T07:19:07.048Z</time>
      </trkpt>
      <trkpt lat="44.26278" lon="6.21509">
        <ele>1729.1999511719</ele>
        <time>2021-06-21T07:19:14.569Z</time>
      </trkpt>
      <trkpt lat="44.26275" lon="6.21543">
        <ele>1729.1999511719</ele>
        <time>2021-06-21T07:19:22.099Z</time>
      </trkpt>
      <trkpt lat="44.26276" lon="6.21565">
        <ele>1735.1999511719</ele>
        <time>2021-06-21T07:19:29.635Z</time>
      </trkpt>
      <trkpt lat="44.26279" lon="6.21585">
        <ele>1737</ele>
        <time>2021-06-21T07:19:37.177Z</time>
      </trkpt>
      <trkpt lat="44.26285" lon="6.21604">
        <ele>1737</ele>
        <time>2021-06-21T07:19:44.724Z</time>
      </trkpt>
      <trkpt lat="44.26286" lon="6.21617">
        <ele>1737</ele>
        <time>2021-06-21T07:19:52.275Z</time>
      </trkpt>
      <trkpt lat="44.26282" lon="6.21641">
        <ele>1742.5999755859</ele>
        <time>2021-06-21T07:19:59.832Z</time>
      </trkpt>
      <trkpt lat="44.26277" lon="6.21662">
        <ele>1742.5999755859</ele>
        <time>2021-06-21T07:20:07.395Z</time>
      </trkpt>
      <trkpt lat="44.26272" lon="6.21669">
        <ele>1745.5999755859</ele>
        <time>2021-06-21T07:20:14.960Z</time>
      </trkpt>
      <trkpt lat="44.26263" lon="6.21671">
        <ele>1746.5999755859</ele>
        <time>2021-06-21T07:20:22.529Z</time>
      </trkpt>
      <trkpt lat="44.26259" lon="6.21676">
        <ele>1747.5999755859</ele>
        <time>2021-06-21T07:20:30.100Z</time>
      </trkpt>
      <trkpt lat="44.26248" lon="6.21684">
        <ele>1749</ele>
        <time>2021-06-21T07:20:37.675Z</time>
      </trkpt>
      <trkpt lat="44.26245" lon="6.21689">
        <ele>1749</ele>
        <time>2021-06-21T07:20:45.252Z</time>
      </trkpt>
      <trkpt lat="44.2624" lon="6.21704">
        <ele>1749</ele>
        <time>2021-06-21T07:20:52.834Z</time>
      </trkpt>
      <trkpt lat="44.26215" lon="6.2174">
        <ele>1749</ele>
        <time>2021-06-21T07:21:00.429Z</time>
      </trkpt>
      <trkpt lat="44.26211" lon="6.21754">
        <ele>1748.8000488281</ele>
        <time>2021-06-21T07:21:08.028Z</time>
      </trkpt>
      <trkpt lat="44.26212" lon="6.21789">
        <ele>1747</ele>
        <time>2021-06-21T07:21:15.636Z</time>
      </trkpt>
      <trkpt lat="44.26208" lon="6.21838">
        <ele>1742.1999511719</ele>
        <time>2021-06-21T07:21:23.257Z</time>
      </trkpt>
      <trkpt lat="44.26203" lon="6.21878">
        <ele>1738.4000244141</ele>
        <time>2021-06-21T07:21:30.889Z</time>
      </trkpt>
      <trkpt lat="44.26207" lon="6.21879">
        <ele>1738.4000244141</ele>
        <time>2021-06-21T07:21:38.523Z</time>
      </trkpt>
      <trkpt lat="44.26214" lon="6.21879">
        <ele>1737.8000488281</ele>
        <time>2021-06-21T07:21:46.159Z</time>
      </trkpt>
      <trkpt lat="44.26226" lon="6.21862">
        <ele>1737.8000488281</ele>
        <time>2021-06-21T07:21:53.801Z</time>
      </trkpt>
      <trkpt lat="44.26239" lon="6.21855">
        <ele>1738.4000244141</ele>
        <time>2021-06-21T07:22:01.449Z</time>
      </trkpt>
      <trkpt lat="44.26249" lon="6.21858">
        <ele>1739</ele>
        <time>2021-06-21T07:22:09.100Z</time>
      </trkpt>
      <trkpt lat="44.2626" lon="6.21869">
        <ele>1739</ele>
        <time>2021-06-21T07:22:16.756Z</time>
      </trkpt>
      <trkpt lat="44.2627" lon="6.21882">
        <ele>1742.1999511719</ele>
        <time>2021-06-21T07:22:24.417Z</time>
      </trkpt>
      <trkpt lat="44.26289" lon="6.219">
        <ele>1742.1999511719</ele>
        <time>2021-06-21T07:22:32.087Z</time>
      </trkpt>
      <trkpt lat="44.26295" lon="6.219">
        <ele>1745.8000488281</ele>
        <time>2021-06-21T07:22:39.759Z</time>
      </trkpt>
      <trkpt lat="44.26304" lon="6.21893">
        <ele>1745.8000488281</ele>
        <time>2021-06-21T07:22:47.435Z</time>
      </trkpt>
      <trkpt lat="44.26308" lon="6.21894">
        <ele>1749.5999755859</ele>
        <time>2021-06-21T07:22:55.112Z</time>
      </trkpt>
      <trkpt lat="44.26312" lon="6.21901">
        <ele>1750.8000488281</ele>
        <time>2021-06-21T07:23:02.791Z</time>
      </trkpt>
      <trkpt lat="44.26318" lon="6.21904">
        <ele>1750.8000488281</ele>
        <time>2021-06-21T07:23:10.473Z</time>
      </trkpt>
      <trkpt lat="44.26323" lon="6.21902">
        <ele>1754</ele>
        <time>2021-06-21T07:23:18.157Z</time>
      </trkpt>
      <trkpt lat="44.26326" lon="6.21904">
        <ele>1754</ele>
        <time>2021-06-21T07:23:25.842Z</time>
      </trkpt>
      <trkpt lat="44.26332" lon="6.21913">
        <ele>1756.5999755859</ele>
        <time>2021-06-21T07:23:33.530Z</time>
      </trkpt>
      <trkpt lat="44.26333" lon="6.21928">
        <ele>1756.5999755859</ele>
        <time>2021-06-21T07:23:41.222Z</time>
      </trkpt>
      <trkpt lat="44.26335" lon="6.21931">
        <ele>1756.5999755859</ele>
        <time>2021-06-21T07:23:48.916Z</time>
      </trkpt>
      <trkpt lat="44.26334" lon="6.21938">
        <ele>1756.5999755859</ele>
        <time>2021-06-21T07:23:56.612Z</time>
      </trkpt>
      <trkpt lat="44.26326" lon="6.21946">
        <ele>1756.5999755859</ele>
        <time>2021-06-21T07:24:04.311Z</time>
      </trkpt>
      <trkpt lat="44.26319" lon="6.21959">
        <ele>1755.5999755859</ele>
        <time>2021-06-21T07:24:12.015Z</time>
      </trkpt>
      <trkpt lat="44.2631" lon="6.21989">
        <ele>1755.4000244141</ele>
        <time>2021-06-21T07:24:19.727Z</time>
      </trkpt>
      <trkpt lat="44.26314" lon="6.22019">
        <ele>1755</ele>
        <time>2021-06-21T07:24:27.447Z</time>
      </trkpt>
      <trkpt lat="44.26313" lon="6.22036">
        <ele>1755</ele>
        <time>2021-06-21T07:24:35.172Z</time>
      </trkpt>
      <trkpt lat="44.26314" lon="6.22044">
        <ele>1755.5999755859</ele>
        <time>2021-06-21T07:24:42.899Z</time>
      </trkpt>
      <trkpt lat="44.26318" lon="6.22034">
        <ele>1755.5999755859</ele>
        <time>2021-06-21T07:24:50.629Z</time>
      </trkpt>
      <trkpt lat="44.26318" lon="6.2202">
        <ele>1755.4000244141</ele>
        <time>2021-06-21T07:24:58.363Z</time>
      </trkpt>
      <trkpt lat="44.26315" lon="6.21993">
        <ele>1755.4000244141</ele>
        <time>2021-06-21T07:25:06.104Z</time>
      </trkpt>
      <trkpt lat="44.26315" lon="6.21969">
        <ele>1755.4000244141</ele>
        <time>2021-06-21T07:25:13.851Z</time>
      </trkpt>
      <trkpt lat="44.26319" lon="6.21951">
        <ele>1757.4000244141</ele>
        <time>2021-06-21T07:25:21.603Z</time>
      </trkpt>
      <trkpt lat="44.26328" lon="6.21923">
        <ele>1758.4000244141</ele>
        <time>2021-06-21T07:25:29.363Z</time>
      </trkpt>
      <trkpt lat="44.26329" lon="6.21907">
        <ele>1758.4000244141</ele>
        <time>2021-06-21T07:25:37.128Z</time>
      </trkpt>
      <trkpt lat="44.26325" lon="6.21876">
        <ele>1760</ele>
        <time>2021-06-21T07:25:44.901Z</time>
      </trkpt>
      <trkpt lat="44.26308" lon="6.21799">
        <ele>1760</ele>
        <time>2021-06-21T07:25:52.695Z</time>
      </trkpt>
      <trkpt lat="44.26295" lon="6.21761">
        <ele>1760</ele>
        <time>2021-06-21T07:26:00.501Z</time>
      </trkpt>
      <trkpt lat="44.26235" lon="6.21635">
        <ele>1760</ele>
        <time>2021-06-21T07:26:08.346Z</time>
      </trkpt>
      <trkpt lat="44.26228" lon="6.21614">
        <ele>1754.5999755859</ele>
        <time>2021-06-21T07:26:16.198Z</time>
      </trkpt>
      <trkpt lat="44.26225" lon="6.21593">
        <ele>1754.5999755859</ele>
        <time>2021-06-21T07:26:24.055Z</time>
      </trkpt>
      <trkpt lat="44.26224" lon="6.21561">
        <ele>1754.5999755859</ele>
        <time>2021-06-21T07:26:31.921Z</time>
      </trkpt>
      <trkpt lat="44.26225" lon="6.21539">
        <ele>1756.8000488281</ele>
        <time>2021-06-21T07:26:39.793Z</time>
      </trkpt>
      <trkpt lat="44.26234" lon="6.21447">
        <ele>1756.8000488281</ele>
        <time>2021-06-21T07:26:47.689Z</time>
      </trkpt>
      <trkpt lat="44.26236" lon="6.21384">
        <ele>1759.1999511719</ele>
        <time>2021-06-21T07:26:55.602Z</time>
      </trkpt>
      <trkpt lat="44.26242" lon="6.21327">
        <ele>1761.4000244141</ele>
        <time>2021-06-21T07:27:03.530Z</time>
      </trkpt>
      <trkpt lat="44.26242" lon="6.21295">
        <ele>1763.1999511719</ele>
        <time>2021-06-21T07:27:11.467Z</time>
      </trkpt>
      <trkpt lat="44.26244" lon="6.21279">
        <ele>1766.5999755859</ele>
        <time>2021-06-21T07:27:19.408Z</time>
      </trkpt>
      <trkpt lat="44.26239" lon="6.21249">
        <ele>1766.5999755859</ele>
        <time>2021-06-21T07:27:27.357Z</time>
      </trkpt>
      <trkpt lat="44.26239" lon="6.21237">
        <ele>1775</ele>
        <time>2021-06-21T07:27:35.309Z</time>
      </trkpt>
      <trkpt lat="44.26229" lon="6.21218">
        <ele>1775</ele>
        <time>2021-06-21T07:27:43.267Z</time>
      </trkpt>
      <trkpt lat="44.26221" lon="6.2119">
        <ele>1788</ele>
        <time>2021-06-21T07:27:51.234Z</time>
      </trkpt>
      <trkpt lat="44.26218" lon="6.21158">
        <ele>1793</ele>
        <time>2021-06-21T07:27:59.209Z</time>
      </trkpt>
      <trkpt lat="44.26222" lon="6.21141">
        <ele>1793</ele>
        <time>2021-06-21T07:28:07.189Z</time>
      </trkpt>
      <trkpt lat="44.26234" lon="6.21113">
        <ele>1802.8000488281</ele>
        <time>2021-06-21T07:28:15.177Z</time>
      </trkpt>
      <trkpt lat="44.26237" lon="6.21107">
        <ele>1802.8000488281</ele>
        <time>2021-06-21T07:28:23.167Z</time>
      </trkpt>
      <trkpt lat="44.26244" lon="6.21102">
        <ele>1802.8000488281</ele>
        <time>2021-06-21T07:28:31.160Z</time>
      </trkpt>
      <trkpt lat="44.26249" lon="6.21094">
        <ele>1805.8000488281</ele>
        <time>2021-06-21T07:28:39.156Z</time>
      </trkpt>
      <trkpt lat="44.26251" lon="6.21081">
        <ele>1805.8000488281</ele>
        <time>2021-06-21T07:28:47.156Z</time>
      </trkpt>
      <trkpt lat="44.26246" lon="6.21058">
        <ele>1813.1999511719</ele>
        <time>2021-06-21T07:28:55.162Z</time>
      </trkpt>
      <trkpt lat="44.26248" lon="6.2105">
        <ele>1815.1999511719</ele>
        <time>2021-06-21T07:29:03.170Z</time>
      </trkpt>
      <trkpt lat="44.2625" lon="6.21049">
        <ele>1815.1999511719</ele>
        <time>2021-06-21T07:29:11.179Z</time>
      </trkpt>
      <trkpt lat="44.26265" lon="6.21051">
        <ele>1815.1999511719</ele>
        <time>2021-06-21T07:29:19.194Z</time>
      </trkpt>
      <trkpt lat="44.26288" lon="6.21046">
        <ele>1815.1999511719</ele>
        <time>2021-06-21T07:29:27.217Z</time>
      </trkpt>
      <trkpt lat="44.26347" lon="6.21021">
        <ele>1823.8000488281</ele>
        <time>2021-06-21T07:29:35.263Z</time>
      </trkpt>
      <trkpt lat="44.26367" lon="6.21021">
        <ele>1824.8000488281</ele>
        <time>2021-06-21T07:29:43.316Z</time>
      </trkpt>
      <trkpt lat="44.26384" lon="6.21019">
        <ele>1824.8000488281</ele>
        <time>2021-06-21T07:29:51.375Z</time>
      </trkpt>
      <trkpt lat="44.26434" lon="6.20994">
        <ele>1824.8000488281</ele>
        <time>2021-06-21T07:29:59.454Z</time>
      </trkpt>
      <trkpt lat="44.26445" lon="6.20986">
        <ele>1824.8000488281</ele>
        <time>2021-06-21T07:30:07.537Z</time>
      </trkpt>
      <trkpt lat="44.26446" lon="6.20979">
        <ele>1824.8000488281</ele>
        <time>2021-06-21T07:30:15.622Z</time>
      </trkpt>
      <trkpt lat="44.26436" lon="6.20976">
        <ele>1824.8000488281</ele>
        <time>2021-06-21T07:30:23.711Z</time>
      </trkpt>
      <trkpt lat="44.26411" lon="6.20973">
        <ele>1834.4000244141</ele>
        <time>2021-06-21T07:30:31.809Z</time>
      </trkpt>
      <trkpt lat="44.26405" lon="6.20975">
        <ele>1834.4000244141</ele>
        <time>2021-06-21T07:30:39.910Z</time>
      </trkpt>
      <trkpt lat="44.26356" lon="6.20979">
        <ele>1834.4000244141</ele>
        <time>2021-06-21T07:30:48.029Z</time>
      </trkpt>
      <trkpt lat="44.26324" lon="6.20978">
        <ele>1834.4000244141</ele>
        <time>2021-06-21T07:30:56.160Z</time>
      </trkpt>
      <trkpt lat="44.26289" lon="6.20971">
        <ele>1844</ele>
        <time>2021-06-21T07:31:04.304Z</time>
      </trkpt>
      <trkpt lat="44.26276" lon="6.20959">
        <ele>1844</ele>
        <time>2021-06-21T07:31:12.453Z</time>
      </trkpt>
      <trkpt lat="44.26263" lon="6.20957">
        <ele>1843.8000488281</ele>
        <time>2021-06-21T07:31:20.607Z</time>
      </trkpt>
      <trkpt lat="44.26245" lon="6.20961">
        <ele>1843.8000488281</ele>
        <time>2021-06-21T07:31:28.768Z</time>
      </trkpt>
      <trkpt lat="44.26229" lon="6.20958">
        <ele>1843.8000488281</ele>
        <time>2021-06-21T07:31:36.935Z</time>
      </trkpt>
      <trkpt lat="44.26211" lon="6.2096">
        <ele>1844.1999511719</ele>
        <time>2021-06-21T07:31:45.108Z</time>
      </trkpt>
      <trkpt lat="44.26184" lon="6.20958">
        <ele>1844.1999511719</ele>
        <time>2021-06-21T07:31:53.292Z</time>
      </trkpt>
      <trkpt lat="44.26158" lon="6.20961">
        <ele>1850.8000488281</ele>
        <time>2021-06-21T07:32:01.485Z</time>
      </trkpt>
      <trkpt lat="44.26151" lon="6.20958">
        <ele>1851.5999755859</ele>
        <time>2021-06-21T07:32:09.680Z</time>
      </trkpt>
      <trkpt lat="44.26138" lon="6.20958">
        <ele>1851.5999755859</ele>
        <time>2021-06-21T07:32:17.880Z</time>
      </trkpt>
      <trkpt lat="44.26083" lon="6.20959">
        <ele>1851.5999755859</ele>
        <time>2021-06-21T07:32:26.101Z</time>
      </trkpt>
      <trkpt lat="44.26072" lon="6.20956">
        <ele>1857.4000244141</ele>
        <time>2021-06-21T07:32:34.326Z</time>
      </trkpt>
      <trkpt lat="44.26061" lon="6.20945">
        <ele>1857.4000244141</ele>
        <time>2021-06-21T07:32:42.556Z</time>
      </trkpt>
      <trkpt lat="44.26057" lon="6.20944">
        <ele>1859.8000488281</ele>
        <time>2021-06-21T07:32:50.787Z</time>
      </trkpt>
      <trkpt lat="44.2605" lon="6.20935">
        <ele>1860.1999511719</ele>
        <time>2021-06-21T07:32:59.022Z</time>
      </trkpt>
      <trkpt lat="44.26041" lon="6.20915">
        <ele>1860.1999511719</ele>
        <time>2021-06-21T07:33:07.263Z</time>
      </trkpt>
      <trkpt lat="44.26037" lon="6.20911">
        <ele>1860.1999511719</ele>
        <time>2021-06-21T07:33:15.506Z</time>
      </trkpt>
      <trkpt lat="44.26019" lon="6.20883">
        <ele>1842.1999511719</ele>
        <time>2021-06-21T07:33:23.759Z</time>
      </trkpt>
      <trkpt lat="44.26029" lon="6.20871">
        <ele>1842.1999511719</ele>
        <time>2021-06-21T07:33:32.017Z</time>
      </trkpt>
      <trkpt lat="44.26029" lon="6.20864">
        <ele>1836.8000488281</ele>
        <time>2021-06-21T07:33:40.277Z</time>
      </trkpt>
      <trkpt lat="44.2602" lon="6.20838">
        <ele>1831</ele>
        <time>2021-06-21T07:33:48.544Z</time>
      </trkpt>
      <trkpt lat="44.2601" lon="6.20824">
        <ele>1828</ele>
        <time>2021-06-21T07:33:56.817Z</time>
      </trkpt>
      <trkpt lat="44.26008" lon="6.20818">
        <ele>1828</ele>
        <time>2021-06-21T07:34:05.091Z</time>
      </trkpt>
      <trkpt lat="44.26002" lon="6.20813">
        <ele>1828</ele>
        <time>2021-06-21T07:34:13.368Z</time>
      </trkpt>
      <trkpt lat="44.25992" lon="6.20819">
        <ele>1821.8000488281</ele>
        <time>2021-06-21T07:34:21.649Z</time>
      </trkpt>
      <trkpt lat="44.2599" lon="6.20818">
        <ele>1821.8000488281</ele>
        <time>2021-06-21T07:34:29.931Z</time>
      </trkpt>
      <trkpt lat="44.25985" lon="6.20816">
        <ele>1821.8000488281</ele>
        <time>2021-06-21T07:34:38.215Z</time>
      </trkpt>
      <trkpt lat="44.25974" lon="6.20806">
        <ele>1821.8000488281</ele>
        <time>2021-06-21T07:34:46.503Z</time>
      </trkpt>
      <trkpt lat="44.25969" lon="6.20807">
        <ele>1813.5999755859</ele>
        <time>2021-06-21T07:34:54.793Z</time>
      </trkpt>
      <trkpt lat="44.25965" lon="6.2081">
        <ele>1813.5999755859</ele>
        <time>2021-06-21T07:35:03.085Z</time>
      </trkpt>
      <trkpt lat="44.25939" lon="6.20833">
        <ele>1803.1999511719</ele>
        <time>2021-06-21T07:35:11.388Z</time>
      </trkpt>
      <trkpt lat="44.25929" lon="6.20829">
        <ele>1803.1999511719</ele>
        <time>2021-06-21T07:35:19.695Z</time>
      </trkpt>
      <trkpt lat="44.25917" lon="6.20827">
        <ele>1795.4000244141</ele>
        <time>2021-06-21T07:35:28.007Z</time>
      </trkpt>
      <trkpt lat="44.25904" lon="6.2083">
        <ele>1795.4000244141</ele>
        <time>2021-06-21T07:35:36.323Z</time>
      </trkpt>
      <trkpt lat="44.25866" lon="6.20827">
        <ele>1785.8000488281</ele>
        <time>2021-06-21T07:35:44.654Z</time>
      </trkpt>
      <trkpt lat="44.2586" lon="6.20828">
        <ele>1785.8000488281</ele>
        <time>2021-06-21T07:35:52.987Z</time>
      </trkpt>
      <trkpt lat="44.25837" lon="6.20848">
        <ele>1779.5999755859</ele>
        <time>2021-06-21T07:36:01.330Z</time>
      </trkpt>
      <trkpt lat="44.25829" lon="6.20848">
        <ele>1779.5999755859</ele>
        <time>2021-06-21T07:36:09.676Z</time>
      </trkpt>
      <trkpt lat="44.25811" lon="6.20842">
        <ele>1773.5999755859</ele>
        <time>2021-06-21T07:36:18.028Z</time>
      </trkpt>
      <trkpt lat="44.25807" lon="6.20842">
        <ele>1773.5999755859</ele>
        <time>2021-06-21T07:36:26.382Z</time>
      </trkpt>
      <trkpt lat="44.25804" lon="6.20845">
        <ele>1773.5999755859</ele>
        <time>2021-06-21T07:36:34.737Z</time>
      </trkpt>
      <trkpt lat="44.25796" lon="6.20858">
        <ele>1767</ele>
        <time>2021-06-21T07:36:43.097Z</time>
      </trkpt>
      <trkpt lat="44.25791" lon="6.20861">
        <ele>1765.8000488281</ele>
        <time>2021-06-21T07:36:51.459Z</time>
      </trkpt>
      <trkpt lat="44.25773" lon="6.20861">
        <ele>1765.8000488281</ele>
        <time>2021-06-21T07:36:59.828Z</time>
      </trkpt>
      <trkpt lat="44.25757" lon="6.20869">
        <ele>1759.1999511719</ele>
        <time>2021-06-21T07:37:08.203Z</time>
      </trkpt>
      <trkpt lat="44.25751" lon="6.20869">
        <ele>1759.1999511719</ele>
        <time>2021-06-21T07:37:16.580Z</time>
      </trkpt>
      <trkpt lat="44.25744" lon="6.20866">
        <ele>1753.8000488281</ele>
        <time>2021-06-21T07:37:24.960Z</time>
      </trkpt>
      <trkpt lat="44.25737" lon="6.20869">
        <ele>1753.8000488281</ele>
        <time>2021-06-21T07:37:33.342Z</time>
      </trkpt>
      <trkpt lat="44.25698" lon="6.20864">
        <ele>1753.8000488281</ele>
        <time>2021-06-21T07:37:41.739Z</time>
      </trkpt>
      <trkpt lat="44.2567" lon="6.2087">
        <ele>1753.8000488281</ele>
        <time>2021-06-21T07:37:50.146Z</time>
      </trkpt>
      <trkpt lat="44.25652" lon="6.20871">
        <ele>1753.8000488281</ele>
        <time>2021-06-21T07:37:58.560Z</time>
      </trkpt>
      <trkpt lat="44.25644" lon="6.20874">
        <ele>1753.8000488281</ele>
        <time>2021-06-21T07:38:06.977Z</time>
      </trkpt>
      <trkpt lat="44.25637" lon="6.20886">
        <ele>1719.4000244141</ele>
        <time>2021-06-21T07:38:15.398Z</time>
      </trkpt>
      <trkpt lat="44.25629" lon="6.2089">
        <ele>1717.4000244141</ele>
        <time>2021-06-21T07:38:23.822Z</time>
      </trkpt>
      <trkpt lat="44.25618" lon="6.2089">
        <ele>1714.8000488281</ele>
        <time>2021-06-21T07:38:32.250Z</time>
      </trkpt>
      <trkpt lat="44.25597" lon="6.20885">
        <ele>1714.8000488281</ele>
        <time>2021-06-21T07:38:40.686Z</time>
      </trkpt>
      <trkpt lat="44.25574" lon="6.20876">
        <ele>1714.8000488281</ele>
        <time>2021-06-21T07:38:49.131Z</time>
      </trkpt>
      <trkpt lat="44.25541" lon="6.20882">
        <ele>1701.8000488281</ele>
        <time>2021-06-21T07:38:57.588Z</time>
      </trkpt>
      <trkpt lat="44.2552" lon="6.20888">
        <ele>1701.8000488281</ele>
        <time>2021-06-21T07:39:06.053Z</time>
      </trkpt>
      <trkpt lat="44.25473" lon="6.20892">
        <ele>1701.8000488281</ele>
        <time>2021-06-21T07:39:14.535Z</time>
      </trkpt>
      <trkpt lat="44.25448" lon="6.20897">
        <ele>1701.8000488281</ele>
        <time>2021-06-21T07:39:23.027Z</time>
      </trkpt>
      <trkpt lat="44.2544" lon="6.20896">
        <ele>1697.4000244141</ele>
        <time>2021-06-21T07:39:31.522Z</time>
      </trkpt>
      <trkpt lat="44.25404" lon="6.2088">
        <ele>1688.5999755859</ele>
        <time>2021-06-21T07:39:40.031Z</time>
      </trkpt>
      <trkpt lat="44.25401" lon="6.20883">
        <ele>1688.5999755859</ele>
        <time>2021-06-21T07:39:48.541Z</time>
      </trkpt>
      <trkpt lat="44.25396" lon="6.20897">
        <ele>1686</ele>
        <time>2021-06-21T07:39:57.055Z</time>
      </trkpt>
      <trkpt lat="44.25389" lon="6.20907">
        <ele>1686</ele>
        <time>2021-06-21T07:40:05.573Z</time>
      </trkpt>
      <trkpt lat="44.25361" lon="6.20926">
        <ele>1686</ele>
        <time>2021-06-21T07:40:14.102Z</time>
      </trkpt>
      <trkpt lat="44.25354" lon="6.20929">
        <ele>1679.8000488281</ele>
        <time>2021-06-21T07:40:22.634Z</time>
      </trkpt>
      <trkpt lat="44.25345" lon="6.2093">
        <ele>1678.4000244141</ele>
        <time>2021-06-21T07:40:31.169Z</time>
      </trkpt>
      <trkpt lat="44.25335" lon="6.20925">
        <ele>1678.4000244141</ele>
        <time>2021-06-21T07:40:39.708Z</time>
      </trkpt>
      <trkpt lat="44.25317" lon="6.20907">
        <ele>1678.4000244141</ele>
        <time>2021-06-21T07:40:48.255Z</time>
      </trkpt>
      <trkpt lat="44.25305" lon="6.20899">
        <ele>1670</ele>
        <time>2021-06-21T07:40:56.807Z</time>
      </trkpt>
      <trkpt lat="44.25294" lon="6.20876">
        <ele>1670</ele>
        <time>2021-06-21T07:41:05.366Z</time>
      </trkpt>
      <trkpt lat="44.25289" lon="6.20877">
        <ele>1670</ele>
        <time>2021-06-21T07:41:13.927Z</time>
      </trkpt>
      <trkpt lat="44.25282" lon="6.20887">
        <ele>1670</ele>
        <time>2021-06-21T07:41:22.492Z</time>
      </trkpt>
      <trkpt lat="44.25278" lon="6.2089">
        <ele>1670</ele>
        <time>2021-06-21T07:41:31.059Z</time>
      </trkpt>
      <trkpt lat="44.25273" lon="6.20888">
        <ele>1659.4000244141</ele>
        <time>2021-06-21T07:41:39.628Z</time>
      </trkpt>
      <trkpt lat="44.25269" lon="6.20884">
        <ele>1657.8000488281</ele>
        <time>2021-06-21T07:41:48.198Z</time>
      </trkpt>
      <trkpt lat="44.25255" lon="6.20879">
        <ele>1655.1999511719</ele>
        <time>2021-06-21T07:41:56.774Z</time>
      </trkpt>
      <trkpt lat="44.25247" lon="6.20877">
        <ele>1655.1999511719</ele>
        <time>2021-06-21T07:42:05.353Z</time>
      </trkpt>
      <trkpt lat="44.2524" lon="6.20878">
        <ele>1655.1999511719</ele>
        <time>2021-06-21T07:42:13.934Z</time>
      </trkpt>
      <trkpt lat="44.25228" lon="6.20873">
        <ele>1648.4000244141</ele>
        <time>2021-06-21T07:42:22.520Z</time>
      </trkpt>
      <trkpt lat="44.25192" lon="6.20864">
        <ele>1648.4000244141</ele>
        <time>2021-06-21T07:42:31.119Z</time>
      </trkpt>
      <trkpt lat="44.25165" lon="6.20846">
        <ele>1632.5999755859</ele>
        <time>2021-06-21T07:42:39.729Z</time>
      </trkpt>
      <trkpt lat="44.25143" lon="6.20838">
        <ele>1632.5999755859</ele>
        <time>2021-06-21T07:42:48.348Z</time>
      </trkpt>
      <trkpt lat="44.25139" lon="6.20835">
        <ele>1632.5999755859</ele>
        <time>2021-06-21T07:42:56.968Z</time>
      </trkpt>
      <trkpt lat="44.25136" lon="6.2083">
        <ele>1624</ele>
        <time>2021-06-21T07:43:05.590Z</time>
      </trkpt>
      <trkpt lat="44.25129" lon="6.20814">
        <ele>1622</ele>
        <time>2021-06-21T07:43:14.217Z</time>
      </trkpt>
      <trkpt lat="44.25116" lon="6.20799">
        <ele>1622</ele>
        <time>2021-06-21T07:43:22.850Z</time>
      </trkpt>
      <trkpt lat="44.25105" lon="6.20777">
        <ele>1614.8000488281</ele>
        <time>2021-06-21T07:43:31.491Z</time>
      </trkpt>
      <trkpt lat="44.25075" lon="6.20749">
        <ele>1608.1999511719</ele>
        <time>2021-06-21T07:43:40.145Z</time>
      </trkpt>
      <trkpt lat="44.25036" lon="6.20696">
        <ele>1608.1999511719</ele>
        <time>2021-06-21T07:43:48.819Z</time>
      </trkpt>
      <trkpt lat="44.25027" lon="6.20686">
        <ele>1608.1999511719</ele>
        <time>2021-06-21T07:43:57.497Z</time>
      </trkpt>
      <trkpt lat="44.25017" lon="6.20681">
        <ele>1608.1999511719</ele>
        <time>2021-06-21T07:44:06.179Z</time>
      </trkpt>
      <trkpt lat="44.25007" lon="6.20657">
        <ele>1608.1999511719</ele>
        <time>2021-06-21T07:44:14.868Z</time>
      </trkpt>
      <trkpt lat="44.24987" lon="6.20639">
        <ele>1587.8000488281</ele>
        <time>2021-06-21T07:44:23.566Z</time>
      </trkpt>
      <trkpt lat="44.24981" lon="6.20628">
        <ele>1587.8000488281</ele>
        <time>2021-06-21T07:44:32.268Z</time>
      </trkpt>
      <trkpt lat="44.24967" lon="6.20615">
        <ele>1583.5999755859</ele>
        <time>2021-06-21T07:44:40.976Z</time>
      </trkpt>
      <trkpt lat="44.24949" lon="6.20594">
        <ele>1583.5999755859</ele>
        <time>2021-06-21T07:44:49.693Z</time>
      </trkpt>
      <trkpt lat="44.24949" lon="6.20591">
        <ele>1583.5999755859</ele>
        <time>2021-06-21T07:44:58.410Z</time>
      </trkpt>
      <trkpt lat="44.24952" lon="6.20589">
        <ele>1576.5999755859</ele>
        <time>2021-06-21T07:45:07.129Z</time>
      </trkpt>
      <trkpt lat="44.24955" lon="6.20583">
        <ele>1575.5999755859</ele>
        <time>2021-06-21T07:45:15.849Z</time>
      </trkpt>
      <trkpt lat="44.24955" lon="6.20568">
        <ele>1573.4000244141</ele>
        <time>2021-06-21T07:45:24.573Z</time>
      </trkpt>
      <trkpt lat="44.2496" lon="6.2056">
        <ele>1570</ele>
        <time>2021-06-21T07:45:33.300Z</time>
      </trkpt>
      <trkpt lat="44.2496" lon="6.20556">
        <ele>1570</ele>
        <time>2021-06-21T07:45:42.028Z</time>
      </trkpt>
      <trkpt lat="44.24953" lon="6.20543">
        <ele>1570</ele>
        <time>2021-06-21T07:45:50.761Z</time>
      </trkpt>
      <trkpt lat="44.24925" lon="6.20534">
        <ele>1570</ele>
        <time>2021-06-21T07:45:59.504Z</time>
      </trkpt>
      <trkpt lat="44.24916" lon="6.20535">
        <ele>1570</ele>
        <time>2021-06-21T07:46:08.251Z</time>
      </trkpt>
      <trkpt lat="44.24901" lon="6.2054">
        <ele>1551.5999755859</ele>
        <time>2021-06-21T07:46:17.003Z</time>
      </trkpt>
      <trkpt lat="44.24884" lon="6.20543">
        <ele>1551.5999755859</ele>
        <time>2021-06-21T07:46:25.762Z</time>
      </trkpt>
      <trkpt lat="44.24878" lon="6.20539">
        <ele>1551.5999755859</ele>
        <time>2021-06-21T07:46:34.523Z</time>
      </trkpt>
      <trkpt lat="44.24871" lon="6.20528">
        <ele>1551.5999755859</ele>
        <time>2021-06-21T07:46:43.288Z</time>
      </trkpt>
      <trkpt lat="44.24848" lon="6.20511">
        <ele>1551.5999755859</ele>
        <time>2021-06-21T07:46:52.062Z</time>
      </trkpt>
      <trkpt lat="44.24844" lon="6.2051">
        <ele>1551.5999755859</ele>
        <time>2021-06-21T07:47:00.838Z</time>
      </trkpt>
      <trkpt lat="44.24834" lon="6.2051">
        <ele>1532.8000488281</ele>
        <time>2021-06-21T07:47:09.617Z</time>
      </trkpt>
      <trkpt lat="44.24822" lon="6.20506">
        <ele>1532.8000488281</ele>
        <time>2021-06-21T07:47:18.401Z</time>
      </trkpt>
      <trkpt lat="44.24809" lon="6.20504">
        <ele>1523.5999755859</ele>
        <time>2021-06-21T07:47:27.190Z</time>
      </trkpt>
      <trkpt lat="44.24798" lon="6.20513">
        <ele>1523.5999755859</ele>
        <time>2021-06-21T07:47:35.984Z</time>
      </trkpt>
      <trkpt lat="44.24791" lon="6.20522">
        <ele>1516.1999511719</ele>
        <time>2021-06-21T07:47:44.781Z</time>
      </trkpt>
      <trkpt lat="44.24787" lon="6.20519">
        <ele>1514.1999511719</ele>
        <time>2021-06-21T07:47:53.580Z</time>
      </trkpt>
      <trkpt lat="44.24785" lon="6.2052">
        <ele>1514.1999511719</ele>
        <time>2021-06-21T07:48:02.380Z</time>
      </trkpt>
      <trkpt lat="44.24783" lon="6.20533">
        <ele>1510.5999755859</ele>
        <time>2021-06-21T07:48:11.183Z</time>
      </trkpt>
      <trkpt lat="44.24776" lon="6.20546">
        <ele>1510.5999755859</ele>
        <time>2021-06-21T07:48:19.991Z</time>
      </trkpt>
      <trkpt lat="44.24765" lon="6.20547">
        <ele>1510.5999755859</ele>
        <time>2021-06-21T07:48:28.803Z</time>
      </trkpt>
      <trkpt lat="44.24758" lon="6.20539">
        <ele>1499.1999511719</ele>
        <time>2021-06-21T07:48:37.618Z</time>
      </trkpt>
      <trkpt lat="44.2473" lon="6.20532">
        <ele>1499.1999511719</ele>
        <time>2021-06-21T07:48:46.443Z</time>
      </trkpt>
      <trkpt lat="44.2471" lon="6.20534">
        <ele>1490.5999755859</ele>
        <time>2021-06-21T07:48:55.276Z</time>
      </trkpt>
      <trkpt lat="44.24699" lon="6.20531">
        <ele>1490.5999755859</ele>
        <time>2021-06-21T07:49:04.113Z</time>
      </trkpt>
      <trkpt lat="44.2467" lon="6.20558">
        <ele>1490.5999755859</ele>
        <time>2021-06-21T07:49:12.963Z</time>
      </trkpt>
      <trkpt lat="44.2466" lon="6.20562">
        <ele>1482.5999755859</ele>
        <time>2021-06-21T07:49:21.817Z</time>
      </trkpt>
      <trkpt lat="44.24645" lon="6.20556">
        <ele>1482.5999755859</ele>
        <time>2021-06-21T07:49:30.677Z</time>
      </trkpt>
      <trkpt lat="44.24642" lon="6.20558">
        <ele>1482.5999755859</ele>
        <time>2021-06-21T07:49:39.538Z</time>
      </trkpt>
      <trkpt lat="44.24636" lon="6.20556">
        <ele>1477.1999511719</ele>
        <time>2021-06-21T07:49:48.401Z</time>
      </trkpt>
      <trkpt lat="44.24605" lon="6.20536">
        <ele>1477.1999511719</ele>
        <time>2021-06-21T07:49:57.276Z</time>
      </trkpt>
      <trkpt lat="44.24595" lon="6.20537">
        <ele>1474.5999755859</ele>
        <time>2021-06-21T07:50:06.155Z</time>
      </trkpt>
      <trkpt lat="44.24583" lon="6.20534">
        <ele>1473</ele>
        <time>2021-06-21T07:50:15.039Z</time>
      </trkpt>
      <trkpt lat="44.24575" lon="6.20528">
        <ele>1471.8000488281</ele>
        <time>2021-06-21T07:50:23.926Z</time>
      </trkpt>
      <trkpt lat="44.2457" lon="6.20527">
        <ele>1471.8000488281</ele>
        <time>2021-06-21T07:50:32.815Z</time>
      </trkpt>
      <trkpt lat="44.24558" lon="6.2053">
        <ele>1471.8000488281</ele>
        <time>2021-06-21T07:50:41.708Z</time>
      </trkpt>
      <trkpt lat="44.24553" lon="6.20528">
        <ele>1469.5999755859</ele>
        <time>2021-06-21T07:50:50.603Z</time>
      </trkpt>
      <trkpt lat="44.24553" lon="6.20489">
        <ele>1468</ele>
        <time>2021-06-21T07:50:59.508Z</time>
      </trkpt>
      <trkpt lat="44.24545" lon="6.20471">
        <ele>1468</ele>
        <time>2021-06-21T07:51:08.419Z</time>
      </trkpt>
      <trkpt lat="44.24536" lon="6.20457">
        <ele>1468</ele>
        <time>2021-06-21T07:51:17.335Z</time>
      </trkpt>
      <trkpt lat="44.2453" lon="6.20446">
        <ele>1468</ele>
        <time>2021-06-21T07:51:26.255Z</time>
      </trkpt>
      <trkpt lat="44.24525" lon="6.2044">
        <ele>1461.5999755859</ele>
        <time>2021-06-21T07:51:35.177Z</time>
      </trkpt>
      <trkpt lat="44.24519" lon="6.20438">
        <ele>1461.5999755859</ele>
        <time>2021-06-21T07:51:44.101Z</time>
      </trkpt>
      <trkpt lat="44.24515" lon="6.20431">
        <ele>1459.1999511719</ele>
        <time>2021-06-21T07:51:53.027Z</time>
      </trkpt>
      <trkpt lat="44.24514" lon="6.20421">
        <ele>1459.1999511719</ele>
        <time>2021-06-21T07:52:01.956Z</time>
      </trkpt>
      <trkpt lat="44.24514" lon="6.204">
        <ele>1459.1999511719</ele>
        <time>2021-06-21T07:52:10.891Z</time>
      </trkpt>
      <trkpt lat="44.24518" lon="6.2039">
        <ele>1455.1999511719</ele>
        <time>2021-06-21T07:52:19.829Z</time>
      </trkpt>
      <trkpt lat="44.24527" lon="6.20377">
        <ele>1455.1999511719</ele>
        <time>2021-06-21T07:52:28.772Z</time>
      </trkpt>
      <trkpt lat="44.2453" lon="6.20369">
        <ele>1452.1999511719</ele>
        <time>2021-06-21T07:52:37.717Z</time>
      </trkpt>
      <trkpt lat="44.24529" lon="6.20366">
        <ele>1452.1999511719</ele>
        <time>2021-06-21T07:52:46.663Z</time>
      </trkpt>
      <trkpt lat="44.24493" lon="6.20318">
        <ele>1452.1999511719</ele>
        <time>2021-06-21T07:52:55.627Z</time>
      </trkpt>
      <trkpt lat="44.24483" lon="6.20311">
        <ele>1452.1999511719</ele>
        <time>2021-06-21T07:53:04.595Z</time>
      </trkpt>
      <trkpt lat="44.24471" lon="6.20307">
        <ele>1435.5999755859</ele>
        <time>2021-06-21T07:53:13.568Z</time>
      </trkpt>
      <trkpt lat="44.24471" lon="6.20302">
        <ele>1434.1999511719</ele>
        <time>2021-06-21T07:53:22.542Z</time>
      </trkpt>
      <trkpt lat="44.24475" lon="6.20294">
        <ele>1432.8000488281</ele>
        <time>2021-06-21T07:53:31.519Z</time>
      </trkpt>
      <trkpt lat="44.24471" lon="6.20268">
        <ele>1430.1999511719</ele>
        <time>2021-06-21T07:53:40.503Z</time>
      </trkpt>
      <trkpt lat="44.24455" lon="6.20253">
        <ele>1429.8000488281</ele>
        <time>2021-06-21T07:53:49.494Z</time>
      </trkpt>
      <trkpt lat="44.24443" lon="6.20245">
        <ele>1428.4000244141</ele>
        <time>2021-06-21T07:53:58.490Z</time>
      </trkpt>
      <trkpt lat="44.24433" lon="6.20234">
        <ele>1428.4000244141</ele>
        <time>2021-06-21T07:54:07.491Z</time>
      </trkpt>
      <trkpt lat="44.24426" lon="6.20222">
        <ele>1428.4000244141</ele>
        <time>2021-06-21T07:54:16.496Z</time>
      </trkpt>
      <trkpt lat="44.24423" lon="6.20211">
        <ele>1426</ele>
        <time>2021-06-21T07:54:25.504Z</time>
      </trkpt>
      <trkpt lat="44.24421" lon="6.20187">
        <ele>1425</ele>
        <time>2021-06-21T07:54:34.518Z</time>
      </trkpt>
      <trkpt lat="44.24415" lon="6.20171">
        <ele>1423.5999755859</ele>
        <time>2021-06-21T07:54:43.537Z</time>
      </trkpt>
      <trkpt lat="44.24411" lon="6.20164">
        <ele>1423.5999755859</ele>
        <time>2021-06-21T07:54:52.558Z</time>
      </trkpt>
      <trkpt lat="44.24402" lon="6.20156">
        <ele>1423</ele>
        <time>2021-06-21T07:55:01.583Z</time>
      </trkpt>
      <trkpt lat="44.24389" lon="6.20137">
        <ele>1423</ele>
        <time>2021-06-21T07:55:10.615Z</time>
      </trkpt>
      <trkpt lat="44.24387" lon="6.20123">
        <ele>1422.4000244141</ele>
        <time>2021-06-21T07:55:19.651Z</time>
      </trkpt>
      <trkpt lat="44.24387" lon="6.20107">
        <ele>1421.5999755859</ele>
        <time>2021-06-21T07:55:28.691Z</time>
      </trkpt>
      <trkpt lat="44.24385" lon="6.20099">
        <ele>1421.1999511719</ele>
        <time>2021-06-21T07:55:37.734Z</time>
      </trkpt>
      <trkpt lat="44.24372" lon="6.20083">
        <ele>1421.1999511719</ele>
        <time>2021-06-21T07:55:46.783Z</time>
      </trkpt>
      <trkpt lat="44.24365" lon="6.20076">
        <ele>1421.1999511719</ele>
        <time>2021-06-21T07:55:55.835Z</time>
      </trkpt>
      <trkpt lat="44.24346" lon="6.20048">
        <ele>1418</ele>
        <time>2021-06-21T07:56:04.897Z</time>
      </trkpt>
      <trkpt lat="44.24299" lon="6.20007">
        <ele>1414.4000244141</ele>
        <time>2021-06-21T07:56:13.980Z</time>
      </trkpt>
      <trkpt lat="44.24296" lon="6.20002">
        <ele>1414.4000244141</ele>
        <time>2021-06-21T07:56:23.064Z</time>
      </trkpt>
      <trkpt lat="44.24282" lon="6.1995">
        <ele>1414.4000244141</ele>
        <time>2021-06-21T07:56:32.163Z</time>
      </trkpt>
      <trkpt lat="44.24277" lon="6.19943">
        <ele>1414.4000244141</ele>
        <time>2021-06-21T07:56:41.265Z</time>
      </trkpt>
      <trkpt lat="44.24247" lon="6.19911">
        <ele>1409.4000244141</ele>
        <time>2021-06-21T07:56:50.381Z</time>
      </trkpt>
      <trkpt lat="44.24231" lon="6.19903">
        <ele>1408.5999755859</ele>
        <time>2021-06-21T07:56:59.503Z</time>
      </trkpt>
      <trkpt lat="44.24211" lon="6.19896">
        <ele>1407.8000488281</ele>
        <time>2021-06-21T07:57:08.632Z</time>
      </trkpt>
      <trkpt lat="44.24193" lon="6.19881">
        <ele>1407.8000488281</ele>
        <time>2021-06-21T07:57:17.769Z</time>
      </trkpt>
      <trkpt lat="44.24159" lon="6.19833">
        <ele>1407.8000488281</ele>
        <time>2021-06-21T07:57:26.924Z</time>
      </trkpt>
      <trkpt lat="44.24108" lon="6.1977">
        <ele>1400</ele>
        <time>2021-06-21T07:57:36.104Z</time>
      </trkpt>
      <trkpt lat="44.2409" lon="6.19746">
        <ele>1400</ele>
        <time>2021-06-21T07:57:45.293Z</time>
      </trkpt>
      <trkpt lat="44.24066" lon="6.19719">
        <ele>1398.8000488281</ele>
        <time>2021-06-21T07:57:54.494Z</time>
      </trkpt>
      <trkpt lat="44.24054" lon="6.19702">
        <ele>1397.8000488281</ele>
        <time>2021-06-21T07:58:03.701Z</time>
      </trkpt>
      <trkpt lat="44.24029" lon="6.19655">
        <ele>1397.8000488281</ele>
        <time>2021-06-21T07:58:12.923Z</time>
      </trkpt>
      <trkpt lat="44.24004" lon="6.19617">
        <ele>1397.8000488281</ele>
        <time>2021-06-21T07:58:22.159Z</time>
      </trkpt>
      <trkpt lat="44.23999" lon="6.19606">
        <ele>1394</ele>
        <time>2021-06-21T07:58:31.399Z</time>
      </trkpt>
      <trkpt lat="44.23985" lon="6.19561">
        <ele>1392.4000244141</ele>
        <time>2021-06-21T07:58:40.652Z</time>
      </trkpt>
      <trkpt lat="44.23943" lon="6.19491">
        <ele>1391.5999755859</ele>
        <time>2021-06-21T07:58:49.929Z</time>
      </trkpt>
      <trkpt lat="44.2393" lon="6.19459">
        <ele>1391.5999755859</ele>
        <time>2021-06-21T07:58:59.216Z</time>
      </trkpt>
      <trkpt lat="44.23925" lon="6.19433">
        <ele>1391.5999755859</ele>
        <time>2021-06-21T07:59:08.510Z</time>
      </trkpt>
      <trkpt lat="44.2393" lon="6.19329">
        <ele>1391.5999755859</ele>
        <time>2021-06-21T07:59:17.831Z</time>
      </trkpt>
      <trkpt lat="44.23916" lon="6.19274">
        <ele>1391.5999755859</ele>
        <time>2021-06-21T07:59:27.168Z</time>
      </trkpt>
      <trkpt lat="44.23915" lon="6.19261">
        <ele>1390.4000244141</ele>
        <time>2021-06-21T07:59:36.508Z</time>
      </trkpt>
      <trkpt lat="44.2392" lon="6.19149">
        <ele>1390.4000244141</ele>
        <time>2021-06-21T07:59:45.878Z</time>
      </trkpt>
      <trkpt lat="44.23928" lon="6.19102">
        <ele>1390.4000244141</ele>
        <time>2021-06-21T07:59:55.261Z</time>
      </trkpt>
      <trkpt lat="44.23958" lon="6.19035">
        <ele>1390.4000244141</ele>
        <time>2021-06-21T08:00:04.665Z</time>
      </trkpt>
      <trkpt lat="44.23962" lon="6.1902">
        <ele>1387.1999511719</ele>
        <time>2021-06-21T08:00:14.073Z</time>
      </trkpt>
      <trkpt lat="44.23974" lon="6.1892">
        <ele>1387.1999511719</ele>
        <time>2021-06-21T08:00:23.508Z</time>
      </trkpt>
      <trkpt lat="44.23997" lon="6.18842">
        <ele>1387.5999755859</ele>
        <time>2021-06-21T08:00:32.965Z</time>
      </trkpt>
      <trkpt lat="44.24005" lon="6.18797">
        <ele>1387.5999755859</ele>
        <time>2021-06-21T08:00:42.434Z</time>
      </trkpt>
      <trkpt lat="44.24005" lon="6.18744">
        <ele>1387.5999755859</ele>
        <time>2021-06-21T08:00:51.917Z</time>
      </trkpt>
      <trkpt lat="44.23999" lon="6.1866">
        <ele>1387.5999755859</ele>
        <time>2021-06-21T08:01:01.423Z</time>
      </trkpt>
      <trkpt lat="44.24001" lon="6.18647">
        <ele>1392.1999511719</ele>
        <time>2021-06-21T08:01:10.932Z</time>
      </trkpt>
      <trkpt lat="44.24012" lon="6.1862">
        <ele>1392.1999511719</ele>
        <time>2021-06-21T08:01:20.450Z</time>
      </trkpt>
      <trkpt lat="44.24019" lon="6.18597">
        <ele>1392.1999511719</ele>
        <time>2021-06-21T08:01:29.974Z</time>
      </trkpt>
      <trkpt lat="44.24026" lon="6.18582">
        <ele>1395.1999511719</ele>
        <time>2021-06-21T08:01:39.503Z</time>
      </trkpt>
      <trkpt lat="44.24035" lon="6.18571">
        <ele>1396</ele>
        <time>2021-06-21T08:01:49.036Z</time>
      </trkpt>
      <trkpt lat="44.24044" lon="6.18555">
        <ele>1396</ele>
        <time>2021-06-21T08:01:58.575Z</time>
      </trkpt>
      <trkpt lat="44.24046" lon="6.1855">
        <ele>1397.1999511719</ele>
        <time>2021-06-21T08:02:08.115Z</time>
      </trkpt>
      <trkpt lat="44.24048" lon="6.1851">
        <ele>1398.1999511719</ele>
        <time>2021-06-21T08:02:17.666Z</time>
      </trkpt>
      <trkpt lat="44.24052" lon="6.1849">
        <ele>1398.1999511719</ele>
        <time>2021-06-21T08:02:27.222Z</time>
      </trkpt>
      <trkpt lat="44.24061" lon="6.18466">
        <ele>1398.1999511719</ele>
        <time>2021-06-21T08:02:36.785Z</time>
      </trkpt>
      <trkpt lat="44.24071" lon="6.18454">
        <ele>1399.5999755859</ele>
        <time>2021-06-21T08:02:46.353Z</time>
      </trkpt>
      <trkpt lat="44.24076" lon="6.18438">
        <ele>1399.5999755859</ele>
        <time>2021-06-21T08:02:55.926Z</time>
      </trkpt>
      <trkpt lat="44.24078" lon="6.18396">
        <ele>1399.5999755859</ele>
        <time>2021-06-21T08:03:05.510Z</time>
      </trkpt>
      <trkpt lat="44.24073" lon="6.18345">
        <ele>1399.5999755859</ele>
        <time>2021-06-21T08:03:15.108Z</time>
      </trkpt>
      <trkpt lat="44.24075" lon="6.18333">
        <ele>1403.5999755859</ele>
        <time>2021-06-21T08:03:24.709Z</time>
      </trkpt>
      <trkpt lat="44.2408" lon="6.18318">
        <ele>1403.5999755859</ele>
        <time>2021-06-21T08:03:34.314Z</time>
      </trkpt>
      <trkpt lat="44.24091" lon="6.18297">
        <ele>1405.1999511719</ele>
        <time>2021-06-21T08:03:43.926Z</time>
      </trkpt>
      <trkpt lat="44.2409" lon="6.1829">
        <ele>1405.4000244141</ele>
        <time>2021-06-21T08:03:53.540Z</time>
      </trkpt>
      <trkpt lat="44.24068" lon="6.18256">
        <ele>1405.4000244141</ele>
        <time>2021-06-21T08:04:03.167Z</time>
      </trkpt>
      <trkpt lat="44.24063" lon="6.18244">
        <ele>1403.4000244141</ele>
        <time>2021-06-21T08:04:12.797Z</time>
      </trkpt>
      <trkpt lat="44.24059" lon="6.18225">
        <ele>1403</ele>
        <time>2021-06-21T08:04:22.432Z</time>
      </trkpt>
      <trkpt lat="44.24056" lon="6.18221">
        <ele>1403</ele>
        <time>2021-06-21T08:04:32.069Z</time>
      </trkpt>
      <trkpt lat="44.24059" lon="6.18213">
        <ele>1403</ele>
        <time>2021-06-21T08:04:41.708Z</time>
      </trkpt>
      <trkpt lat="44.24049" lon="6.1819">
        <ele>1405</ele>
        <time>2021-06-21T08:04:51.354Z</time>
      </trkpt>
      <trkpt lat="44.24044" lon="6.18171">
        <ele>1405</ele>
        <time>2021-06-21T08:05:01.006Z</time>
      </trkpt>
      <trkpt lat="44.24042" lon="6.18148">
        <ele>1405</ele>
        <time>2021-06-21T08:05:10.664Z</time>
      </trkpt>
      <trkpt lat="44.24044" lon="6.18136">
        <ele>1405</ele>
        <time>2021-06-21T08:05:20.325Z</time>
      </trkpt>
      <trkpt lat="44.24046" lon="6.18128">
        <ele>1408.4000244141</ele>
        <time>2021-06-21T08:05:29.989Z</time>
      </trkpt>
      <trkpt lat="44.24049" lon="6.18124">
        <ele>1408.8000488281</ele>
        <time>2021-06-21T08:05:39.654Z</time>
      </trkpt>
      <trkpt lat="44.24048" lon="6.18118">
        <ele>1408.8000488281</ele>
        <time>2021-06-21T08:05:49.321Z</time>
      </trkpt>
      <trkpt lat="44.24062" lon="6.18083">
        <ele>1412</ele>
        <time>2021-06-21T08:05:58.998Z</time>
      </trkpt>
      <trkpt lat="44.24085" lon="6.18048">
        <ele>1412</ele>
        <time>2021-06-21T08:06:08.688Z</time>
      </trkpt>
      <trkpt lat="44.24106" lon="6.18025">
        <ele>1412</ele>
        <time>2021-06-21T08:06:18.388Z</time>
      </trkpt>
      <trkpt lat="44.24114" lon="6.18009">
        <ele>1418.1999511719</ele>
        <time>2021-06-21T08:06:28.093Z</time>
      </trkpt>
      <trkpt lat="44.24116" lon="6.17985">
        <ele>1418.1999511719</ele>
        <time>2021-06-21T08:06:37.804Z</time>
      </trkpt>
      <trkpt lat="44.24121" lon="6.17964">
        <ele>1421.4000244141</ele>
        <time>2021-06-21T08:06:47.521Z</time>
      </trkpt>
      <trkpt lat="44.24118" lon="6.17939">
        <ele>1421.4000244141</ele>
        <time>2021-06-21T08:06:57.245Z</time>
      </trkpt>
      <trkpt lat="44.24122" lon="6.17929">
        <ele>1421.4000244141</ele>
        <time>2021-06-21T08:07:06.972Z</time>
      </trkpt>
      <trkpt lat="44.24122" lon="6.17915">
        <ele>1425.1999511719</ele>
        <time>2021-06-21T08:07:16.702Z</time>
      </trkpt>
      <trkpt lat="44.24113" lon="6.17878">
        <ele>1425.1999511719</ele>
        <time>2021-06-21T08:07:26.443Z</time>
      </trkpt>
      <trkpt lat="44.24112" lon="6.17858">
        <ele>1425.1999511719</ele>
        <time>2021-06-21T08:07:36.189Z</time>
      </trkpt>
      <trkpt lat="44.24116" lon="6.17854">
        <ele>1428.1999511719</ele>
        <time>2021-06-21T08:07:45.937Z</time>
      </trkpt>
      <trkpt lat="44.24139" lon="6.17843">
        <ele>1431.1999511719</ele>
        <time>2021-06-21T08:07:55.694Z</time>
      </trkpt>
      <trkpt lat="44.24155" lon="6.17829">
        <ele>1431.1999511719</ele>
        <time>2021-06-21T08:08:05.458Z</time>
      </trkpt>
      <trkpt lat="44.24165" lon="6.17812">
        <ele>1431.1999511719</ele>
        <time>2021-06-21T08:08:15.228Z</time>
      </trkpt>
      <trkpt lat="44.24173" lon="6.17789">
        <ele>1439</ele>
        <time>2021-06-21T08:08:25.004Z</time>
      </trkpt>
      <trkpt lat="44.24177" lon="6.17783">
        <ele>1440.1999511719</ele>
        <time>2021-06-21T08:08:34.782Z</time>
      </trkpt>
      <trkpt lat="44.24201" lon="6.17764">
        <ele>1440.1999511719</ele>
        <time>2021-06-21T08:08:44.571Z</time>
      </trkpt>
      <trkpt lat="44.24209" lon="6.17756">
        <ele>1440.1999511719</ele>
        <time>2021-06-21T08:08:54.363Z</time>
      </trkpt>
      <trkpt lat="44.24226" lon="6.17719">
        <ele>1440.1999511719</ele>
        <time>2021-06-21T08:09:04.167Z</time>
      </trkpt>
      <trkpt lat="44.24241" lon="6.17652">
        <ele>1452.1999511719</ele>
        <time>2021-06-21T08:09:13.990Z</time>
      </trkpt>
      <trkpt lat="44.24245" lon="6.17642">
        <ele>1452.1999511719</ele>
        <time>2021-06-21T08:09:23.816Z</time>
      </trkpt>
      <trkpt lat="44.24259" lon="6.17626">
        <ele>1457.1999511719</ele>
        <time>2021-06-21T08:09:33.648Z</time>
      </trkpt>
      <trkpt lat="44.24261" lon="6.17601">
        <ele>1460.5999755859</ele>
        <time>2021-06-21T08:09:43.487Z</time>
      </trkpt>
      <trkpt lat="44.24265" lon="6.17589">
        <ele>1460.5999755859</ele>
        <time>2021-06-21T08:09:53.330Z</time>
      </trkpt>
      <trkpt lat="44.24277" lon="6.1757">
        <ele>1460.5999755859</ele>
        <time>2021-06-21T08:10:03.179Z</time>
      </trkpt>
      <trkpt lat="44.24289" lon="6.17562">
        <ele>1465</ele>
        <time>2021-06-21T08:10:13.033Z</time>
      </trkpt>
      <trkpt lat="44.24307" lon="6.17561">
        <ele>1465</ele>
        <time>2021-06-21T08:10:22.894Z</time>
      </trkpt>
      <trkpt lat="44.24309" lon="6.17557">
        <ele>1468.5999755859</ele>
        <time>2021-06-21T08:10:32.756Z</time>
      </trkpt>
      <trkpt lat="44.24307" lon="6.17545">
        <ele>1468.5999755859</ele>
        <time>2021-06-21T08:10:42.621Z</time>
      </trkpt>
      <trkpt lat="44.24313" lon="6.17532">
        <ele>1468.5999755859</ele>
        <time>2021-06-21T08:10:52.490Z</time>
      </trkpt>
      <trkpt lat="44.24325" lon="6.17523">
        <ele>1468.5999755859</ele>
        <time>2021-06-21T08:11:02.364Z</time>
      </trkpt>
      <trkpt lat="44.2434" lon="6.17517">
        <ele>1473.4000244141</ele>
        <time>2021-06-21T08:11:12.244Z</time>
      </trkpt>
      <trkpt lat="44.24349" lon="6.17506">
        <ele>1475.8000488281</ele>
        <time>2021-06-21T08:11:22.128Z</time>
      </trkpt>
      <trkpt lat="44.24354" lon="6.17497">
        <ele>1475.8000488281</ele>
        <time>2021-06-21T08:11:32.016Z</time>
      </trkpt>
      <trkpt lat="44.24361" lon="6.17469">
        <ele>1475.8000488281</ele>
        <time>2021-06-21T08:11:41.911Z</time>
      </trkpt>
      <trkpt lat="44.24365" lon="6.17463">
        <ele>1483</ele>
        <time>2021-06-21T08:11:51.809Z</time>
      </trkpt>
      <trkpt lat="44.24376" lon="6.17454">
        <ele>1487</ele>
        <time>2021-06-21T08:12:01.711Z</time>
      </trkpt>
      <trkpt lat="44.24391" lon="6.17439">
        <ele>1490.8000488281</ele>
        <time>2021-06-21T08:12:11.620Z</time>
      </trkpt>
      <trkpt lat="44.24396" lon="6.17432">
        <ele>1490.8000488281</ele>
        <time>2021-06-21T08:12:21.532Z</time>
      </trkpt>
      <trkpt lat="44.24409" lon="6.17358">
        <ele>1501.5999755859</ele>
        <time>2021-06-21T08:12:31.464Z</time>
      </trkpt>
      <trkpt lat="44.24414" lon="6.1735">
        <ele>1502.8000488281</ele>
        <time>2021-06-21T08:12:41.399Z</time>
      </trkpt>
      <trkpt lat="44.24417" lon="6.17337">
        <ele>1502.8000488281</ele>
        <time>2021-06-21T08:12:51.337Z</time>
      </trkpt>
      <trkpt lat="44.2442" lon="6.17303">
        <ele>1509</ele>
        <time>2021-06-21T08:13:01.284Z</time>
      </trkpt>
      <trkpt lat="44.24419" lon="6.17287">
        <ele>1511.4000244141</ele>
        <time>2021-06-21T08:13:11.236Z</time>
      </trkpt>
      <trkpt lat="44.24423" lon="6.17273">
        <ele>1511.4000244141</ele>
        <time>2021-06-21T08:13:21.192Z</time>
      </trkpt>
      <trkpt lat="44.24424" lon="6.17258">
        <ele>1514.8000488281</ele>
        <time>2021-06-21T08:13:31.151Z</time>
      </trkpt>
      <trkpt lat="44.24419" lon="6.17232">
        <ele>1518.4000244141</ele>
        <time>2021-06-21T08:13:41.118Z</time>
      </trkpt>
      <trkpt lat="44.24417" lon="6.17213">
        <ele>1518.4000244141</ele>
        <time>2021-06-21T08:13:51.090Z</time>
      </trkpt>
      <trkpt lat="44.24419" lon="6.17189">
        <ele>1518.4000244141</ele>
        <time>2021-06-21T08:14:01.068Z</time>
      </trkpt>
      <trkpt lat="44.24422" lon="6.17177">
        <ele>1527</ele>
        <time>2021-06-21T08:14:11.050Z</time>
      </trkpt>
      <trkpt lat="44.24421" lon="6.17173">
        <ele>1527</ele>
        <time>2021-06-21T08:14:21.033Z</time>
      </trkpt>
      <trkpt lat="44.24415" lon="6.17166">
        <ele>1527</ele>
        <time>2021-06-21T08:14:31.019Z</time>
      </trkpt>
      <trkpt lat="44.24413" lon="6.17149">
        <ele>1534</ele>
        <time>2021-06-21T08:14:41.009Z</time>
      </trkpt>
      <trkpt lat="44.24409" lon="6.1713">
        <ele>1538.4000244141</ele>
        <time>2021-06-21T08:14:51.005Z</time>
      </trkpt>
      <trkpt lat="44.24412" lon="6.17112">
        <ele>1540.4000244141</ele>
        <time>2021-06-21T08:15:01.005Z</time>
      </trkpt>
      <trkpt lat="44.24408" lon="6.17109">
        <ele>1541</ele>
        <time>2021-06-21T08:15:11.007Z</time>
      </trkpt>
      <trkpt lat="44.24405" lon="6.17103">
        <ele>1540.8000488281</ele>
        <time>2021-06-21T08:15:21.011Z</time>
      </trkpt>
      <trkpt lat="44.24406" lon="6.17086">
        <ele>1542</ele>
        <time>2021-06-21T08:15:31.020Z</time>
      </trkpt>
      <trkpt lat="44.24409" lon="6.17082">
        <ele>1543.4000244141</ele>
        <time>2021-06-21T08:15:41.030Z</time>
      </trkpt>
      <trkpt lat="44.24402" lon="6.17022">
        <ele>1550.8000488281</ele>
        <time>2021-06-21T08:15:51.056Z</time>
      </trkpt>
      <trkpt lat="44.24399" lon="6.16976">
        <ele>1556.4000244141</ele>
        <time>2021-06-21T08:16:01.094Z</time>
      </trkpt>
      <trkpt lat="44.24406" lon="6.1694">
        <ele>1556.4000244141</ele>
        <time>2021-06-21T08:16:11.142Z</time>
      </trkpt>
      <trkpt lat="44.24409" lon="6.16929">
        <ele>1558</ele>
        <time>2021-06-21T08:16:21.193Z</time>
      </trkpt>
      <trkpt lat="44.24412" lon="6.16926">
        <ele>1557.1999511719</ele>
        <time>2021-06-21T08:16:31.246Z</time>
      </trkpt>
      <trkpt lat="44.24431" lon="6.16887">
        <ele>1555.5999755859</ele>
        <time>2021-06-21T08:16:41.311Z</time>
      </trkpt>
      <trkpt lat="44.24436" lon="6.16882">
        <ele>1555</ele>
        <time>2021-06-21T08:16:51.378Z</time>
      </trkpt>
      <trkpt lat="44.24441" lon="6.16873">
        <ele>1554.5999755859</ele>
        <time>2021-06-21T08:17:01.448Z</time>
      </trkpt>
      <trkpt lat="44.24443" lon="6.16856">
        <ele>1554.5999755859</ele>
        <time>2021-06-21T08:17:11.523Z</time>
      </trkpt>
      <trkpt lat="44.24454" lon="6.16827">
        <ele>1551.4000244141</ele>
        <time>2021-06-21T08:17:21.607Z</time>
      </trkpt>
      <trkpt lat="44.24461" lon="6.16799">
        <ele>1551.4000244141</ele>
        <time>2021-06-21T08:17:31.698Z</time>
      </trkpt>
      <trkpt lat="44.2447" lon="6.16753">
        <ele>1551.4000244141</ele>
        <time>2021-06-21T08:17:41.802Z</time>
      </trkpt>
      <trkpt lat="44.24477" lon="6.16735">
        <ele>1547.5999755859</ele>
        <time>2021-06-21T08:17:51.911Z</time>
      </trkpt>
      <trkpt lat="44.24472" lon="6.16722">
        <ele>1547.5999755859</ele>
        <time>2021-06-21T08:18:02.024Z</time>
      </trkpt>
      <trkpt lat="44.24472" lon="6.16714">
        <ele>1546.5999755859</ele>
        <time>2021-06-21T08:18:12.139Z</time>
      </trkpt>
      <trkpt lat="44.24475" lon="6.16675">
        <ele>1545.1999511719</ele>
        <time>2021-06-21T08:18:22.265Z</time>
      </trkpt>
      <trkpt lat="44.24474" lon="6.16654">
        <ele>1543.4000244141</ele>
        <time>2021-06-21T08:18:32.397Z</time>
      </trkpt>
      <trkpt lat="44.24478" lon="6.16582">
        <ele>1538.1999511719</ele>
        <time>2021-06-21T08:18:42.548Z</time>
      </trkpt>
      <trkpt lat="44.24477" lon="6.16524">
        <ele>1536.5999755859</ele>
        <time>2021-06-21T08:18:52.714Z</time>
      </trkpt>
      <trkpt lat="44.24481" lon="6.16487">
        <ele>1536.5999755859</ele>
        <time>2021-06-21T08:19:02.890Z</time>
      </trkpt>
      <trkpt lat="44.24503" lon="6.16426">
        <ele>1537.4000244141</ele>
        <time>2021-06-21T08:19:13.084Z</time>
      </trkpt>
      <trkpt lat="44.24509" lon="6.16399">
        <ele>1538.5999755859</ele>
        <time>2021-06-21T08:19:23.285Z</time>
      </trkpt>
      <trkpt lat="44.24511" lon="6.16364">
        <ele>1539</ele>
        <time>2021-06-21T08:19:33.496Z</time>
      </trkpt>
      <trkpt lat="44.24509" lon="6.16311">
        <ele>1539</ele>
        <time>2021-06-21T08:19:43.721Z</time>
      </trkpt>
      <trkpt lat="44.2451" lon="6.1629">
        <ele>1540</ele>
        <time>2021-06-21T08:19:53.951Z</time>
      </trkpt>
      <trkpt lat="44.24516" lon="6.16249">
        <ele>1539</ele>
        <time>2021-06-21T08:20:04.192Z</time>
      </trkpt>
      <trkpt lat="44.24516" lon="6.16222">
        <ele>1539</ele>
        <time>2021-06-21T08:20:14.441Z</time>
      </trkpt>
      <trkpt lat="44.24514" lon="6.16201">
        <ele>1539</ele>
        <time>2021-06-21T08:20:24.695Z</time>
      </trkpt>
      <trkpt lat="44.24517" lon="6.16175">
        <ele>1535.5999755859</ele>
        <time>2021-06-21T08:20:34.956Z</time>
      </trkpt>
      <trkpt lat="44.24538" lon="6.16122">
        <ele>1535.5999755859</ele>
        <time>2021-06-21T08:20:45.233Z</time>
      </trkpt>
      <trkpt lat="44.24545" lon="6.16093">
        <ele>1530</ele>
        <time>2021-06-21T08:20:55.518Z</time>
      </trkpt>
      <trkpt lat="44.24551" lon="6.16033">
        <ele>1530</ele>
        <time>2021-06-21T08:21:05.819Z</time>
      </trkpt>
      <trkpt lat="44.24561" lon="6.16013">
        <ele>1530</ele>
        <time>2021-06-21T08:21:16.127Z</time>
      </trkpt>
      <trkpt lat="44.24575" lon="6.15998">
        <ele>1530</ele>
        <time>2021-06-21T08:21:26.441Z</time>
      </trkpt>
      <trkpt lat="44.24577" lon="6.15993">
        <ele>1528.4000244141</ele>
        <time>2021-06-21T08:21:36.757Z</time>
      </trkpt>
      <trkpt lat="44.24592" lon="6.15957">
        <ele>1528.4000244141</ele>
        <time>2021-06-21T08:21:47.084Z</time>
      </trkpt>
      <trkpt lat="44.2461" lon="6.15919">
        <ele>1528.4000244141</ele>
        <time>2021-06-21T08:21:57.423Z</time>
      </trkpt>
      <trkpt lat="44.24622" lon="6.15874">
        <ele>1528.4000244141</ele>
        <time>2021-06-21T08:22:07.775Z</time>
      </trkpt>
      <trkpt lat="44.24633" lon="6.1578">
        <ele>1528.4000244141</ele>
        <time>2021-06-21T08:22:18.152Z</time>
      </trkpt>
      <trkpt lat="44.24634" lon="6.15752">
        <ele>1528.4000244141</ele>
        <time>2021-06-21T08:22:28.536Z</time>
      </trkpt>
      <trkpt lat="44.24626" lon="6.15667">
        <ele>1522</ele>
        <time>2021-06-21T08:22:38.943Z</time>
      </trkpt>
      <trkpt lat="44.2463" lon="6.15615">
        <ele>1522</ele>
        <time>2021-06-21T08:22:49.364Z</time>
      </trkpt>
      <trkpt lat="44.2464" lon="6.15579">
        <ele>1519.4000244141</ele>
        <time>2021-06-21T08:22:59.795Z</time>
      </trkpt>
      <trkpt lat="44.24639" lon="6.15558">
        <ele>1518.5999755859</ele>
        <time>2021-06-21T08:23:10.232Z</time>
      </trkpt>
      <trkpt lat="44.24635" lon="6.15543">
        <ele>1517.5999755859</ele>
        <time>2021-06-21T08:23:20.673Z</time>
      </trkpt>
      <trkpt lat="44.24624" lon="6.15441">
        <ele>1517.5999755859</ele>
        <time>2021-06-21T08:23:31.141Z</time>
      </trkpt>
      <trkpt lat="44.24621" lon="6.15406">
        <ele>1509</ele>
        <time>2021-06-21T08:23:41.619Z</time>
      </trkpt>
      <trkpt lat="44.24621" lon="6.15334">
        <ele>1502</ele>
        <time>2021-06-21T08:23:52.116Z</time>
      </trkpt>
      <trkpt lat="44.24612" lon="6.1531">
        <ele>1498</ele>
        <time>2021-06-21T08:24:02.620Z</time>
      </trkpt>
      <trkpt lat="44.2461" lon="6.15301">
        <ele>1498</ele>
        <time>2021-06-21T08:24:13.126Z</time>
      </trkpt>
      <trkpt lat="44.24612" lon="6.15277">
        <ele>1491.5999755859</ele>
        <time>2021-06-21T08:24:23.639Z</time>
      </trkpt>
      <trkpt lat="44.24617" lon="6.15257">
        <ele>1491.5999755859</ele>
        <time>2021-06-21T08:24:34.157Z</time>
      </trkpt>
      <trkpt lat="44.24619" lon="6.1524">
        <ele>1485.8000488281</ele>
        <time>2021-06-21T08:24:44.680Z</time>
      </trkpt>
      <trkpt lat="44.24623" lon="6.1523">
        <ele>1484.4000244141</ele>
        <time>2021-06-21T08:24:55.206Z</time>
      </trkpt>
      <trkpt lat="44.2463" lon="6.15216">
        <ele>1483.5999755859</ele>
        <time>2021-06-21T08:25:05.736Z</time>
      </trkpt>
      <trkpt lat="44.24637" lon="6.15215">
        <ele>1483.5999755859</ele>
        <time>2021-06-21T08:25:16.269Z</time>
      </trkpt>
      <trkpt lat="44.24649" lon="6.15217">
        <ele>1484</ele>
        <time>2021-06-21T08:25:26.806Z</time>
      </trkpt>
      <trkpt lat="44.24651" lon="6.15215">
        <ele>1484</ele>
        <time>2021-06-21T08:25:37.344Z</time>
      </trkpt>
      <trkpt lat="44.24654" lon="6.15211">
        <ele>1484.1999511719</ele>
        <time>2021-06-21T08:25:47.884Z</time>
      </trkpt>
      <trkpt lat="44.24656" lon="6.15201">
        <ele>1484.1999511719</ele>
        <time>2021-06-21T08:25:58.426Z</time>
      </trkpt>
      <trkpt lat="44.24642" lon="6.15186">
        <ele>1481.4000244141</ele>
        <time>2021-06-21T08:26:08.975Z</time>
      </trkpt>
      <trkpt lat="44.2464" lon="6.15181">
        <ele>1481.4000244141</ele>
        <time>2021-06-21T08:26:19.525Z</time>
      </trkpt>
      <trkpt lat="44.24644" lon="6.15172">
        <ele>1481.4000244141</ele>
        <time>2021-06-21T08:26:30.078Z</time>
      </trkpt>
      <trkpt lat="44.24637" lon="6.15158">
        <ele>1481.4000244141</ele>
        <time>2021-06-21T08:26:40.636Z</time>
      </trkpt>
      <trkpt lat="44.24641" lon="6.1513">
        <ele>1481.4000244141</ele>
        <time>2021-06-21T08:26:51.201Z</time>
      </trkpt>
      <trkpt lat="44.24638" lon="6.15115">
        <ele>1481.4000244141</ele>
        <time>2021-06-21T08:27:01.771Z</time>
      </trkpt>
      <trkpt lat="44.2464" lon="6.15107">
        <ele>1470.5999755859</ele>
        <time>2021-06-21T08:27:12.343Z</time>
      </trkpt>
      <trkpt lat="44.24644" lon="6.15103">
        <ele>1470.5999755859</ele>
        <time>2021-06-21T08:27:22.916Z</time>
      </trkpt>
      <trkpt lat="44.24663" lon="6.15096">
        <ele>1467.8000488281</ele>
        <time>2021-06-21T08:27:33.497Z</time>
      </trkpt>
      <trkpt lat="44.24668" lon="6.15092">
        <ele>1465.8000488281</ele>
        <time>2021-06-21T08:27:44.080Z</time>
      </trkpt>
      <trkpt lat="44.24675" lon="6.15091">
        <ele>1463</ele>
        <time>2021-06-21T08:27:54.665Z</time>
      </trkpt>
      <trkpt lat="44.2469" lon="6.15095">
        <ele>1458</ele>
        <time>2021-06-21T08:28:05.256Z</time>
      </trkpt>
      <trkpt lat="44.24699" lon="6.151">
        <ele>1454.5999755859</ele>
        <time>2021-06-21T08:28:15.851Z</time>
      </trkpt>
      <trkpt lat="44.24703" lon="6.15106">
        <ele>1453.1999511719</ele>
        <time>2021-06-21T08:28:26.448Z</time>
      </trkpt>
      <trkpt lat="44.24707" lon="6.15119">
        <ele>1451.1999511719</ele>
        <time>2021-06-21T08:28:37.048Z</time>
      </trkpt>
      <trkpt lat="44.2471" lon="6.15119">
        <ele>1450</ele>
        <time>2021-06-21T08:28:47.650Z</time>
      </trkpt>
      <trkpt lat="44.24713" lon="6.15115">
        <ele>1450</ele>
        <time>2021-06-21T08:28:58.253Z</time>
      </trkpt>
      <trkpt lat="44.24716" lon="6.15114">
        <ele>1450</ele>
        <time>2021-06-21T08:29:08.857Z</time>
      </trkpt>
      <trkpt lat="44.24723" lon="6.1513">
        <ele>1445</ele>
        <time>2021-06-21T08:29:19.466Z</time>
      </trkpt>
      <trkpt lat="44.24724" lon="6.15145">
        <ele>1445</ele>
        <time>2021-06-21T08:29:30.079Z</time>
      </trkpt>
      <trkpt lat="44.2473" lon="6.1516">
        <ele>1445</ele>
        <time>2021-06-21T08:29:40.697Z</time>
      </trkpt>
      <trkpt lat="44.24731" lon="6.15166">
        <ele>1445</ele>
        <time>2021-06-21T08:29:51.316Z</time>
      </trkpt>
      <trkpt lat="44.24743" lon="6.15187">
        <ele>1435.5999755859</ele>
        <time>2021-06-21T08:30:01.943Z</time>
      </trkpt>
      <trkpt lat="44.24756" lon="6.1522">
        <ele>1435.5999755859</ele>
        <time>2021-06-21T08:30:12.579Z</time>
      </trkpt>
      <trkpt lat="44.24765" lon="6.15231">
        <ele>1435.5999755859</ele>
        <time>2021-06-21T08:30:23.220Z</time>
      </trkpt>
      <trkpt lat="44.24772" lon="6.15242">
        <ele>1421.4000244141</ele>
        <time>2021-06-21T08:30:33.865Z</time>
      </trkpt>
      <trkpt lat="44.24786" lon="6.15282">
        <ele>1412.5999755859</ele>
        <time>2021-06-21T08:30:44.522Z</time>
      </trkpt>
      <trkpt lat="44.24787" lon="6.15274">
        <ele>1410.1999511719</ele>
        <time>2021-06-21T08:30:55.181Z</time>
      </trkpt>
      <trkpt lat="44.24788" lon="6.15274">
        <ele>1410.1999511719</ele>
        <time>2021-06-21T08:31:05.840Z</time>
      </trkpt>
      <trkpt lat="44.24796" lon="6.15286">
        <ele>1406.5999755859</ele>
        <time>2021-06-21T08:31:16.504Z</time>
      </trkpt>
      <trkpt lat="44.24809" lon="6.15296">
        <ele>1402.8000488281</ele>
        <time>2021-06-21T08:31:27.173Z</time>
      </trkpt>
      <trkpt lat="44.24823" lon="6.15314">
        <ele>1402.8000488281</ele>
        <time>2021-06-21T08:31:37.849Z</time>
      </trkpt>
      <trkpt lat="44.24831" lon="6.15325">
        <ele>1402.8000488281</ele>
        <time>2021-06-21T08:31:48.529Z</time>
      </trkpt>
      <trkpt lat="44.24835" lon="6.15335">
        <ele>1402.8000488281</ele>
        <time>2021-06-21T08:31:59.212Z</time>
      </trkpt>
      <trkpt lat="44.24839" lon="6.1534">
        <ele>1402.8000488281</ele>
        <time>2021-06-21T08:32:09.897Z</time>
      </trkpt>
      <trkpt lat="44.24845" lon="6.15344">
        <ele>1388.8000488281</ele>
        <time>2021-06-21T08:32:20.585Z</time>
      </trkpt>
      <trkpt lat="44.2485" lon="6.15345">
        <ele>1388.8000488281</ele>
        <time>2021-06-21T08:32:31.275Z</time>
      </trkpt>
      <trkpt lat="44.24868" lon="6.15338">
        <ele>1382</ele>
        <time>2021-06-21T08:32:41.972Z</time>
      </trkpt>
      <trkpt lat="44.24877" lon="6.15338">
        <ele>1382</ele>
        <time>2021-06-21T08:32:52.672Z</time>
      </trkpt>
      <trkpt lat="44.24895" lon="6.15342">
        <ele>1375.4000244141</ele>
        <time>2021-06-21T08:33:03.378Z</time>
      </trkpt>
      <trkpt lat="44.24898" lon="6.1534">
        <ele>1374</ele>
        <time>2021-06-21T08:33:14.086Z</time>
      </trkpt>
      <trkpt lat="44.24909" lon="6.15327">
        <ele>1374</ele>
        <time>2021-06-21T08:33:24.799Z</time>
      </trkpt>
      <trkpt lat="44.24907" lon="6.15318">
        <ele>1374</ele>
        <time>2021-06-21T08:33:35.514Z</time>
      </trkpt>
      <trkpt lat="44.24902" lon="6.1531">
        <ele>1368.4000244141</ele>
        <time>2021-06-21T08:33:46.233Z</time>
      </trkpt>
      <trkpt lat="44.24902" lon="6.15303">
        <ele>1368.4000244141</ele>
        <time>2021-06-21T08:33:56.953Z</time>
      </trkpt>
      <trkpt lat="44.24915" lon="6.15255">
        <ele>1368.4000244141</ele>
        <time>2021-06-21T08:34:07.687Z</time>
      </trkpt>
      <trkpt lat="44.24922" lon="6.15214">
        <ele>1368.4000244141</ele>
        <time>2021-06-21T08:34:18.432Z</time>
      </trkpt>
      <trkpt lat="44.24921" lon="6.1518">
        <ele>1351.4000244141</ele>
        <time>2021-06-21T08:34:29.186Z</time>
      </trkpt>
      <trkpt lat="44.24916" lon="6.15137">
        <ele>1348.1999511719</ele>
        <time>2021-06-21T08:34:39.952Z</time>
      </trkpt>
      <trkpt lat="44.2492" lon="6.15112">
        <ele>1342.1999511719</ele>
        <time>2021-06-21T08:34:50.724Z</time>
      </trkpt>
      <trkpt lat="44.24928" lon="6.15087">
        <ele>1342.1999511719</ele>
        <time>2021-06-21T08:35:01.504Z</time>
      </trkpt>
      <trkpt lat="44.24929" lon="6.15052">
        <ele>1342.1999511719</ele>
        <time>2021-06-21T08:35:12.293Z</time>
      </trkpt>
      <trkpt lat="44.24938" lon="6.15031">
        <ele>1342.1999511719</ele>
        <time>2021-06-21T08:35:23.088Z</time>
      </trkpt>
      <trkpt lat="44.24939" lon="6.14997">
        <ele>1320.5999755859</ele>
        <time>2021-06-21T08:35:33.892Z</time>
      </trkpt>
      <trkpt lat="44.24925" lon="6.1492">
        <ele>1311.5999755859</ele>
        <time>2021-06-21T08:35:44.718Z</time>
      </trkpt>
      <trkpt lat="44.24918" lon="6.14894">
        <ele>1311.5999755859</ele>
        <time>2021-06-21T08:35:55.551Z</time>
      </trkpt>
      <trkpt lat="44.24917" lon="6.14877">
        <ele>1303.8000488281</ele>
        <time>2021-06-21T08:36:06.388Z</time>
      </trkpt>
      <trkpt lat="44.24911" lon="6.14865">
        <ele>1302</ele>
        <time>2021-06-21T08:36:17.229Z</time>
      </trkpt>
      <trkpt lat="44.24905" lon="6.14862">
        <ele>1302</ele>
        <time>2021-06-21T08:36:28.073Z</time>
      </trkpt>
      <trkpt lat="44.24903" lon="6.14857">
        <ele>1300.1999511719</ele>
        <time>2021-06-21T08:36:38.918Z</time>
      </trkpt>
      <trkpt lat="44.24906" lon="6.14831">
        <ele>1300.1999511719</ele>
        <time>2021-06-21T08:36:49.770Z</time>
      </trkpt>
      <trkpt lat="44.24911" lon="6.14823">
        <ele>1300.1999511719</ele>
        <time>2021-06-21T08:37:00.625Z</time>
      </trkpt>
      <trkpt lat="44.2492" lon="6.14794">
        <ele>1300.1999511719</ele>
        <time>2021-06-21T08:37:11.488Z</time>
      </trkpt>
      <trkpt lat="44.24918" lon="6.14786">
        <ele>1300.1999511719</ele>
        <time>2021-06-21T08:37:22.354Z</time>
      </trkpt>
      <trkpt lat="44.24918" lon="6.14779">
        <ele>1300.1999511719</ele>
        <time>2021-06-21T08:37:33.221Z</time>
      </trkpt>
      <trkpt lat="44.24926" lon="6.14765">
        <ele>1300.1999511719</ele>
        <time>2021-06-21T08:37:44.093Z</time>
      </trkpt>
      <trkpt lat="44.24927" lon="6.1476">
        <ele>1283.8000488281</ele>
        <time>2021-06-21T08:37:54.967Z</time>
      </trkpt>
      <trkpt lat="44.24923" lon="6.14747">
        <ele>1281.1999511719</ele>
        <time>2021-06-21T08:38:05.844Z</time>
      </trkpt>
      <trkpt lat="44.24914" lon="6.14742">
        <ele>1281.1999511719</ele>
        <time>2021-06-21T08:38:16.724Z</time>
      </trkpt>
      <trkpt lat="44.24918" lon="6.14729">
        <ele>1276</ele>
        <time>2021-06-21T08:38:27.608Z</time>
      </trkpt>
      <trkpt lat="44.24925" lon="6.14718">
        <ele>1276</ele>
        <time>2021-06-21T08:38:38.496Z</time>
      </trkpt>
      <trkpt lat="44.24925" lon="6.14713">
        <ele>1271.8000488281</ele>
        <time>2021-06-21T08:38:49.385Z</time>
      </trkpt>
      <trkpt lat="44.2492" lon="6.14704">
        <ele>1271.8000488281</ele>
        <time>2021-06-21T08:39:00.277Z</time>
      </trkpt>
      <trkpt lat="44.2492" lon="6.14693">
        <ele>1271.8000488281</ele>
        <time>2021-06-21T08:39:11.172Z</time>
      </trkpt>
      <trkpt lat="44.24926" lon="6.14661">
        <ele>1264.8000488281</ele>
        <time>2021-06-21T08:39:22.076Z</time>
      </trkpt>
      <trkpt lat="44.2492" lon="6.14654">
        <ele>1262.4000244141</ele>
        <time>2021-06-21T08:39:32.983Z</time>
      </trkpt>
      <trkpt lat="44.24918" lon="6.14648">
        <ele>1262.4000244141</ele>
        <time>2021-06-21T08:39:43.892Z</time>
      </trkpt>
      <trkpt lat="44.24922" lon="6.14644">
        <ele>1259</ele>
        <time>2021-06-21T08:39:54.803Z</time>
      </trkpt>
      <trkpt lat="44.24929" lon="6.14642">
        <ele>1259</ele>
        <time>2021-06-21T08:40:05.716Z</time>
      </trkpt>
      <trkpt lat="44.24937" lon="6.14643">
        <ele>1259</ele>
        <time>2021-06-21T08:40:16.632Z</time>
      </trkpt>
      <trkpt lat="44.24938" lon="6.14649">
        <ele>1255.4000244141</ele>
        <time>2021-06-21T08:40:27.550Z</time>
      </trkpt>
      <trkpt lat="44.24941" lon="6.14655">
        <ele>1253.8000488281</ele>
        <time>2021-06-21T08:40:38.470Z</time>
      </trkpt>
      <trkpt lat="44.2495" lon="6.14638">
        <ele>1253.8000488281</ele>
        <time>2021-06-21T08:40:49.396Z</time>
      </trkpt>
      <trkpt lat="44.24954" lon="6.14624">
        <ele>1247.5999755859</ele>
        <time>2021-06-21T08:41:00.326Z</time>
      </trkpt>
      <trkpt lat="44.24954" lon="6.14615">
        <ele>1245</ele>
        <time>2021-06-21T08:41:11.258Z</time>
      </trkpt>
      <trkpt lat="44.24948" lon="6.14593">
        <ele>1245</ele>
        <time>2021-06-21T08:41:22.196Z</time>
      </trkpt>
      <trkpt lat="44.24944" lon="6.14582">
        <ele>1238.8000488281</ele>
        <time>2021-06-21T08:41:33.137Z</time>
      </trkpt>
      <trkpt lat="44.24939" lon="6.14575">
        <ele>1237</ele>
        <time>2021-06-21T08:41:44.081Z</time>
      </trkpt>
      <trkpt lat="44.24929" lon="6.14543">
        <ele>1234.8000488281</ele>
        <time>2021-06-21T08:41:55.034Z</time>
      </trkpt>
      <trkpt lat="44.24915" lon="6.14526">
        <ele>1233.8000488281</ele>
        <time>2021-06-21T08:42:05.994Z</time>
      </trkpt>
      <trkpt lat="44.24918" lon="6.14507">
        <ele>1233.8000488281</ele>
        <time>2021-06-21T08:42:16.959Z</time>
      </trkpt>
      <trkpt lat="44.2493" lon="6.14479">
        <ele>1232.5999755859</ele>
        <time>2021-06-21T08:42:27.933Z</time>
      </trkpt>
      <trkpt lat="44.24931" lon="6.14461">
        <ele>1233.1999511719</ele>
        <time>2021-06-21T08:42:38.911Z</time>
      </trkpt>
      <trkpt lat="44.24947" lon="6.14341">
        <ele>1233.1999511719</ele>
        <time>2021-06-21T08:42:49.922Z</time>
      </trkpt>
      <trkpt lat="44.24949" lon="6.14292">
        <ele>1233.1999511719</ele>
        <time>2021-06-21T08:43:00.946Z</time>
      </trkpt>
      <trkpt lat="44.24941" lon="6.14226">
        <ele>1233.1999511719</ele>
        <time>2021-06-21T08:43:11.988Z</time>
      </trkpt>
      <trkpt lat="44.24932" lon="6.14177">
        <ele>1233.1999511719</ele>
        <time>2021-06-21T08:43:23.043Z</time>
      </trkpt>
      <trkpt lat="44.24931" lon="6.14147">
        <ele>1222.8000488281</ele>
        <time>2021-06-21T08:43:34.106Z</time>
      </trkpt>
      <trkpt lat="44.24935" lon="6.14095">
        <ele>1221.5999755859</ele>
        <time>2021-06-21T08:43:45.183Z</time>
      </trkpt>
      <trkpt lat="44.24931" lon="6.14074">
        <ele>1221.5999755859</ele>
        <time>2021-06-21T08:43:56.266Z</time>
      </trkpt>
      <trkpt lat="44.24927" lon="6.14064">
        <ele>1220</ele>
        <time>2021-06-21T08:44:07.352Z</time>
      </trkpt>
      <trkpt lat="44.24922" lon="6.14054">
        <ele>1220</ele>
        <time>2021-06-21T08:44:18.441Z</time>
      </trkpt>
      <trkpt lat="44.2491" lon="6.14038">
        <ele>1218</ele>
        <time>2021-06-21T08:44:29.536Z</time>
      </trkpt>
      <trkpt lat="44.24884" lon="6.14014">
        <ele>1218</ele>
        <time>2021-06-21T08:44:40.642Z</time>
      </trkpt>
      <trkpt lat="44.24867" lon="6.1399">
        <ele>1216</ele>
        <time>2021-06-21T08:44:51.757Z</time>
      </trkpt>
      <trkpt lat="44.24842" lon="6.13959">
        <ele>1213.5999755859</ele>
        <time>2021-06-21T08:45:02.885Z</time>
      </trkpt>
      <trkpt lat="44.24828" lon="6.13948">
        <ele>1212.1999511719</ele>
        <time>2021-06-21T08:45:14.019Z</time>
      </trkpt>
      <trkpt lat="44.24799" lon="6.13937">
        <ele>1211.4000244141</ele>
        <time>2021-06-21T08:45:25.164Z</time>
      </trkpt>
      <trkpt lat="44.24786" lon="6.13927">
        <ele>1211.4000244141</ele>
        <time>2021-06-21T08:45:36.314Z</time>
      </trkpt>
      <trkpt lat="44.24769" lon="6.13903">
        <ele>1211.4000244141</ele>
        <time>2021-06-21T08:45:47.473Z</time>
      </trkpt>
      <trkpt lat="44.24742" lon="6.13857">
        <ele>1207.1999511719</ele>
        <time>2021-06-21T08:45:58.648Z</time>
      </trkpt>
      <trkpt lat="44.24729" lon="6.13829">
        <ele>1206.1999511719</ele>
        <time>2021-06-21T08:46:09.832Z</time>
      </trkpt>
      <trkpt lat="44.24723" lon="6.13809">
        <ele>1206.1999511719</ele>
        <time>2021-06-21T08:46:21.022Z</time>
      </trkpt>
      <trkpt lat="44.24704" lon="6.13728">
        <ele>1206.1999511719</ele>
        <time>2021-06-21T08:46:32.234Z</time>
      </trkpt>
      <trkpt lat="44.24697" lon="6.13708">
        <ele>1201.4000244141</ele>
        <time>2021-06-21T08:46:43.452Z</time>
      </trkpt>
      <trkpt lat="44.24683" lon="6.13682">
        <ele>1200.1999511719</ele>
        <time>2021-06-21T08:46:54.679Z</time>
      </trkpt>
      <trkpt lat="44.24658" lon="6.13653">
        <ele>1199.1999511719</ele>
        <time>2021-06-21T08:47:05.918Z</time>
      </trkpt>
      <trkpt lat="44.24641" lon="6.13629">
        <ele>1197.5999755859</ele>
        <time>2021-06-21T08:47:17.166Z</time>
      </trkpt>
      <trkpt lat="44.24614" lon="6.13575">
        <ele>1197.5999755859</ele>
        <time>2021-06-21T08:47:28.431Z</time>
      </trkpt>
      <trkpt lat="44.2459" lon="6.13553">
        <ele>1194.4000244141</ele>
        <time>2021-06-21T08:47:39.707Z</time>
      </trkpt>
      <trkpt lat="44.24523" lon="6.1348">
        <ele>1194.4000244141</ele>
        <time>2021-06-21T08:47:51.014Z</time>
      </trkpt>
      <trkpt lat="44.2451" lon="6.1347">
        <ele>1189.1999511719</ele>
        <time>2021-06-21T08:48:02.327Z</time>
      </trkpt>
      <trkpt lat="44.24453" lon="6.1344">
        <ele>1189.1999511719</ele>
        <time>2021-06-21T08:48:13.662Z</time>
      </trkpt>
      <trkpt lat="44.24427" lon="6.13422">
        <ele>1185.5999755859</ele>
        <time>2021-06-21T08:48:25.008Z</time>
      </trkpt>
      <trkpt lat="44.24379" lon="6.13376">
        <ele>1185.5999755859</ele>
        <time>2021-06-21T08:48:36.375Z</time>
      </trkpt>
      <trkpt lat="44.24368" lon="6.13368">
        <ele>1182</ele>
        <time>2021-06-21T08:48:47.747Z</time>
      </trkpt>
      <trkpt lat="44.24351" lon="6.13359">
        <ele>1180.8000488281</ele>
        <time>2021-06-21T08:48:59.125Z</time>
      </trkpt>
      <trkpt lat="44.24317" lon="6.13329">
        <ele>1179.8000488281</ele>
        <time>2021-06-21T08:49:10.518Z</time>
      </trkpt>
      <trkpt lat="44.24305" lon="6.13321">
        <ele>1179.8000488281</ele>
        <time>2021-06-21T08:49:21.916Z</time>
      </trkpt>
      <trkpt lat="44.2426" lon="6.13303">
        <ele>1179.8000488281</ele>
        <time>2021-06-21T08:49:33.331Z</time>
      </trkpt>
      <trkpt lat="44.24243" lon="6.13294">
        <ele>1177.8000488281</ele>
        <time>2021-06-21T08:49:44.753Z</time>
      </trkpt>
      <trkpt lat="44.24234" lon="6.13283">
        <ele>1177.4000244141</ele>
        <time>2021-06-21T08:49:56.179Z</time>
      </trkpt>
      <trkpt lat="44.24222" lon="6.13258">
        <ele>1177.4000244141</ele>
        <time>2021-06-21T08:50:07.614Z</time>
      </trkpt>
      <trkpt lat="44.24199" lon="6.13241">
        <ele>1177.4000244141</ele>
        <time>2021-06-21T08:50:19.058Z</time>
      </trkpt>
      <trkpt lat="44.2415" lon="6.13198">
        <ele>1177.4000244141</ele>
        <time>2021-06-21T08:50:30.524Z</time>
      </trkpt>
      <trkpt lat="44.24107" lon="6.13153">
        <ele>1174.8000488281</ele>
        <time>2021-06-21T08:50:42.009Z</time>
      </trkpt>
      <trkpt lat="44.24091" lon="6.13122">
        <ele>1174.8000488281</ele>
        <time>2021-06-21T08:50:53.504Z</time>
      </trkpt>
      <trkpt lat="44.24066" lon="6.13096">
        <ele>1174.8000488281</ele>
        <time>2021-06-21T08:51:05.011Z</time>
      </trkpt>
      <trkpt lat="44.24029" lon="6.13067">
        <ele>1174.4000244141</ele>
        <time>2021-06-21T08:51:16.533Z</time>
      </trkpt>
      <trkpt lat="44.23988" lon="6.13028">
        <ele>1174.4000244141</ele>
        <time>2021-06-21T08:51:28.074Z</time>
      </trkpt>
      <trkpt lat="44.23957" lon="6.13011">
        <ele>1170.5999755859</ele>
        <time>2021-06-21T08:51:39.627Z</time>
      </trkpt>
      <trkpt lat="44.23887" lon="6.12965">
        <ele>1164.4000244141</ele>
        <time>2021-06-21T08:51:51.209Z</time>
      </trkpt>
      <trkpt lat="44.23882" lon="6.12963">
        <ele>1164.4000244141</ele>
        <time>2021-06-21T08:52:02.793Z</time>
      </trkpt>
      <trkpt lat="44.2388" lon="6.12964">
        <ele>1163</ele>
        <time>2021-06-21T08:52:14.377Z</time>
      </trkpt>
      <trkpt lat="44.23876" lon="6.1297">
        <ele>1163</ele>
        <time>2021-06-21T08:52:25.964Z</time>
      </trkpt>
      <trkpt lat="44.23872" lon="6.12991">
        <ele>1161.1999511719</ele>
        <time>2021-06-21T08:52:37.556Z</time>
      </trkpt>
      <trkpt lat="44.23867" lon="6.13003">
        <ele>1160</ele>
        <time>2021-06-21T08:52:49.152Z</time>
      </trkpt>
      <trkpt lat="44.23859" lon="6.13008">
        <ele>1160</ele>
        <time>2021-06-21T08:53:00.751Z</time>
      </trkpt>
      <trkpt lat="44.23851" lon="6.13006">
        <ele>1157.5999755859</ele>
        <time>2021-06-21T08:53:12.353Z</time>
      </trkpt>
      <trkpt lat="44.23844" lon="6.13">
        <ele>1157.5999755859</ele>
        <time>2021-06-21T08:53:23.958Z</time>
      </trkpt>
      <trkpt lat="44.23814" lon="6.12971">
        <ele>1157.5999755859</ele>
        <time>2021-06-21T08:53:35.576Z</time>
      </trkpt>
      <trkpt lat="44.23795" lon="6.12955">
        <ele>1154</ele>
        <time>2021-06-21T08:53:47.203Z</time>
      </trkpt>
      <trkpt lat="44.23773" lon="6.12939">
        <ele>1153</ele>
        <time>2021-06-21T08:53:58.839Z</time>
      </trkpt>
      <trkpt lat="44.23756" lon="6.12921">
        <ele>1153</ele>
        <time>2021-06-21T08:54:10.483Z</time>
      </trkpt>
      <trkpt lat="44.23752" lon="6.12908">
        <ele>1153</ele>
        <time>2021-06-21T08:54:22.130Z</time>
      </trkpt>
      <trkpt lat="44.23751" lon="6.12896">
        <ele>1151.8000488281</ele>
        <time>2021-06-21T08:54:33.781Z</time>
      </trkpt>
      <trkpt lat="44.23756" lon="6.12881">
        <ele>1152</ele>
        <time>2021-06-21T08:54:45.436Z</time>
      </trkpt>
      <trkpt lat="44.2376" lon="6.12873">
        <ele>1152</ele>
        <time>2021-06-21T08:54:57.094Z</time>
      </trkpt>
      <trkpt lat="44.23758" lon="6.1286">
        <ele>1152</ele>
        <time>2021-06-21T08:55:08.755Z</time>
      </trkpt>
      <trkpt lat="44.23754" lon="6.1285">
        <ele>1150.8000488281</ele>
        <time>2021-06-21T08:55:20.420Z</time>
      </trkpt>
      <trkpt lat="44.23748" lon="6.12846">
        <ele>1149.8000488281</ele>
        <time>2021-06-21T08:55:32.087Z</time>
      </trkpt>
    </trkseg>
  </trk>
</gpx>